<?xml version="1.0" encoding="UTF-8" standalone="no" ?>
<gpx xmlns="http://www.topografix.com/GPX/1/1" xmlns:xsi="http://www.w3.org/2001/XMLSchema-instance" xsi:schemaLocation="http://www.topografix.com/GPX/1/1 http://www.topografix.com/GPX/1/1/gpx.xsd" version="1.1" creator="VisuGPX - https://www.visugpx.com">
  <metadata>
    <name>Rando autour de Vaucelles via Les Creuttes</name>
    <desc><![CDATA[très jolie balade à travers bois,recommandée par temps chaud]]></desc>
  </metadata>
  <trk>
    <name><![CDATA[17 Rue du Passage d'Ane]]></name>
    <desc><![CDATA[]]></desc>
    <trkseg>
      <trkpt lat="49.53027" lon="3.55939">
        <ele>117.2</ele>
        <time>2015-08-15T14:55:54.398Z</time>
      </trkpt>
      <trkpt lat="49.53034" lon="3.55938">
        <ele>117.2</ele>
        <time>2015-08-15T15:00:04.956Z</time>
      </trkpt>
      <trkpt lat="49.53036" lon="3.55936">
        <ele>117.4</ele>
        <time>2015-08-15T15:00:05.368Z</time>
      </trkpt>
      <trkpt lat="49.53041" lon="3.55927">
        <ele>115.8</ele>
        <time>2015-08-15T15:00:13.400Z</time>
      </trkpt>
      <trkpt lat="49.53042" lon="3.55926">
        <ele>115.7</ele>
        <time>2015-08-15T15:00:14.366Z</time>
      </trkpt>
      <trkpt lat="49.5305" lon="3.55921">
        <ele>112.3</ele>
        <time>2015-08-15T15:00:24.588Z</time>
      </trkpt>
      <trkpt lat="49.53051" lon="3.5592">
        <ele>112.2</ele>
        <time>2015-08-15T15:00:25.350Z</time>
      </trkpt>
      <trkpt lat="49.53058" lon="3.55912">
        <ele>111.7</ele>
        <time>2015-08-15T15:00:32.325Z</time>
      </trkpt>
      <trkpt lat="49.53059" lon="3.55911">
        <ele>112</ele>
        <time>2015-08-15T15:00:33.328Z</time>
      </trkpt>
      <trkpt lat="49.53065" lon="3.55903">
        <ele>112.9</ele>
        <time>2015-08-15T15:00:39.420Z</time>
      </trkpt>
      <trkpt lat="49.53067" lon="3.55903">
        <ele>112.9</ele>
        <time>2015-08-15T15:00:40.384Z</time>
      </trkpt>
      <trkpt lat="49.53073" lon="3.55895">
        <ele>112.3</ele>
        <time>2015-08-15T15:00:47.344Z</time>
      </trkpt>
      <trkpt lat="49.53074" lon="3.55893">
        <ele>112.3</ele>
        <time>2015-08-15T15:00:48.425Z</time>
      </trkpt>
      <trkpt lat="49.5308" lon="3.55884">
        <ele>112.6</ele>
        <time>2015-08-15T15:00:56.447Z</time>
      </trkpt>
      <trkpt lat="49.53081" lon="3.55882">
        <ele>112.5</ele>
        <time>2015-08-15T15:00:57.334Z</time>
      </trkpt>
      <trkpt lat="49.53086" lon="3.55872">
        <ele>112.8</ele>
        <time>2015-08-15T15:01:03.327Z</time>
      </trkpt>
      <trkpt lat="49.53087" lon="3.5587">
        <ele>113</ele>
        <time>2015-08-15T15:01:04.305Z</time>
      </trkpt>
      <trkpt lat="49.53093" lon="3.55863">
        <ele>113.8</ele>
        <time>2015-08-15T15:01:10.413Z</time>
      </trkpt>
      <trkpt lat="49.53094" lon="3.55862">
        <ele>114</ele>
        <time>2015-08-15T15:01:11.387Z</time>
      </trkpt>
      <trkpt lat="49.53102" lon="3.55855">
        <ele>113.9</ele>
        <time>2015-08-15T15:01:18.381Z</time>
      </trkpt>
      <trkpt lat="49.53103" lon="3.55855">
        <ele>113.9</ele>
        <time>2015-08-15T15:01:19.365Z</time>
      </trkpt>
      <trkpt lat="49.5311" lon="3.55847">
        <ele>113.7</ele>
        <time>2015-08-15T15:01:26.402Z</time>
      </trkpt>
      <trkpt lat="49.53111" lon="3.55845">
        <ele>113.6</ele>
        <time>2015-08-15T15:01:27.380Z</time>
      </trkpt>
      <trkpt lat="49.53118" lon="3.55839">
        <ele>113.2</ele>
        <time>2015-08-15T15:01:33.388Z</time>
      </trkpt>
      <trkpt lat="49.53119" lon="3.55838">
        <ele>113.2</ele>
        <time>2015-08-15T15:01:34.341Z</time>
      </trkpt>
      <trkpt lat="49.53125" lon="3.55831">
        <ele>113.1</ele>
        <time>2015-08-15T15:01:40.420Z</time>
      </trkpt>
      <trkpt lat="49.53127" lon="3.5583">
        <ele>113.1</ele>
        <time>2015-08-15T15:01:41.407Z</time>
      </trkpt>
      <trkpt lat="49.53133" lon="3.5582">
        <ele>113.2</ele>
        <time>2015-08-15T15:01:47.393Z</time>
      </trkpt>
      <trkpt lat="49.53133" lon="3.55819">
        <ele>113.1</ele>
        <time>2015-08-15T15:01:48.371Z</time>
      </trkpt>
      <trkpt lat="49.53138" lon="3.55809">
        <ele>111.9</ele>
        <time>2015-08-15T15:01:54.992Z</time>
      </trkpt>
      <trkpt lat="49.53139" lon="3.55807">
        <ele>111.6</ele>
        <time>2015-08-15T15:01:55.973Z</time>
      </trkpt>
      <trkpt lat="49.53145" lon="3.55798">
        <ele>111.1</ele>
        <time>2015-08-15T15:02:02.024Z</time>
      </trkpt>
      <trkpt lat="49.53146" lon="3.55797">
        <ele>110.7</ele>
        <time>2015-08-15T15:02:02.922Z</time>
      </trkpt>
      <trkpt lat="49.53152" lon="3.55787">
        <ele>109.3</ele>
        <time>2015-08-15T15:02:09.022Z</time>
      </trkpt>
      <trkpt lat="49.53153" lon="3.55785">
        <ele>109.3</ele>
        <time>2015-08-15T15:02:10.000Z</time>
      </trkpt>
      <trkpt lat="49.53159" lon="3.55775">
        <ele>108.7</ele>
        <time>2015-08-15T15:02:15.945Z</time>
      </trkpt>
      <trkpt lat="49.53159" lon="3.55773">
        <ele>108.8</ele>
        <time>2015-08-15T15:02:16.937Z</time>
      </trkpt>
      <trkpt lat="49.53163" lon="3.55761">
        <ele>108.7</ele>
        <time>2015-08-15T15:02:23.055Z</time>
      </trkpt>
      <trkpt lat="49.53164" lon="3.55759">
        <ele>108.8</ele>
        <time>2015-08-15T15:02:23.911Z</time>
      </trkpt>
      <trkpt lat="49.53168" lon="3.55748">
        <ele>110.3</ele>
        <time>2015-08-15T15:02:29.969Z</time>
      </trkpt>
      <trkpt lat="49.53168" lon="3.55745">
        <ele>110.4</ele>
        <time>2015-08-15T15:02:30.987Z</time>
      </trkpt>
      <trkpt lat="49.53169" lon="3.55733">
        <ele>110.2</ele>
        <time>2015-08-15T15:02:37.010Z</time>
      </trkpt>
      <trkpt lat="49.53169" lon="3.55731">
        <ele>110</ele>
        <time>2015-08-15T15:02:37.993Z</time>
      </trkpt>
      <trkpt lat="49.5317" lon="3.55717">
        <ele>109.7</ele>
        <time>2015-08-15T15:02:45.949Z</time>
      </trkpt>
      <trkpt lat="49.5317" lon="3.55715">
        <ele>109.7</ele>
        <time>2015-08-15T15:02:46.926Z</time>
      </trkpt>
      <trkpt lat="49.53172" lon="3.55703">
        <ele>109.5</ele>
        <time>2015-08-15T15:02:54.168Z</time>
      </trkpt>
      <trkpt lat="49.53172" lon="3.55701">
        <ele>109.4</ele>
        <time>2015-08-15T15:02:54.987Z</time>
      </trkpt>
      <trkpt lat="49.53174" lon="3.55689">
        <ele>110</ele>
        <time>2015-08-15T15:03:01.947Z</time>
      </trkpt>
      <trkpt lat="49.53174" lon="3.55687">
        <ele>110.4</ele>
        <time>2015-08-15T15:03:02.931Z</time>
      </trkpt>
      <trkpt lat="49.53177" lon="3.55675">
        <ele>111.9</ele>
        <time>2015-08-15T15:03:10.027Z</time>
      </trkpt>
      <trkpt lat="49.53177" lon="3.55673">
        <ele>112.1</ele>
        <time>2015-08-15T15:03:11.004Z</time>
      </trkpt>
      <trkpt lat="49.53178" lon="3.5566">
        <ele>113.5</ele>
        <time>2015-08-15T15:03:20.017Z</time>
      </trkpt>
      <trkpt lat="49.53178" lon="3.55658">
        <ele>113.8</ele>
        <time>2015-08-15T15:03:20.987Z</time>
      </trkpt>
      <trkpt lat="49.5318" lon="3.55645">
        <ele>116.4</ele>
        <time>2015-08-15T15:03:28.014Z</time>
      </trkpt>
      <trkpt lat="49.5318" lon="3.55643">
        <ele>116.5</ele>
        <time>2015-08-15T15:03:28.990Z</time>
      </trkpt>
      <trkpt lat="49.53183" lon="3.55632">
        <ele>117.4</ele>
        <time>2015-08-15T15:03:34.986Z</time>
      </trkpt>
      <trkpt lat="49.53183" lon="3.5563">
        <ele>117.6</ele>
        <time>2015-08-15T15:03:35.949Z</time>
      </trkpt>
      <trkpt lat="49.53189" lon="3.55622">
        <ele>118.3</ele>
        <time>2015-08-15T15:03:42.206Z</time>
      </trkpt>
      <trkpt lat="49.5319" lon="3.5562">
        <ele>118.4</ele>
        <time>2015-08-15T15:03:42.973Z</time>
      </trkpt>
      <trkpt lat="49.53196" lon="3.55611">
        <ele>119.4</ele>
        <time>2015-08-15T15:03:50.997Z</time>
      </trkpt>
      <trkpt lat="49.53197" lon="3.5561">
        <ele>119.5</ele>
        <time>2015-08-15T15:03:51.972Z</time>
      </trkpt>
      <trkpt lat="49.532" lon="3.55598">
        <ele>121.1</ele>
        <time>2015-08-15T15:04:02.020Z</time>
      </trkpt>
      <trkpt lat="49.532" lon="3.55597">
        <ele>121.3</ele>
        <time>2015-08-15T15:04:02.915Z</time>
      </trkpt>
      <trkpt lat="49.53204" lon="3.55585">
        <ele>122.1</ele>
        <time>2015-08-15T15:04:10.935Z</time>
      </trkpt>
      <trkpt lat="49.53205" lon="3.55583">
        <ele>122.3</ele>
        <time>2015-08-15T15:04:11.916Z</time>
      </trkpt>
      <trkpt lat="49.53207" lon="3.55572">
        <ele>123.7</ele>
        <time>2015-08-15T15:04:18.963Z</time>
      </trkpt>
      <trkpt lat="49.53206" lon="3.55571">
        <ele>124.3</ele>
        <time>2015-08-15T15:04:19.951Z</time>
      </trkpt>
      <trkpt lat="49.53206" lon="3.55571">
        <ele>124.4</ele>
        <time>2015-08-15T15:04:26.926Z</time>
      </trkpt>
      <trkpt lat="49.53204" lon="3.5557">
        <ele>125.6</ele>
        <time>2015-08-15T15:04:27.906Z</time>
      </trkpt>
      <trkpt lat="49.53208" lon="3.55558">
        <ele>126.4</ele>
        <time>2015-08-15T15:04:35.930Z</time>
      </trkpt>
      <trkpt lat="49.53208" lon="3.55556">
        <ele>126.5</ele>
        <time>2015-08-15T15:04:36.955Z</time>
      </trkpt>
      <trkpt lat="49.5321" lon="3.55549">
        <ele>126.7</ele>
        <time>2015-08-15T15:04:42.020Z</time>
      </trkpt>
      <trkpt lat="49.5321" lon="3.55548">
        <ele>126.7</ele>
        <time>2015-08-15T15:04:43.001Z</time>
      </trkpt>
      <trkpt lat="49.5321" lon="3.55548">
        <ele>126.7</ele>
        <time>2015-08-15T15:04:44.930Z</time>
      </trkpt>
      <trkpt lat="49.5321" lon="3.55548">
        <ele>126.7</ele>
        <time>2015-08-15T15:04:45.903Z</time>
      </trkpt>
      <trkpt lat="49.53213" lon="3.55536">
        <ele>127.5</ele>
        <time>2015-08-15T15:04:53.813Z</time>
      </trkpt>
      <trkpt lat="49.53214" lon="3.55535">
        <ele>127.6</ele>
        <time>2015-08-15T15:04:53.981Z</time>
      </trkpt>
      <trkpt lat="49.53219" lon="3.55523">
        <ele>127.9</ele>
        <time>2015-08-15T15:05:00.968Z</time>
      </trkpt>
      <trkpt lat="49.5322" lon="3.55522">
        <ele>128</ele>
        <time>2015-08-15T15:05:01.946Z</time>
      </trkpt>
      <trkpt lat="49.53224" lon="3.55512">
        <ele>128.5</ele>
        <time>2015-08-15T15:05:08.960Z</time>
      </trkpt>
      <trkpt lat="49.53224" lon="3.5551">
        <ele>128.5</ele>
        <time>2015-08-15T15:05:09.958Z</time>
      </trkpt>
      <trkpt lat="49.53229" lon="3.55499">
        <ele>129</ele>
        <time>2015-08-15T15:05:14.971Z</time>
      </trkpt>
      <trkpt lat="49.53229" lon="3.55497">
        <ele>129.1</ele>
        <time>2015-08-15T15:05:15.951Z</time>
      </trkpt>
      <trkpt lat="49.5323" lon="3.55485">
        <ele>129.8</ele>
        <time>2015-08-15T15:05:22.215Z</time>
      </trkpt>
      <trkpt lat="49.5323" lon="3.55482">
        <ele>129.9</ele>
        <time>2015-08-15T15:05:22.872Z</time>
      </trkpt>
      <trkpt lat="49.53229" lon="3.55469">
        <ele>130.9</ele>
        <time>2015-08-15T15:05:33.941Z</time>
      </trkpt>
      <trkpt lat="49.53229" lon="3.55468">
        <ele>130.9</ele>
        <time>2015-08-15T15:05:34.920Z</time>
      </trkpt>
      <trkpt lat="49.53228" lon="3.55455">
        <ele>131.4</ele>
        <time>2015-08-15T15:05:43.955Z</time>
      </trkpt>
      <trkpt lat="49.53228" lon="3.55453">
        <ele>131.4</ele>
        <time>2015-08-15T15:05:44.943Z</time>
      </trkpt>
      <trkpt lat="49.53227" lon="3.55444">
        <ele>132.6</ele>
        <time>2015-08-15T15:05:53.953Z</time>
      </trkpt>
      <trkpt lat="49.53227" lon="3.55443">
        <ele>132.7</ele>
        <time>2015-08-15T15:05:54.948Z</time>
      </trkpt>
      <trkpt lat="49.53227" lon="3.55443">
        <ele>132.7</ele>
        <time>2015-08-15T15:05:54.976Z</time>
      </trkpt>
      <trkpt lat="49.53227" lon="3.55443">
        <ele>132.9</ele>
        <time>2015-08-15T15:05:55.963Z</time>
      </trkpt>
      <trkpt lat="49.53227" lon="3.55429">
        <ele>133.9</ele>
        <time>2015-08-15T15:06:03.986Z</time>
      </trkpt>
      <trkpt lat="49.53226" lon="3.55427">
        <ele>133.4</ele>
        <time>2015-08-15T15:06:04.968Z</time>
      </trkpt>
      <trkpt lat="49.53225" lon="3.55424">
        <ele>133.4</ele>
        <time>2015-08-15T15:06:07.010Z</time>
      </trkpt>
      <trkpt lat="49.53225" lon="3.55423">
        <ele>133.6</ele>
        <time>2015-08-15T15:06:07.987Z</time>
      </trkpt>
      <trkpt lat="49.53226" lon="3.55422">
        <ele>133.9</ele>
        <time>2015-08-15T15:06:08.925Z</time>
      </trkpt>
      <trkpt lat="49.53226" lon="3.55421">
        <ele>134.3</ele>
        <time>2015-08-15T15:06:09.900Z</time>
      </trkpt>
      <trkpt lat="49.53228" lon="3.5541">
        <ele>135.8</ele>
        <time>2015-08-15T15:06:16.958Z</time>
      </trkpt>
      <trkpt lat="49.53228" lon="3.55407">
        <ele>136.1</ele>
        <time>2015-08-15T15:06:17.915Z</time>
      </trkpt>
      <trkpt lat="49.53226" lon="3.55395">
        <ele>136.4</ele>
        <time>2015-08-15T15:06:23.047Z</time>
      </trkpt>
      <trkpt lat="49.53226" lon="3.55392">
        <ele>136.6</ele>
        <time>2015-08-15T15:06:23.990Z</time>
      </trkpt>
      <trkpt lat="49.53225" lon="3.55386">
        <ele>138.5</ele>
        <time>2015-08-15T15:06:29.975Z</time>
      </trkpt>
      <trkpt lat="49.53225" lon="3.55385">
        <ele>138.7</ele>
        <time>2015-08-15T15:06:30.969Z</time>
      </trkpt>
      <trkpt lat="49.53226" lon="3.55384">
        <ele>138.7</ele>
        <time>2015-08-15T15:06:34.030Z</time>
      </trkpt>
      <trkpt lat="49.53225" lon="3.55382">
        <ele>138.4</ele>
        <time>2015-08-15T15:06:34.993Z</time>
      </trkpt>
      <trkpt lat="49.53225" lon="3.55381">
        <ele>138.9</ele>
        <time>2015-08-15T15:06:37.944Z</time>
      </trkpt>
      <trkpt lat="49.53225" lon="3.5538">
        <ele>139.1</ele>
        <time>2015-08-15T15:06:38.922Z</time>
      </trkpt>
      <trkpt lat="49.53225" lon="3.5538">
        <ele>139.6</ele>
        <time>2015-08-15T15:06:49.232Z</time>
      </trkpt>
      <trkpt lat="49.53227" lon="3.55378">
        <ele>141.6</ele>
        <time>2015-08-15T15:06:49.899Z</time>
      </trkpt>
      <trkpt lat="49.53227" lon="3.55365">
        <ele>148.1</ele>
        <time>2015-08-15T15:07:12.003Z</time>
      </trkpt>
      <trkpt lat="49.53227" lon="3.55364">
        <ele>148</ele>
        <time>2015-08-15T15:07:12.984Z</time>
      </trkpt>
      <trkpt lat="49.53225" lon="3.55352">
        <ele>148.5</ele>
        <time>2015-08-15T15:07:22.966Z</time>
      </trkpt>
      <trkpt lat="49.53224" lon="3.5535">
        <ele>148.8</ele>
        <time>2015-08-15T15:07:23.926Z</time>
      </trkpt>
      <trkpt lat="49.53221" lon="3.55339">
        <ele>149.5</ele>
        <time>2015-08-15T15:07:29.929Z</time>
      </trkpt>
      <trkpt lat="49.53221" lon="3.55337">
        <ele>149.2</ele>
        <time>2015-08-15T15:07:30.970Z</time>
      </trkpt>
      <trkpt lat="49.53219" lon="3.55324">
        <ele>149</ele>
        <time>2015-08-15T15:07:40.009Z</time>
      </trkpt>
      <trkpt lat="49.53219" lon="3.55323">
        <ele>149</ele>
        <time>2015-08-15T15:07:40.980Z</time>
      </trkpt>
      <trkpt lat="49.53215" lon="3.55312">
        <ele>148.8</ele>
        <time>2015-08-15T15:07:48.961Z</time>
      </trkpt>
      <trkpt lat="49.53214" lon="3.5531">
        <ele>148.6</ele>
        <time>2015-08-15T15:07:49.948Z</time>
      </trkpt>
      <trkpt lat="49.53212" lon="3.55296">
        <ele>148.7</ele>
        <time>2015-08-15T15:07:56.940Z</time>
      </trkpt>
      <trkpt lat="49.53213" lon="3.55293">
        <ele>148.5</ele>
        <time>2015-08-15T15:07:57.896Z</time>
      </trkpt>
      <trkpt lat="49.53214" lon="3.5528">
        <ele>149.2</ele>
        <time>2015-08-15T15:08:05.028Z</time>
      </trkpt>
      <trkpt lat="49.53214" lon="3.55278">
        <ele>149.3</ele>
        <time>2015-08-15T15:08:05.893Z</time>
      </trkpt>
      <trkpt lat="49.53212" lon="3.55266">
        <ele>150.4</ele>
        <time>2015-08-15T15:08:12.970Z</time>
      </trkpt>
      <trkpt lat="49.53211" lon="3.55264">
        <ele>150.8</ele>
        <time>2015-08-15T15:08:13.956Z</time>
      </trkpt>
      <trkpt lat="49.53215" lon="3.55251">
        <ele>152.9</ele>
        <time>2015-08-15T15:08:21.012Z</time>
      </trkpt>
      <trkpt lat="49.53215" lon="3.5525">
        <ele>153.1</ele>
        <time>2015-08-15T15:08:21.977Z</time>
      </trkpt>
      <trkpt lat="49.53217" lon="3.55245">
        <ele>153.4</ele>
        <time>2015-08-15T15:08:28.947Z</time>
      </trkpt>
      <trkpt lat="49.53218" lon="3.55245">
        <ele>153.3</ele>
        <time>2015-08-15T15:08:29.917Z</time>
      </trkpt>
      <trkpt lat="49.53218" lon="3.55245">
        <ele>153.3</ele>
        <time>2015-08-15T15:08:29.948Z</time>
      </trkpt>
      <trkpt lat="49.53218" lon="3.55244">
        <ele>153.6</ele>
        <time>2015-08-15T15:08:30.969Z</time>
      </trkpt>
      <trkpt lat="49.53227" lon="3.55243">
        <ele>153.2</ele>
        <time>2015-08-15T15:08:37.977Z</time>
      </trkpt>
      <trkpt lat="49.53229" lon="3.55243">
        <ele>152.9</ele>
        <time>2015-08-15T15:08:38.952Z</time>
      </trkpt>
      <trkpt lat="49.53236" lon="3.5524">
        <ele>152.3</ele>
        <time>2015-08-15T15:08:43.016Z</time>
      </trkpt>
      <trkpt lat="49.53237" lon="3.55239">
        <ele>152</ele>
        <time>2015-08-15T15:08:43.891Z</time>
      </trkpt>
      <trkpt lat="49.53244" lon="3.55233">
        <ele>151.8</ele>
        <time>2015-08-15T15:08:47.960Z</time>
      </trkpt>
      <trkpt lat="49.53246" lon="3.55232">
        <ele>151.7</ele>
        <time>2015-08-15T15:08:48.946Z</time>
      </trkpt>
      <trkpt lat="49.53249" lon="3.55222">
        <ele>152.6</ele>
        <time>2015-08-15T15:08:54.963Z</time>
      </trkpt>
      <trkpt lat="49.53252" lon="3.55219">
        <ele>152.9</ele>
        <time>2015-08-15T15:08:55.944Z</time>
      </trkpt>
      <trkpt lat="49.53258" lon="3.55209">
        <ele>151.4</ele>
        <time>2015-08-15T15:09:00.977Z</time>
      </trkpt>
      <trkpt lat="49.53259" lon="3.55207">
        <ele>150.8</ele>
        <time>2015-08-15T15:09:01.959Z</time>
      </trkpt>
      <trkpt lat="49.53263" lon="3.55195">
        <ele>153.3</ele>
        <time>2015-08-15T15:09:07.982Z</time>
      </trkpt>
      <trkpt lat="49.53262" lon="3.55193">
        <ele>153.1</ele>
        <time>2015-08-15T15:09:08.948Z</time>
      </trkpt>
      <trkpt lat="49.53263" lon="3.55181">
        <ele>157</ele>
        <time>2015-08-15T15:09:14.910Z</time>
      </trkpt>
      <trkpt lat="49.53263" lon="3.55178">
        <ele>157.5</ele>
        <time>2015-08-15T15:09:15.887Z</time>
      </trkpt>
      <trkpt lat="49.53261" lon="3.55165">
        <ele>161.1</ele>
        <time>2015-08-15T15:09:23.009Z</time>
      </trkpt>
      <trkpt lat="49.53261" lon="3.55163">
        <ele>161.5</ele>
        <time>2015-08-15T15:09:23.892Z</time>
      </trkpt>
      <trkpt lat="49.5326" lon="3.5515">
        <ele>163.8</ele>
        <time>2015-08-15T15:09:31.003Z</time>
      </trkpt>
      <trkpt lat="49.5326" lon="3.55149">
        <ele>164.3</ele>
        <time>2015-08-15T15:09:31.888Z</time>
      </trkpt>
      <trkpt lat="49.53256" lon="3.55137">
        <ele>167.5</ele>
        <time>2015-08-15T15:09:40.015Z</time>
      </trkpt>
      <trkpt lat="49.53255" lon="3.55135">
        <ele>167.7</ele>
        <time>2015-08-15T15:09:40.990Z</time>
      </trkpt>
      <trkpt lat="49.53249" lon="3.55127">
        <ele>167.4</ele>
        <time>2015-08-15T15:09:46.951Z</time>
      </trkpt>
      <trkpt lat="49.53248" lon="3.55125">
        <ele>167.3</ele>
        <time>2015-08-15T15:09:47.939Z</time>
      </trkpt>
      <trkpt lat="49.53242" lon="3.55117">
        <ele>166</ele>
        <time>2015-08-15T15:09:53.930Z</time>
      </trkpt>
      <trkpt lat="49.53241" lon="3.55115">
        <ele>165.8</ele>
        <time>2015-08-15T15:09:54.962Z</time>
      </trkpt>
      <trkpt lat="49.53234" lon="3.5511">
        <ele>164.9</ele>
        <time>2015-08-15T15:10:01.942Z</time>
      </trkpt>
      <trkpt lat="49.53233" lon="3.5511">
        <ele>164.7</ele>
        <time>2015-08-15T15:10:02.912Z</time>
      </trkpt>
      <trkpt lat="49.53233" lon="3.5511">
        <ele>164.7</ele>
        <time>2015-08-15T15:10:06.988Z</time>
      </trkpt>
      <trkpt lat="49.53231" lon="3.5511">
        <ele>164.2</ele>
        <time>2015-08-15T15:10:07.966Z</time>
      </trkpt>
      <trkpt lat="49.53225" lon="3.55102">
        <ele>162</ele>
        <time>2015-08-15T15:10:17.973Z</time>
      </trkpt>
      <trkpt lat="49.53224" lon="3.55101">
        <ele>161.7</ele>
        <time>2015-08-15T15:10:18.971Z</time>
      </trkpt>
      <trkpt lat="49.53219" lon="3.55091">
        <ele>160.5</ele>
        <time>2015-08-15T15:10:26.050Z</time>
      </trkpt>
      <trkpt lat="49.53219" lon="3.55089">
        <ele>160.2</ele>
        <time>2015-08-15T15:10:26.907Z</time>
      </trkpt>
      <trkpt lat="49.53216" lon="3.55078">
        <ele>157.7</ele>
        <time>2015-08-15T15:10:35.029Z</time>
      </trkpt>
      <trkpt lat="49.53216" lon="3.55075">
        <ele>157.5</ele>
        <time>2015-08-15T15:10:35.910Z</time>
      </trkpt>
      <trkpt lat="49.53215" lon="3.55062">
        <ele>155.2</ele>
        <time>2015-08-15T15:10:44.024Z</time>
      </trkpt>
      <trkpt lat="49.53215" lon="3.5506">
        <ele>155</ele>
        <time>2015-08-15T15:10:44.895Z</time>
      </trkpt>
      <trkpt lat="49.53209" lon="3.5505">
        <ele>153.6</ele>
        <time>2015-08-15T15:10:52.003Z</time>
      </trkpt>
      <trkpt lat="49.53208" lon="3.55049">
        <ele>153.5</ele>
        <time>2015-08-15T15:10:52.967Z</time>
      </trkpt>
      <trkpt lat="49.53201" lon="3.55042">
        <ele>152.7</ele>
        <time>2015-08-15T15:10:58.979Z</time>
      </trkpt>
      <trkpt lat="49.532" lon="3.5504">
        <ele>152.6</ele>
        <time>2015-08-15T15:10:59.972Z</time>
      </trkpt>
      <trkpt lat="49.53194" lon="3.55034">
        <ele>151.8</ele>
        <time>2015-08-15T15:11:05.904Z</time>
      </trkpt>
      <trkpt lat="49.53193" lon="3.55032">
        <ele>151.6</ele>
        <time>2015-08-15T15:11:06.918Z</time>
      </trkpt>
      <trkpt lat="49.53186" lon="3.55025">
        <ele>151.3</ele>
        <time>2015-08-15T15:11:12.989Z</time>
      </trkpt>
      <trkpt lat="49.53185" lon="3.55024">
        <ele>151.2</ele>
        <time>2015-08-15T15:11:13.872Z</time>
      </trkpt>
      <trkpt lat="49.53178" lon="3.55015">
        <ele>150.8</ele>
        <time>2015-08-15T15:11:20.968Z</time>
      </trkpt>
      <trkpt lat="49.53178" lon="3.55014">
        <ele>150.8</ele>
        <time>2015-08-15T15:11:21.947Z</time>
      </trkpt>
      <trkpt lat="49.53173" lon="3.55002">
        <ele>149.9</ele>
        <time>2015-08-15T15:11:29.935Z</time>
      </trkpt>
      <trkpt lat="49.53173" lon="3.55001">
        <ele>149.8</ele>
        <time>2015-08-15T15:11:30.916Z</time>
      </trkpt>
      <trkpt lat="49.53173" lon="3.54988">
        <ele>149.1</ele>
        <time>2015-08-15T15:11:40.903Z</time>
      </trkpt>
      <trkpt lat="49.53174" lon="3.54986">
        <ele>149</ele>
        <time>2015-08-15T15:11:41.887Z</time>
      </trkpt>
      <trkpt lat="49.53174" lon="3.54973">
        <ele>148.7</ele>
        <time>2015-08-15T15:11:50.908Z</time>
      </trkpt>
      <trkpt lat="49.53174" lon="3.54971">
        <ele>148.7</ele>
        <time>2015-08-15T15:11:51.889Z</time>
      </trkpt>
      <trkpt lat="49.53174" lon="3.54958">
        <ele>149</ele>
        <time>2015-08-15T15:11:58.986Z</time>
      </trkpt>
      <trkpt lat="49.53173" lon="3.54957">
        <ele>148.9</ele>
        <time>2015-08-15T15:11:59.976Z</time>
      </trkpt>
      <trkpt lat="49.5317" lon="3.54945">
        <ele>148.5</ele>
        <time>2015-08-15T15:12:08.022Z</time>
      </trkpt>
      <trkpt lat="49.5317" lon="3.54944">
        <ele>148.4</ele>
        <time>2015-08-15T15:12:08.961Z</time>
      </trkpt>
      <trkpt lat="49.53168" lon="3.54931">
        <ele>148.4</ele>
        <time>2015-08-15T15:12:16.916Z</time>
      </trkpt>
      <trkpt lat="49.53168" lon="3.54929">
        <ele>148.5</ele>
        <time>2015-08-15T15:12:17.896Z</time>
      </trkpt>
      <trkpt lat="49.53161" lon="3.54922">
        <ele>148.9</ele>
        <time>2015-08-15T15:12:26.902Z</time>
      </trkpt>
      <trkpt lat="49.5316" lon="3.54921">
        <ele>149</ele>
        <time>2015-08-15T15:12:27.891Z</time>
      </trkpt>
      <trkpt lat="49.53152" lon="3.54915">
        <ele>148.8</ele>
        <time>2015-08-15T15:12:35.999Z</time>
      </trkpt>
      <trkpt lat="49.53152" lon="3.54913">
        <ele>148.7</ele>
        <time>2015-08-15T15:12:36.978Z</time>
      </trkpt>
      <trkpt lat="49.5315" lon="3.54899">
        <ele>149</ele>
        <time>2015-08-15T15:12:43.977Z</time>
      </trkpt>
      <trkpt lat="49.53151" lon="3.54897">
        <ele>148.8</ele>
        <time>2015-08-15T15:12:44.958Z</time>
      </trkpt>
      <trkpt lat="49.53149" lon="3.54888">
        <ele>147.7</ele>
        <time>2015-08-15T15:12:51.000Z</time>
      </trkpt>
      <trkpt lat="49.53149" lon="3.54887">
        <ele>147.7</ele>
        <time>2015-08-15T15:12:51.958Z</time>
      </trkpt>
      <trkpt lat="49.53149" lon="3.54887">
        <ele>147.7</ele>
        <time>2015-08-15T15:12:51.989Z</time>
      </trkpt>
      <trkpt lat="49.53149" lon="3.54886">
        <ele>147.7</ele>
        <time>2015-08-15T15:12:52.961Z</time>
      </trkpt>
      <trkpt lat="49.53144" lon="3.54876">
        <ele>148.7</ele>
        <time>2015-08-15T15:13:01.964Z</time>
      </trkpt>
      <trkpt lat="49.53143" lon="3.54876">
        <ele>148.8</ele>
        <time>2015-08-15T15:13:02.934Z</time>
      </trkpt>
      <trkpt lat="49.53137" lon="3.54866">
        <ele>149.1</ele>
        <time>2015-08-15T15:13:17.206Z</time>
      </trkpt>
      <trkpt lat="49.53135" lon="3.54865">
        <ele>148.8</ele>
        <time>2015-08-15T15:13:17.868Z</time>
      </trkpt>
      <trkpt lat="49.53128" lon="3.54856">
        <ele>148.9</ele>
        <time>2015-08-15T15:13:25.963Z</time>
      </trkpt>
      <trkpt lat="49.53128" lon="3.54855">
        <ele>149.1</ele>
        <time>2015-08-15T15:13:26.941Z</time>
      </trkpt>
      <trkpt lat="49.53125" lon="3.54844">
        <ele>150.8</ele>
        <time>2015-08-15T15:13:30.922Z</time>
      </trkpt>
      <trkpt lat="49.53124" lon="3.54842">
        <ele>151.2</ele>
        <time>2015-08-15T15:13:31.909Z</time>
      </trkpt>
      <trkpt lat="49.53122" lon="3.54829">
        <ele>153.7</ele>
        <time>2015-08-15T15:13:40.941Z</time>
      </trkpt>
      <trkpt lat="49.53122" lon="3.54829">
        <ele>154.1</ele>
        <time>2015-08-15T15:13:41.916Z</time>
      </trkpt>
      <trkpt lat="49.53122" lon="3.54829">
        <ele>154.1</ele>
        <time>2015-08-15T15:13:41.959Z</time>
      </trkpt>
      <trkpt lat="49.53123" lon="3.54829">
        <ele>154.3</ele>
        <time>2015-08-15T15:13:42.931Z</time>
      </trkpt>
      <trkpt lat="49.5313" lon="3.54823">
        <ele>155.2</ele>
        <time>2015-08-15T15:13:48.915Z</time>
      </trkpt>
      <trkpt lat="49.53131" lon="3.54823">
        <ele>155.3</ele>
        <time>2015-08-15T15:13:49.906Z</time>
      </trkpt>
      <trkpt lat="49.53134" lon="3.54821">
        <ele>155.9</ele>
        <time>2015-08-15T15:13:53.894Z</time>
      </trkpt>
      <trkpt lat="49.53134" lon="3.54821">
        <ele>155.9</ele>
        <time>2015-08-15T15:13:54.892Z</time>
      </trkpt>
      <trkpt lat="49.53134" lon="3.54821">
        <ele>155.9</ele>
        <time>2015-08-15T15:13:55.938Z</time>
      </trkpt>
      <trkpt lat="49.53135" lon="3.54821">
        <ele>156</ele>
        <time>2015-08-15T15:13:56.910Z</time>
      </trkpt>
      <trkpt lat="49.53136" lon="3.54822">
        <ele>156.1</ele>
        <time>2015-08-15T15:13:57.948Z</time>
      </trkpt>
      <trkpt lat="49.53136" lon="3.54822">
        <ele>156</ele>
        <time>2015-08-15T15:13:58.924Z</time>
      </trkpt>
      <trkpt lat="49.53136" lon="3.54821">
        <ele>156.2</ele>
        <time>2015-08-15T15:14:00.029Z</time>
      </trkpt>
      <trkpt lat="49.53135" lon="3.54822">
        <ele>156.5</ele>
        <time>2015-08-15T15:14:00.948Z</time>
      </trkpt>
      <trkpt lat="49.53143" lon="3.54821">
        <ele>157.2</ele>
        <time>2015-08-15T15:14:13.027Z</time>
      </trkpt>
      <trkpt lat="49.53146" lon="3.5482">
        <ele>157</ele>
        <time>2015-08-15T15:14:13.873Z</time>
      </trkpt>
      <trkpt lat="49.53154" lon="3.54822">
        <ele>157.1</ele>
        <time>2015-08-15T15:14:21.188Z</time>
      </trkpt>
      <trkpt lat="49.53155" lon="3.54822">
        <ele>157.1</ele>
        <time>2015-08-15T15:14:21.921Z</time>
      </trkpt>
      <trkpt lat="49.5316" lon="3.54818">
        <ele>157.9</ele>
        <time>2015-08-15T15:14:29.903Z</time>
      </trkpt>
      <trkpt lat="49.5316" lon="3.54817">
        <ele>157.9</ele>
        <time>2015-08-15T15:14:30.916Z</time>
      </trkpt>
      <trkpt lat="49.5316" lon="3.54817">
        <ele>157.9</ele>
        <time>2015-08-15T15:14:30.944Z</time>
      </trkpt>
      <trkpt lat="49.53161" lon="3.54817">
        <ele>158</ele>
        <time>2015-08-15T15:14:31.914Z</time>
      </trkpt>
      <trkpt lat="49.53168" lon="3.54812">
        <ele>158.8</ele>
        <time>2015-08-15T15:14:37.992Z</time>
      </trkpt>
      <trkpt lat="49.5317" lon="3.5481">
        <ele>159.1</ele>
        <time>2015-08-15T15:14:38.872Z</time>
      </trkpt>
      <trkpt lat="49.53172" lon="3.54801">
        <ele>159.2</ele>
        <time>2015-08-15T15:14:43.958Z</time>
      </trkpt>
      <trkpt lat="49.53172" lon="3.548">
        <ele>159.3</ele>
        <time>2015-08-15T15:14:44.944Z</time>
      </trkpt>
      <trkpt lat="49.53172" lon="3.548">
        <ele>159.3</ele>
        <time>2015-08-15T15:14:44.983Z</time>
      </trkpt>
      <trkpt lat="49.53173" lon="3.54799">
        <ele>159.5</ele>
        <time>2015-08-15T15:14:45.950Z</time>
      </trkpt>
      <trkpt lat="49.53179" lon="3.54796">
        <ele>160.9</ele>
        <time>2015-08-15T15:14:52.930Z</time>
      </trkpt>
      <trkpt lat="49.53179" lon="3.54796">
        <ele>160.9</ele>
        <time>2015-08-15T15:14:53.902Z</time>
      </trkpt>
      <trkpt lat="49.53179" lon="3.54796">
        <ele>161</ele>
        <time>2015-08-15T15:14:54.936Z</time>
      </trkpt>
      <trkpt lat="49.5318" lon="3.54796">
        <ele>161.1</ele>
        <time>2015-08-15T15:14:55.918Z</time>
      </trkpt>
      <trkpt lat="49.53189" lon="3.54792">
        <ele>161.1</ele>
        <time>2015-08-15T15:15:04.904Z</time>
      </trkpt>
      <trkpt lat="49.5319" lon="3.54789">
        <ele>161.1</ele>
        <time>2015-08-15T15:15:05.884Z</time>
      </trkpt>
      <trkpt lat="49.53195" lon="3.54784">
        <ele>161.1</ele>
        <time>2015-08-15T15:15:10.956Z</time>
      </trkpt>
      <trkpt lat="49.53196" lon="3.54784">
        <ele>161</ele>
        <time>2015-08-15T15:15:11.926Z</time>
      </trkpt>
      <trkpt lat="49.53201" lon="3.54781">
        <ele>161.6</ele>
        <time>2015-08-15T15:15:16.900Z</time>
      </trkpt>
      <trkpt lat="49.53203" lon="3.5478">
        <ele>161.7</ele>
        <time>2015-08-15T15:15:17.875Z</time>
      </trkpt>
      <trkpt lat="49.53203" lon="3.54778">
        <ele>161.8</ele>
        <time>2015-08-15T15:15:18.952Z</time>
      </trkpt>
      <trkpt lat="49.53204" lon="3.54777">
        <ele>161.9</ele>
        <time>2015-08-15T15:15:19.924Z</time>
      </trkpt>
      <trkpt lat="49.53204" lon="3.54777">
        <ele>161.9</ele>
        <time>2015-08-15T15:15:19.959Z</time>
      </trkpt>
      <trkpt lat="49.53205" lon="3.54776">
        <ele>162.4</ele>
        <time>2015-08-15T15:15:20.950Z</time>
      </trkpt>
      <trkpt lat="49.53205" lon="3.54776">
        <ele>162.7</ele>
        <time>2015-08-15T15:15:21.981Z</time>
      </trkpt>
      <trkpt lat="49.53206" lon="3.54776">
        <ele>163.3</ele>
        <time>2015-08-15T15:15:22.958Z</time>
      </trkpt>
      <trkpt lat="49.53206" lon="3.54776">
        <ele>163.3</ele>
        <time>2015-08-15T15:15:23.000Z</time>
      </trkpt>
      <trkpt lat="49.53206" lon="3.54775">
        <ele>163.6</ele>
        <time>2015-08-15T15:15:23.972Z</time>
      </trkpt>
      <trkpt lat="49.53211" lon="3.54764">
        <ele>164.5</ele>
        <time>2015-08-15T15:15:29.946Z</time>
      </trkpt>
      <trkpt lat="49.53212" lon="3.54763">
        <ele>164.7</ele>
        <time>2015-08-15T15:15:30.934Z</time>
      </trkpt>
      <trkpt lat="49.53219" lon="3.54757">
        <ele>165.4</ele>
        <time>2015-08-15T15:15:35.942Z</time>
      </trkpt>
      <trkpt lat="49.53221" lon="3.54756">
        <ele>165.4</ele>
        <time>2015-08-15T15:15:36.939Z</time>
      </trkpt>
      <trkpt lat="49.53227" lon="3.54748">
        <ele>165.6</ele>
        <time>2015-08-15T15:15:41.954Z</time>
      </trkpt>
      <trkpt lat="49.53228" lon="3.54747">
        <ele>165.6</ele>
        <time>2015-08-15T15:15:42.950Z</time>
      </trkpt>
      <trkpt lat="49.53235" lon="3.54739">
        <ele>165.7</ele>
        <time>2015-08-15T15:15:49.942Z</time>
      </trkpt>
      <trkpt lat="49.53235" lon="3.54738">
        <ele>165.7</ele>
        <time>2015-08-15T15:15:50.919Z</time>
      </trkpt>
      <trkpt lat="49.53241" lon="3.5473">
        <ele>166.6</ele>
        <time>2015-08-15T15:15:58.919Z</time>
      </trkpt>
      <trkpt lat="49.53243" lon="3.5473">
        <ele>166.9</ele>
        <time>2015-08-15T15:15:59.903Z</time>
      </trkpt>
      <trkpt lat="49.53251" lon="3.54724">
        <ele>167.1</ele>
        <time>2015-08-15T15:16:05.981Z</time>
      </trkpt>
      <trkpt lat="49.53252" lon="3.54723">
        <ele>167</ele>
        <time>2015-08-15T15:16:06.955Z</time>
      </trkpt>
      <trkpt lat="49.53259" lon="3.54716">
        <ele>167.1</ele>
        <time>2015-08-15T15:16:13.966Z</time>
      </trkpt>
      <trkpt lat="49.53261" lon="3.54714">
        <ele>167.4</ele>
        <time>2015-08-15T15:16:14.959Z</time>
      </trkpt>
      <trkpt lat="49.53266" lon="3.54704">
        <ele>168.2</ele>
        <time>2015-08-15T15:16:19.932Z</time>
      </trkpt>
      <trkpt lat="49.53266" lon="3.54703">
        <ele>168.2</ele>
        <time>2015-08-15T15:16:20.916Z</time>
      </trkpt>
      <trkpt lat="49.53272" lon="3.54693">
        <ele>167.9</ele>
        <time>2015-08-15T15:16:27.939Z</time>
      </trkpt>
      <trkpt lat="49.53273" lon="3.54692">
        <ele>167.8</ele>
        <time>2015-08-15T15:16:28.919Z</time>
      </trkpt>
      <trkpt lat="49.53273" lon="3.54678">
        <ele>166.5</ele>
        <time>2015-08-15T15:16:38.916Z</time>
      </trkpt>
      <trkpt lat="49.53272" lon="3.54677">
        <ele>166.5</ele>
        <time>2015-08-15T15:16:39.896Z</time>
      </trkpt>
      <trkpt lat="49.53276" lon="3.54665">
        <ele>166.1</ele>
        <time>2015-08-15T15:16:49.893Z</time>
      </trkpt>
      <trkpt lat="49.53277" lon="3.54663">
        <ele>166.3</ele>
        <time>2015-08-15T15:16:50.875Z</time>
      </trkpt>
      <trkpt lat="49.53283" lon="3.54657">
        <ele>166.8</ele>
        <time>2015-08-15T15:16:56.942Z</time>
      </trkpt>
      <trkpt lat="49.53283" lon="3.54657">
        <ele>166.7</ele>
        <time>2015-08-15T15:16:57.916Z</time>
      </trkpt>
      <trkpt lat="49.53283" lon="3.54657">
        <ele>166.7</ele>
        <time>2015-08-15T15:16:57.944Z</time>
      </trkpt>
      <trkpt lat="49.53284" lon="3.54657">
        <ele>166.6</ele>
        <time>2015-08-15T15:16:58.933Z</time>
      </trkpt>
      <trkpt lat="49.53292" lon="3.5465">
        <ele>167.8</ele>
        <time>2015-08-15T15:17:04.931Z</time>
      </trkpt>
      <trkpt lat="49.53292" lon="3.54649">
        <ele>167.9</ele>
        <time>2015-08-15T15:17:05.907Z</time>
      </trkpt>
      <trkpt lat="49.53293" lon="3.54635">
        <ele>166.7</ele>
        <time>2015-08-15T15:17:14.991Z</time>
      </trkpt>
      <trkpt lat="49.53294" lon="3.54634">
        <ele>166.8</ele>
        <time>2015-08-15T15:17:15.883Z</time>
      </trkpt>
      <trkpt lat="49.53298" lon="3.54622">
        <ele>166</ele>
        <time>2015-08-15T15:17:20.968Z</time>
      </trkpt>
      <trkpt lat="49.53299" lon="3.54619">
        <ele>165.6</ele>
        <time>2015-08-15T15:17:21.949Z</time>
      </trkpt>
      <trkpt lat="49.53304" lon="3.54609">
        <ele>163</ele>
        <time>2015-08-15T15:17:27.025Z</time>
      </trkpt>
      <trkpt lat="49.53305" lon="3.54607">
        <ele>162.6</ele>
        <time>2015-08-15T15:17:27.898Z</time>
      </trkpt>
      <trkpt lat="49.53311" lon="3.54598">
        <ele>161.6</ele>
        <time>2015-08-15T15:17:34.928Z</time>
      </trkpt>
      <trkpt lat="49.53311" lon="3.54597">
        <ele>161.8</ele>
        <time>2015-08-15T15:17:35.916Z</time>
      </trkpt>
      <trkpt lat="49.53312" lon="3.54597">
        <ele>161.8</ele>
        <time>2015-08-15T15:17:37.027Z</time>
      </trkpt>
      <trkpt lat="49.53313" lon="3.54597">
        <ele>161.9</ele>
        <time>2015-08-15T15:17:37.969Z</time>
      </trkpt>
      <trkpt lat="49.53321" lon="3.5459">
        <ele>161.6</ele>
        <time>2015-08-15T15:17:45.942Z</time>
      </trkpt>
      <trkpt lat="49.53322" lon="3.54589">
        <ele>161.7</ele>
        <time>2015-08-15T15:17:46.915Z</time>
      </trkpt>
      <trkpt lat="49.53329" lon="3.54583">
        <ele>161.6</ele>
        <time>2015-08-15T15:17:51.947Z</time>
      </trkpt>
      <trkpt lat="49.5333" lon="3.54582">
        <ele>161.8</ele>
        <time>2015-08-15T15:17:52.897Z</time>
      </trkpt>
      <trkpt lat="49.53336" lon="3.54575">
        <ele>161.2</ele>
        <time>2015-08-15T15:17:59.931Z</time>
      </trkpt>
      <trkpt lat="49.53338" lon="3.54573">
        <ele>161.2</ele>
        <time>2015-08-15T15:18:00.959Z</time>
      </trkpt>
      <trkpt lat="49.53343" lon="3.54563">
        <ele>158.8</ele>
        <time>2015-08-15T15:18:07.029Z</time>
      </trkpt>
      <trkpt lat="49.53342" lon="3.54561">
        <ele>157.9</ele>
        <time>2015-08-15T15:18:07.908Z</time>
      </trkpt>
      <trkpt lat="49.53345" lon="3.54549">
        <ele>154.9</ele>
        <time>2015-08-15T15:18:15.946Z</time>
      </trkpt>
      <trkpt lat="49.53346" lon="3.54548">
        <ele>155.1</ele>
        <time>2015-08-15T15:18:16.921Z</time>
      </trkpt>
      <trkpt lat="49.53349" lon="3.54546">
        <ele>155</ele>
        <time>2015-08-15T15:18:20.016Z</time>
      </trkpt>
      <trkpt lat="49.53349" lon="3.54546">
        <ele>155.3</ele>
        <time>2015-08-15T15:18:20.996Z</time>
      </trkpt>
      <trkpt lat="49.53349" lon="3.54546">
        <ele>155.3</ele>
        <time>2015-08-15T15:18:21.033Z</time>
      </trkpt>
      <trkpt lat="49.53351" lon="3.54546">
        <ele>155.4</ele>
        <time>2015-08-15T15:18:21.909Z</time>
      </trkpt>
      <trkpt lat="49.53353" lon="3.54545">
        <ele>155.9</ele>
        <time>2015-08-15T15:18:24.994Z</time>
      </trkpt>
      <trkpt lat="49.53353" lon="3.54545">
        <ele>156.1</ele>
        <time>2015-08-15T15:18:25.979Z</time>
      </trkpt>
      <trkpt lat="49.53353" lon="3.54545">
        <ele>156.1</ele>
        <time>2015-08-15T15:18:26.023Z</time>
      </trkpt>
      <trkpt lat="49.53354" lon="3.54544">
        <ele>156.1</ele>
        <time>2015-08-15T15:18:26.985Z</time>
      </trkpt>
      <trkpt lat="49.53361" lon="3.54539">
        <ele>156.1</ele>
        <time>2015-08-15T15:18:31.995Z</time>
      </trkpt>
      <trkpt lat="49.53364" lon="3.54537">
        <ele>155.9</ele>
        <time>2015-08-15T15:18:32.979Z</time>
      </trkpt>
      <trkpt lat="49.5337" lon="3.54528">
        <ele>153.6</ele>
        <time>2015-08-15T15:18:38.007Z</time>
      </trkpt>
      <trkpt lat="49.53371" lon="3.54525">
        <ele>154.1</ele>
        <time>2015-08-15T15:18:38.999Z</time>
      </trkpt>
      <trkpt lat="49.53376" lon="3.54514">
        <ele>157.3</ele>
        <time>2015-08-15T15:18:43.890Z</time>
      </trkpt>
      <trkpt lat="49.53377" lon="3.54513">
        <ele>158.1</ele>
        <time>2015-08-15T15:18:44.893Z</time>
      </trkpt>
      <trkpt lat="49.53376" lon="3.545">
        <ele>163.2</ele>
        <time>2015-08-15T15:18:52.998Z</time>
      </trkpt>
      <trkpt lat="49.53375" lon="3.54498">
        <ele>163.3</ele>
        <time>2015-08-15T15:18:53.968Z</time>
      </trkpt>
      <trkpt lat="49.53372" lon="3.54487">
        <ele>165.6</ele>
        <time>2015-08-15T15:18:59.959Z</time>
      </trkpt>
      <trkpt lat="49.53372" lon="3.54485">
        <ele>165.9</ele>
        <time>2015-08-15T15:19:00.976Z</time>
      </trkpt>
      <trkpt lat="49.53369" lon="3.54473">
        <ele>167.9</ele>
        <time>2015-08-15T15:19:07.014Z</time>
      </trkpt>
      <trkpt lat="49.53369" lon="3.54471">
        <ele>168.1</ele>
        <time>2015-08-15T15:19:07.968Z</time>
      </trkpt>
      <trkpt lat="49.53366" lon="3.54458">
        <ele>170.1</ele>
        <time>2015-08-15T15:19:14.933Z</time>
      </trkpt>
      <trkpt lat="49.53365" lon="3.54456">
        <ele>170.3</ele>
        <time>2015-08-15T15:19:15.911Z</time>
      </trkpt>
      <trkpt lat="49.53362" lon="3.54444">
        <ele>171.6</ele>
        <time>2015-08-15T15:19:23.018Z</time>
      </trkpt>
      <trkpt lat="49.53361" lon="3.54442">
        <ele>171.9</ele>
        <time>2015-08-15T15:19:23.999Z</time>
      </trkpt>
      <trkpt lat="49.53357" lon="3.54431">
        <ele>173</ele>
        <time>2015-08-15T15:19:29.973Z</time>
      </trkpt>
      <trkpt lat="49.53357" lon="3.54429">
        <ele>173.2</ele>
        <time>2015-08-15T15:19:30.972Z</time>
      </trkpt>
      <trkpt lat="49.53355" lon="3.54416">
        <ele>174.2</ele>
        <time>2015-08-15T15:19:37.923Z</time>
      </trkpt>
      <trkpt lat="49.53354" lon="3.54414">
        <ele>174.3</ele>
        <time>2015-08-15T15:19:38.891Z</time>
      </trkpt>
      <trkpt lat="49.53352" lon="3.54402">
        <ele>175.3</ele>
        <time>2015-08-15T15:19:45.249Z</time>
      </trkpt>
      <trkpt lat="49.53352" lon="3.544">
        <ele>175.5</ele>
        <time>2015-08-15T15:19:45.895Z</time>
      </trkpt>
      <trkpt lat="49.53348" lon="3.54388">
        <ele>173.2</ele>
        <time>2015-08-15T15:19:52.152Z</time>
      </trkpt>
      <trkpt lat="49.53347" lon="3.54386">
        <ele>172.6</ele>
        <time>2015-08-15T15:19:52.982Z</time>
      </trkpt>
      <trkpt lat="49.53343" lon="3.54375">
        <ele>169.3</ele>
        <time>2015-08-15T15:19:59.168Z</time>
      </trkpt>
      <trkpt lat="49.53342" lon="3.54373">
        <ele>168.9</ele>
        <time>2015-08-15T15:19:59.940Z</time>
      </trkpt>
      <trkpt lat="49.53338" lon="3.54362">
        <ele>166.7</ele>
        <time>2015-08-15T15:20:05.932Z</time>
      </trkpt>
      <trkpt lat="49.53338" lon="3.54359">
        <ele>166.3</ele>
        <time>2015-08-15T15:20:07.020Z</time>
      </trkpt>
      <trkpt lat="49.53334" lon="3.54347">
        <ele>163.9</ele>
        <time>2015-08-15T15:20:13.985Z</time>
      </trkpt>
      <trkpt lat="49.53334" lon="3.54345">
        <ele>163.5</ele>
        <time>2015-08-15T15:20:14.958Z</time>
      </trkpt>
      <trkpt lat="49.53331" lon="3.54334">
        <ele>162.5</ele>
        <time>2015-08-15T15:20:21.019Z</time>
      </trkpt>
      <trkpt lat="49.53331" lon="3.54332">
        <ele>162.4</ele>
        <time>2015-08-15T15:20:21.990Z</time>
      </trkpt>
      <trkpt lat="49.53328" lon="3.54319">
        <ele>161.3</ele>
        <time>2015-08-15T15:20:29.017Z</time>
      </trkpt>
      <trkpt lat="49.53328" lon="3.54317">
        <ele>161.2</ele>
        <time>2015-08-15T15:20:29.988Z</time>
      </trkpt>
      <trkpt lat="49.53325" lon="3.54305">
        <ele>161</ele>
        <time>2015-08-15T15:20:35.964Z</time>
      </trkpt>
      <trkpt lat="49.53324" lon="3.54303">
        <ele>161</ele>
        <time>2015-08-15T15:20:36.942Z</time>
      </trkpt>
      <trkpt lat="49.53322" lon="3.54291">
        <ele>160.9</ele>
        <time>2015-08-15T15:20:43.923Z</time>
      </trkpt>
      <trkpt lat="49.53322" lon="3.5429">
        <ele>160.9</ele>
        <time>2015-08-15T15:20:44.905Z</time>
      </trkpt>
      <trkpt lat="49.53321" lon="3.54276">
        <ele>160.5</ele>
        <time>2015-08-15T15:20:51.950Z</time>
      </trkpt>
      <trkpt lat="49.5332" lon="3.54275">
        <ele>160.5</ele>
        <time>2015-08-15T15:20:52.893Z</time>
      </trkpt>
      <trkpt lat="49.53316" lon="3.54263">
        <ele>160</ele>
        <time>2015-08-15T15:20:59.924Z</time>
      </trkpt>
      <trkpt lat="49.53315" lon="3.54262">
        <ele>159.9</ele>
        <time>2015-08-15T15:21:00.949Z</time>
      </trkpt>
      <trkpt lat="49.53312" lon="3.5425">
        <ele>159.2</ele>
        <time>2015-08-15T15:21:07.954Z</time>
      </trkpt>
      <trkpt lat="49.53312" lon="3.54248">
        <ele>158.9</ele>
        <time>2015-08-15T15:21:08.934Z</time>
      </trkpt>
      <trkpt lat="49.53309" lon="3.54235">
        <ele>158.2</ele>
        <time>2015-08-15T15:21:16.928Z</time>
      </trkpt>
      <trkpt lat="49.53308" lon="3.54234">
        <ele>158.2</ele>
        <time>2015-08-15T15:21:17.896Z</time>
      </trkpt>
      <trkpt lat="49.53303" lon="3.54224">
        <ele>158.5</ele>
        <time>2015-08-15T15:21:25.960Z</time>
      </trkpt>
      <trkpt lat="49.53302" lon="3.54223">
        <ele>158.3</ele>
        <time>2015-08-15T15:21:26.925Z</time>
      </trkpt>
      <trkpt lat="49.53304" lon="3.5421">
        <ele>156.8</ele>
        <time>2015-08-15T15:21:36.020Z</time>
      </trkpt>
      <trkpt lat="49.53304" lon="3.54208">
        <ele>156.9</ele>
        <time>2015-08-15T15:21:37.093Z</time>
      </trkpt>
      <trkpt lat="49.53306" lon="3.54201">
        <ele>156.5</ele>
        <time>2015-08-15T15:21:42.974Z</time>
      </trkpt>
      <trkpt lat="49.53305" lon="3.542">
        <ele>156.6</ele>
        <time>2015-08-15T15:21:43.951Z</time>
      </trkpt>
      <trkpt lat="49.53306" lon="3.542">
        <ele>156.5</ele>
        <time>2015-08-15T15:21:46.913Z</time>
      </trkpt>
      <trkpt lat="49.53306" lon="3.54199">
        <ele>156.3</ele>
        <time>2015-08-15T15:21:47.891Z</time>
      </trkpt>
      <trkpt lat="49.53306" lon="3.54198">
        <ele>156.1</ele>
        <time>2015-08-15T15:21:48.965Z</time>
      </trkpt>
      <trkpt lat="49.53306" lon="3.54198">
        <ele>156</ele>
        <time>2015-08-15T15:21:49.943Z</time>
      </trkpt>
      <trkpt lat="49.53306" lon="3.54198">
        <ele>156</ele>
        <time>2015-08-15T15:22:13.985Z</time>
      </trkpt>
      <trkpt lat="49.53307" lon="3.54198">
        <ele>156.4</ele>
        <time>2015-08-15T15:22:14.964Z</time>
      </trkpt>
      <trkpt lat="49.53299" lon="3.54196">
        <ele>158.3</ele>
        <time>2015-08-15T15:22:35.955Z</time>
      </trkpt>
      <trkpt lat="49.53298" lon="3.54195">
        <ele>158.4</ele>
        <time>2015-08-15T15:22:36.958Z</time>
      </trkpt>
      <trkpt lat="49.53291" lon="3.54186">
        <ele>158</ele>
        <time>2015-08-15T15:22:43.992Z</time>
      </trkpt>
      <trkpt lat="49.5329" lon="3.54185">
        <ele>158</ele>
        <time>2015-08-15T15:22:44.962Z</time>
      </trkpt>
      <trkpt lat="49.53286" lon="3.54175">
        <ele>158.4</ele>
        <time>2015-08-15T15:22:51.927Z</time>
      </trkpt>
      <trkpt lat="49.53285" lon="3.54173">
        <ele>158.4</ele>
        <time>2015-08-15T15:22:52.903Z</time>
      </trkpt>
      <trkpt lat="49.53283" lon="3.5416">
        <ele>158.8</ele>
        <time>2015-08-15T15:23:01.968Z</time>
      </trkpt>
      <trkpt lat="49.53283" lon="3.54159">
        <ele>158.8</ele>
        <time>2015-08-15T15:23:02.945Z</time>
      </trkpt>
      <trkpt lat="49.5328" lon="3.54147">
        <ele>160.3</ele>
        <time>2015-08-15T15:23:11.956Z</time>
      </trkpt>
      <trkpt lat="49.53279" lon="3.54146">
        <ele>160.5</ele>
        <time>2015-08-15T15:23:12.967Z</time>
      </trkpt>
      <trkpt lat="49.53276" lon="3.54134">
        <ele>161</ele>
        <time>2015-08-15T15:23:21.999Z</time>
      </trkpt>
      <trkpt lat="49.53277" lon="3.54134">
        <ele>160.9</ele>
        <time>2015-08-15T15:23:22.981Z</time>
      </trkpt>
      <trkpt lat="49.53277" lon="3.54134">
        <ele>160.9</ele>
        <time>2015-08-15T15:23:23.013Z</time>
      </trkpt>
      <trkpt lat="49.53277" lon="3.54134">
        <ele>160.8</ele>
        <time>2015-08-15T15:23:23.989Z</time>
      </trkpt>
      <trkpt lat="49.53276" lon="3.54134">
        <ele>160.9</ele>
        <time>2015-08-15T15:23:25.933Z</time>
      </trkpt>
      <trkpt lat="49.53276" lon="3.54133">
        <ele>161.1</ele>
        <time>2015-08-15T15:23:26.901Z</time>
      </trkpt>
      <trkpt lat="49.53276" lon="3.54133">
        <ele>161.1</ele>
        <time>2015-08-15T15:23:29.157Z</time>
      </trkpt>
      <trkpt lat="49.53275" lon="3.54134">
        <ele>161.2</ele>
        <time>2015-08-15T15:23:29.971Z</time>
      </trkpt>
      <trkpt lat="49.53268" lon="3.54126">
        <ele>161.8</ele>
        <time>2015-08-15T15:23:35.945Z</time>
      </trkpt>
      <trkpt lat="49.53268" lon="3.54124">
        <ele>162</ele>
        <time>2015-08-15T15:23:36.959Z</time>
      </trkpt>
      <trkpt lat="49.53267" lon="3.54112">
        <ele>163.4</ele>
        <time>2015-08-15T15:23:44.007Z</time>
      </trkpt>
      <trkpt lat="49.53267" lon="3.5411">
        <ele>163.5</ele>
        <time>2015-08-15T15:23:44.986Z</time>
      </trkpt>
      <trkpt lat="49.53267" lon="3.54096">
        <ele>164.2</ele>
        <time>2015-08-15T15:23:53.919Z</time>
      </trkpt>
      <trkpt lat="49.53267" lon="3.54094">
        <ele>164.4</ele>
        <time>2015-08-15T15:23:54.930Z</time>
      </trkpt>
      <trkpt lat="49.53267" lon="3.54082">
        <ele>165.5</ele>
        <time>2015-08-15T15:24:01.019Z</time>
      </trkpt>
      <trkpt lat="49.53267" lon="3.54079">
        <ele>165.6</ele>
        <time>2015-08-15T15:24:01.885Z</time>
      </trkpt>
      <trkpt lat="49.5327" lon="3.54068">
        <ele>166.8</ele>
        <time>2015-08-15T15:24:07.978Z</time>
      </trkpt>
      <trkpt lat="49.53271" lon="3.54067">
        <ele>166.8</ele>
        <time>2015-08-15T15:24:08.947Z</time>
      </trkpt>
      <trkpt lat="49.53278" lon="3.54058">
        <ele>168</ele>
        <time>2015-08-15T15:24:14.930Z</time>
      </trkpt>
      <trkpt lat="49.53279" lon="3.54057">
        <ele>168.1</ele>
        <time>2015-08-15T15:24:15.903Z</time>
      </trkpt>
      <trkpt lat="49.53284" lon="3.54047">
        <ele>168.5</ele>
        <time>2015-08-15T15:24:22.213Z</time>
      </trkpt>
      <trkpt lat="49.53285" lon="3.54045">
        <ele>168.4</ele>
        <time>2015-08-15T15:24:22.967Z</time>
      </trkpt>
      <trkpt lat="49.5329" lon="3.54035">
        <ele>168.9</ele>
        <time>2015-08-15T15:24:29.941Z</time>
      </trkpt>
      <trkpt lat="49.53291" lon="3.54033">
        <ele>168.9</ele>
        <time>2015-08-15T15:24:30.937Z</time>
      </trkpt>
      <trkpt lat="49.53293" lon="3.54025">
        <ele>169.4</ele>
        <time>2015-08-15T15:24:37.917Z</time>
      </trkpt>
      <trkpt lat="49.53292" lon="3.54025">
        <ele>169.4</ele>
        <time>2015-08-15T15:24:38.903Z</time>
      </trkpt>
      <trkpt lat="49.53293" lon="3.54024">
        <ele>169.4</ele>
        <time>2015-08-15T15:24:39.946Z</time>
      </trkpt>
      <trkpt lat="49.53293" lon="3.54023">
        <ele>169.4</ele>
        <time>2015-08-15T15:24:40.911Z</time>
      </trkpt>
      <trkpt lat="49.53298" lon="3.54012">
        <ele>170.1</ele>
        <time>2015-08-15T15:24:50.004Z</time>
      </trkpt>
      <trkpt lat="49.53299" lon="3.54011">
        <ele>170.2</ele>
        <time>2015-08-15T15:24:50.983Z</time>
      </trkpt>
      <trkpt lat="49.53303" lon="3.53998">
        <ele>171.9</ele>
        <time>2015-08-15T15:25:02.902Z</time>
      </trkpt>
      <trkpt lat="49.53303" lon="3.53997">
        <ele>172.1</ele>
        <time>2015-08-15T15:25:03.885Z</time>
      </trkpt>
      <trkpt lat="49.53308" lon="3.53987">
        <ele>173.5</ele>
        <time>2015-08-15T15:25:12.971Z</time>
      </trkpt>
      <trkpt lat="49.53309" lon="3.53986">
        <ele>173.6</ele>
        <time>2015-08-15T15:25:13.938Z</time>
      </trkpt>
      <trkpt lat="49.53315" lon="3.53978">
        <ele>175.7</ele>
        <time>2015-08-15T15:25:21.935Z</time>
      </trkpt>
      <trkpt lat="49.53316" lon="3.53976">
        <ele>175.9</ele>
        <time>2015-08-15T15:25:22.919Z</time>
      </trkpt>
      <trkpt lat="49.53324" lon="3.53971">
        <ele>176.3</ele>
        <time>2015-08-15T15:25:29.906Z</time>
      </trkpt>
      <trkpt lat="49.53325" lon="3.53971">
        <ele>176</ele>
        <time>2015-08-15T15:25:30.986Z</time>
      </trkpt>
      <trkpt lat="49.53325" lon="3.53971">
        <ele>176</ele>
        <time>2015-08-15T15:25:31.016Z</time>
      </trkpt>
      <trkpt lat="49.53326" lon="3.5397">
        <ele>175.8</ele>
        <time>2015-08-15T15:25:31.883Z</time>
      </trkpt>
      <trkpt lat="49.53333" lon="3.53968">
        <ele>175.9</ele>
        <time>2015-08-15T15:25:39.994Z</time>
      </trkpt>
      <trkpt lat="49.53335" lon="3.53968">
        <ele>175.7</ele>
        <time>2015-08-15T15:25:40.965Z</time>
      </trkpt>
      <trkpt lat="49.53342" lon="3.53965">
        <ele>176.7</ele>
        <time>2015-08-15T15:25:47.915Z</time>
      </trkpt>
      <trkpt lat="49.53344" lon="3.53964">
        <ele>176.8</ele>
        <time>2015-08-15T15:25:48.940Z</time>
      </trkpt>
      <trkpt lat="49.53351" lon="3.5396">
        <ele>178.5</ele>
        <time>2015-08-15T15:25:56.991Z</time>
      </trkpt>
      <trkpt lat="49.53352" lon="3.53959">
        <ele>178.6</ele>
        <time>2015-08-15T15:25:57.959Z</time>
      </trkpt>
      <trkpt lat="49.5336" lon="3.53954">
        <ele>180.1</ele>
        <time>2015-08-15T15:26:04.930Z</time>
      </trkpt>
      <trkpt lat="49.53361" lon="3.53953">
        <ele>180.5</ele>
        <time>2015-08-15T15:26:05.912Z</time>
      </trkpt>
      <trkpt lat="49.53367" lon="3.53945">
        <ele>182.4</ele>
        <time>2015-08-15T15:26:14.007Z</time>
      </trkpt>
      <trkpt lat="49.53367" lon="3.53944">
        <ele>182.6</ele>
        <time>2015-08-15T15:26:14.976Z</time>
      </trkpt>
      <trkpt lat="49.53372" lon="3.53933">
        <ele>184.6</ele>
        <time>2015-08-15T15:26:24.009Z</time>
      </trkpt>
      <trkpt lat="49.53373" lon="3.53932">
        <ele>184.9</ele>
        <time>2015-08-15T15:26:24.989Z</time>
      </trkpt>
      <trkpt lat="49.5338" lon="3.53925">
        <ele>186.9</ele>
        <time>2015-08-15T15:26:34.004Z</time>
      </trkpt>
      <trkpt lat="49.53381" lon="3.53924">
        <ele>186.9</ele>
        <time>2015-08-15T15:26:34.976Z</time>
      </trkpt>
      <trkpt lat="49.53384" lon="3.53913">
        <ele>188.1</ele>
        <time>2015-08-15T15:26:42.987Z</time>
      </trkpt>
      <trkpt lat="49.53386" lon="3.53911">
        <ele>188.6</ele>
        <time>2015-08-15T15:26:43.966Z</time>
      </trkpt>
      <trkpt lat="49.53393" lon="3.53905">
        <ele>191.5</ele>
        <time>2015-08-15T15:26:50.924Z</time>
      </trkpt>
      <trkpt lat="49.53394" lon="3.53904">
        <ele>191.6</ele>
        <time>2015-08-15T15:26:51.893Z</time>
      </trkpt>
      <trkpt lat="49.53402" lon="3.539">
        <ele>192</ele>
        <time>2015-08-15T15:27:04.172Z</time>
      </trkpt>
      <trkpt lat="49.53404" lon="3.539">
        <ele>192.1</ele>
        <time>2015-08-15T15:27:04.933Z</time>
      </trkpt>
      <trkpt lat="49.5341" lon="3.53899">
        <ele>191.7</ele>
        <time>2015-08-15T15:27:11.958Z</time>
      </trkpt>
      <trkpt lat="49.5341" lon="3.53899">
        <ele>191.7</ele>
        <time>2015-08-15T15:27:13.137Z</time>
      </trkpt>
      <trkpt lat="49.5341" lon="3.53899">
        <ele>191.7</ele>
        <time>2015-08-15T15:27:13.207Z</time>
      </trkpt>
      <trkpt lat="49.5341" lon="3.53899">
        <ele>191.7</ele>
        <time>2015-08-15T15:27:14.197Z</time>
      </trkpt>
      <trkpt lat="49.5341" lon="3.53899">
        <ele>191.7</ele>
        <time>2015-08-15T15:27:14.321Z</time>
      </trkpt>
      <trkpt lat="49.53409" lon="3.53899">
        <ele>191.7</ele>
        <time>2015-08-15T15:27:15.018Z</time>
      </trkpt>
      <trkpt lat="49.53409" lon="3.53899">
        <ele>191.7</ele>
        <time>2015-08-15T15:27:15.075Z</time>
      </trkpt>
      <trkpt lat="49.5341" lon="3.53899">
        <ele>191.6</ele>
        <time>2015-08-15T15:27:15.880Z</time>
      </trkpt>
      <trkpt lat="49.5341" lon="3.53899">
        <ele>191.6</ele>
        <time>2015-08-15T15:27:15.983Z</time>
      </trkpt>
      <trkpt lat="49.5341" lon="3.53898">
        <ele>191.6</ele>
        <time>2015-08-15T15:27:16.958Z</time>
      </trkpt>
      <trkpt lat="49.5341" lon="3.53898">
        <ele>191.5</ele>
        <time>2015-08-15T15:27:17.897Z</time>
      </trkpt>
      <trkpt lat="49.53409" lon="3.53897">
        <ele>191.6</ele>
        <time>2015-08-15T15:27:18.937Z</time>
      </trkpt>
      <trkpt lat="49.53407" lon="3.53895">
        <ele>192.1</ele>
        <time>2015-08-15T15:27:22.917Z</time>
      </trkpt>
      <trkpt lat="49.53407" lon="3.53895">
        <ele>192</ele>
        <time>2015-08-15T15:27:23.898Z</time>
      </trkpt>
      <trkpt lat="49.53407" lon="3.53895">
        <ele>192</ele>
        <time>2015-08-15T15:27:30.975Z</time>
      </trkpt>
      <trkpt lat="49.53409" lon="3.53897">
        <ele>192.2</ele>
        <time>2015-08-15T15:27:31.940Z</time>
      </trkpt>
      <trkpt lat="49.53411" lon="3.539">
        <ele>193</ele>
        <time>2015-08-15T15:27:55.657Z</time>
      </trkpt>
      <trkpt lat="49.53421" lon="3.53897">
        <ele>191.2</ele>
        <time>2015-08-15T15:27:56.528Z</time>
      </trkpt>
      <trkpt lat="49.53423" lon="3.53896">
        <ele>190.8</ele>
        <time>2015-08-15T15:27:58.567Z</time>
      </trkpt>
      <trkpt lat="49.53424" lon="3.53895">
        <ele>190.7</ele>
        <time>2015-08-15T15:27:59.550Z</time>
      </trkpt>
      <trkpt lat="49.53424" lon="3.53895">
        <ele>190.6</ele>
        <time>2015-08-15T15:28:00.598Z</time>
      </trkpt>
      <trkpt lat="49.53425" lon="3.53894">
        <ele>190.3</ele>
        <time>2015-08-15T15:28:01.589Z</time>
      </trkpt>
      <trkpt lat="49.53433" lon="3.53888">
        <ele>190.8</ele>
        <time>2015-08-15T15:28:21.619Z</time>
      </trkpt>
      <trkpt lat="49.53433" lon="3.53887">
        <ele>190.8</ele>
        <time>2015-08-15T15:28:22.599Z</time>
      </trkpt>
      <trkpt lat="49.53441" lon="3.53883">
        <ele>191.7</ele>
        <time>2015-08-15T15:28:30.641Z</time>
      </trkpt>
      <trkpt lat="49.53442" lon="3.53882">
        <ele>191.9</ele>
        <time>2015-08-15T15:28:31.602Z</time>
      </trkpt>
      <trkpt lat="49.5345" lon="3.53878">
        <ele>193.2</ele>
        <time>2015-08-15T15:28:40.627Z</time>
      </trkpt>
      <trkpt lat="49.53452" lon="3.53877">
        <ele>193.3</ele>
        <time>2015-08-15T15:28:41.601Z</time>
      </trkpt>
      <trkpt lat="49.53456" lon="3.53873">
        <ele>193.6</ele>
        <time>2015-08-15T15:28:48.575Z</time>
      </trkpt>
      <trkpt lat="49.53457" lon="3.53873">
        <ele>193.7</ele>
        <time>2015-08-15T15:28:49.572Z</time>
      </trkpt>
      <trkpt lat="49.53457" lon="3.53872">
        <ele>193.8</ele>
        <time>2015-08-15T15:28:50.610Z</time>
      </trkpt>
      <trkpt lat="49.53458" lon="3.53872">
        <ele>193.9</ele>
        <time>2015-08-15T15:28:51.584Z</time>
      </trkpt>
      <trkpt lat="49.53459" lon="3.53867">
        <ele>198</ele>
        <time>2015-08-15T15:29:04.573Z</time>
      </trkpt>
      <trkpt lat="49.53459" lon="3.53867">
        <ele>198.3</ele>
        <time>2015-08-15T15:29:05.529Z</time>
      </trkpt>
      <trkpt lat="49.53459" lon="3.53867">
        <ele>198.3</ele>
        <time>2015-08-15T15:30:07.621Z</time>
      </trkpt>
      <trkpt lat="49.53462" lon="3.53866">
        <ele>199.6</ele>
        <time>2015-08-15T15:30:08.579Z</time>
      </trkpt>
      <trkpt lat="49.53462" lon="3.53866">
        <ele>199.6</ele>
        <time>2015-08-15T15:30:08.620Z</time>
      </trkpt>
      <trkpt lat="49.53463" lon="3.53866">
        <ele>199.8</ele>
        <time>2015-08-15T15:30:09.582Z</time>
      </trkpt>
      <trkpt lat="49.53463" lon="3.53865">
        <ele>199.8</ele>
        <time>2015-08-15T15:30:18.853Z</time>
      </trkpt>
      <trkpt lat="49.53464" lon="3.53861">
        <ele>200</ele>
        <time>2015-08-15T15:30:19.576Z</time>
      </trkpt>
      <trkpt lat="49.53471" lon="3.53854">
        <ele>200.8</ele>
        <time>2015-08-15T15:30:40.622Z</time>
      </trkpt>
      <trkpt lat="49.53472" lon="3.53853">
        <ele>200.9</ele>
        <time>2015-08-15T15:30:41.606Z</time>
      </trkpt>
      <trkpt lat="49.53479" lon="3.53849">
        <ele>201</ele>
        <time>2015-08-15T15:30:48.590Z</time>
      </trkpt>
      <trkpt lat="49.53481" lon="3.53848">
        <ele>200.9</ele>
        <time>2015-08-15T15:30:49.566Z</time>
      </trkpt>
      <trkpt lat="49.53489" lon="3.53845">
        <ele>200.8</ele>
        <time>2015-08-15T15:30:55.637Z</time>
      </trkpt>
      <trkpt lat="49.5349" lon="3.53845">
        <ele>200.7</ele>
        <time>2015-08-15T15:30:56.514Z</time>
      </trkpt>
      <trkpt lat="49.53499" lon="3.53841">
        <ele>200.7</ele>
        <time>2015-08-15T15:31:03.631Z</time>
      </trkpt>
      <trkpt lat="49.53501" lon="3.5384">
        <ele>200.8</ele>
        <time>2015-08-15T15:31:04.601Z</time>
      </trkpt>
      <trkpt lat="49.53509" lon="3.53838">
        <ele>201.3</ele>
        <time>2015-08-15T15:31:11.591Z</time>
      </trkpt>
      <trkpt lat="49.5351" lon="3.53838">
        <ele>201.3</ele>
        <time>2015-08-15T15:31:12.554Z</time>
      </trkpt>
      <trkpt lat="49.53518" lon="3.53838">
        <ele>201.1</ele>
        <time>2015-08-15T15:31:18.563Z</time>
      </trkpt>
      <trkpt lat="49.53519" lon="3.53838">
        <ele>201.1</ele>
        <time>2015-08-15T15:31:19.575Z</time>
      </trkpt>
      <trkpt lat="49.53527" lon="3.5384">
        <ele>201.3</ele>
        <time>2015-08-15T15:31:27.633Z</time>
      </trkpt>
      <trkpt lat="49.53529" lon="3.53839">
        <ele>201.2</ele>
        <time>2015-08-15T15:31:28.612Z</time>
      </trkpt>
      <trkpt lat="49.53537" lon="3.53842">
        <ele>202.4</ele>
        <time>2015-08-15T15:31:36.562Z</time>
      </trkpt>
      <trkpt lat="49.53538" lon="3.53842">
        <ele>202.4</ele>
        <time>2015-08-15T15:31:37.627Z</time>
      </trkpt>
      <trkpt lat="49.53546" lon="3.53848">
        <ele>203.2</ele>
        <time>2015-08-15T15:31:47.655Z</time>
      </trkpt>
      <trkpt lat="49.53546" lon="3.53848">
        <ele>203.2</ele>
        <time>2015-08-15T15:31:48.529Z</time>
      </trkpt>
      <trkpt lat="49.53555" lon="3.53846">
        <ele>207.3</ele>
        <time>2015-08-15T15:32:22.650Z</time>
      </trkpt>
      <trkpt lat="49.53556" lon="3.53846">
        <ele>207.3</ele>
        <time>2015-08-15T15:32:23.618Z</time>
      </trkpt>
      <trkpt lat="49.53564" lon="3.53846">
        <ele>207.4</ele>
        <time>2015-08-15T15:32:35.557Z</time>
      </trkpt>
      <trkpt lat="49.53565" lon="3.53845">
        <ele>207.3</ele>
        <time>2015-08-15T15:32:36.541Z</time>
      </trkpt>
      <trkpt lat="49.53573" lon="3.53848">
        <ele>207.8</ele>
        <time>2015-08-15T15:32:44.528Z</time>
      </trkpt>
      <trkpt lat="49.53574" lon="3.53848">
        <ele>207.8</ele>
        <time>2015-08-15T15:32:45.508Z</time>
      </trkpt>
      <trkpt lat="49.53582" lon="3.53849">
        <ele>207.9</ele>
        <time>2015-08-15T15:32:52.605Z</time>
      </trkpt>
      <trkpt lat="49.53583" lon="3.53849">
        <ele>207.9</ele>
        <time>2015-08-15T15:32:53.578Z</time>
      </trkpt>
      <trkpt lat="49.53591" lon="3.53854">
        <ele>208.3</ele>
        <time>2015-08-15T15:33:00.914Z</time>
      </trkpt>
      <trkpt lat="49.53593" lon="3.53854">
        <ele>208.3</ele>
        <time>2015-08-15T15:33:01.600Z</time>
      </trkpt>
      <trkpt lat="49.53602" lon="3.53857">
        <ele>208.5</ele>
        <time>2015-08-15T15:33:08.572Z</time>
      </trkpt>
      <trkpt lat="49.53603" lon="3.53857">
        <ele>208.5</ele>
        <time>2015-08-15T15:33:09.578Z</time>
      </trkpt>
      <trkpt lat="49.5361" lon="3.53863">
        <ele>209.6</ele>
        <time>2015-08-15T15:33:16.586Z</time>
      </trkpt>
      <trkpt lat="49.5361" lon="3.53865">
        <ele>209.7</ele>
        <time>2015-08-15T15:33:17.583Z</time>
      </trkpt>
      <trkpt lat="49.53613" lon="3.53878">
        <ele>210.5</ele>
        <time>2015-08-15T15:33:25.628Z</time>
      </trkpt>
      <trkpt lat="49.53613" lon="3.53879">
        <ele>210.7</ele>
        <time>2015-08-15T15:33:26.620Z</time>
      </trkpt>
      <trkpt lat="49.53618" lon="3.5389">
        <ele>211.4</ele>
        <time>2015-08-15T15:33:36.581Z</time>
      </trkpt>
      <trkpt lat="49.53619" lon="3.53892">
        <ele>211.8</ele>
        <time>2015-08-15T15:33:37.585Z</time>
      </trkpt>
      <trkpt lat="49.5362" lon="3.53904">
        <ele>214.2</ele>
        <time>2015-08-15T15:33:45.643Z</time>
      </trkpt>
      <trkpt lat="49.5362" lon="3.53906">
        <ele>214.4</ele>
        <time>2015-08-15T15:33:46.514Z</time>
      </trkpt>
      <trkpt lat="49.53623" lon="3.53918">
        <ele>214</ele>
        <time>2015-08-15T15:33:52.634Z</time>
      </trkpt>
      <trkpt lat="49.53624" lon="3.5392">
        <ele>213.9</ele>
        <time>2015-08-15T15:33:53.596Z</time>
      </trkpt>
      <trkpt lat="49.53626" lon="3.53931">
        <ele>214.5</ele>
        <time>2015-08-15T15:33:59.569Z</time>
      </trkpt>
      <trkpt lat="49.53627" lon="3.53933">
        <ele>214.6</ele>
        <time>2015-08-15T15:34:00.546Z</time>
      </trkpt>
      <trkpt lat="49.53632" lon="3.53945">
        <ele>214.2</ele>
        <time>2015-08-15T15:34:07.621Z</time>
      </trkpt>
      <trkpt lat="49.53632" lon="3.53946">
        <ele>214.2</ele>
        <time>2015-08-15T15:34:08.603Z</time>
      </trkpt>
      <trkpt lat="49.5364" lon="3.53949">
        <ele>214.5</ele>
        <time>2015-08-15T15:34:19.610Z</time>
      </trkpt>
      <trkpt lat="49.53642" lon="3.53949">
        <ele>214.4</ele>
        <time>2015-08-15T15:34:20.584Z</time>
      </trkpt>
      <trkpt lat="49.5365" lon="3.5395">
        <ele>215</ele>
        <time>2015-08-15T15:34:26.559Z</time>
      </trkpt>
      <trkpt lat="49.53652" lon="3.5395">
        <ele>215.1</ele>
        <time>2015-08-15T15:34:27.582Z</time>
      </trkpt>
      <trkpt lat="49.53659" lon="3.53943">
        <ele>215.2</ele>
        <time>2015-08-15T15:34:34.566Z</time>
      </trkpt>
      <trkpt lat="49.5366" lon="3.53943">
        <ele>215.2</ele>
        <time>2015-08-15T15:34:35.549Z</time>
      </trkpt>
      <trkpt lat="49.53668" lon="3.53938">
        <ele>216.2</ele>
        <time>2015-08-15T15:34:43.611Z</time>
      </trkpt>
      <trkpt lat="49.53669" lon="3.53937">
        <ele>216.3</ele>
        <time>2015-08-15T15:34:44.592Z</time>
      </trkpt>
      <trkpt lat="49.53677" lon="3.53938">
        <ele>216.2</ele>
        <time>2015-08-15T15:34:49.630Z</time>
      </trkpt>
      <trkpt lat="49.53679" lon="3.53939">
        <ele>216.2</ele>
        <time>2015-08-15T15:34:50.591Z</time>
      </trkpt>
      <trkpt lat="49.53687" lon="3.53939">
        <ele>216.7</ele>
        <time>2015-08-15T15:34:55.595Z</time>
      </trkpt>
      <trkpt lat="49.53689" lon="3.53939">
        <ele>216.7</ele>
        <time>2015-08-15T15:34:56.582Z</time>
      </trkpt>
      <trkpt lat="49.53698" lon="3.5394">
        <ele>217.4</ele>
        <time>2015-08-15T15:35:03.547Z</time>
      </trkpt>
      <trkpt lat="49.53699" lon="3.5394">
        <ele>217.5</ele>
        <time>2015-08-15T15:35:04.524Z</time>
      </trkpt>
      <trkpt lat="49.53707" lon="3.5394">
        <ele>218.5</ele>
        <time>2015-08-15T15:35:10.624Z</time>
      </trkpt>
      <trkpt lat="49.53708" lon="3.53939">
        <ele>218.7</ele>
        <time>2015-08-15T15:35:11.599Z</time>
      </trkpt>
      <trkpt lat="49.53716" lon="3.53937">
        <ele>219.2</ele>
        <time>2015-08-15T15:35:18.592Z</time>
      </trkpt>
      <trkpt lat="49.53717" lon="3.53935">
        <ele>219.3</ele>
        <time>2015-08-15T15:35:19.569Z</time>
      </trkpt>
      <trkpt lat="49.53723" lon="3.53933">
        <ele>219.1</ele>
        <time>2015-08-15T15:35:32.650Z</time>
      </trkpt>
      <trkpt lat="49.53725" lon="3.5393">
        <ele>218.5</ele>
        <time>2015-08-15T15:35:33.524Z</time>
      </trkpt>
      <trkpt lat="49.53733" lon="3.53931">
        <ele>219.1</ele>
        <time>2015-08-15T15:35:40.573Z</time>
      </trkpt>
      <trkpt lat="49.53735" lon="3.53931">
        <ele>219.2</ele>
        <time>2015-08-15T15:35:41.531Z</time>
      </trkpt>
      <trkpt lat="49.53743" lon="3.53932">
        <ele>220.3</ele>
        <time>2015-08-15T15:35:55.599Z</time>
      </trkpt>
      <trkpt lat="49.53744" lon="3.53932">
        <ele>220.4</ele>
        <time>2015-08-15T15:35:56.592Z</time>
      </trkpt>
      <trkpt lat="49.53752" lon="3.53936">
        <ele>219.3</ele>
        <time>2015-08-15T15:36:07.600Z</time>
      </trkpt>
      <trkpt lat="49.53753" lon="3.53936">
        <ele>219.2</ele>
        <time>2015-08-15T15:36:08.582Z</time>
      </trkpt>
      <trkpt lat="49.5376" lon="3.53943">
        <ele>218.9</ele>
        <time>2015-08-15T15:36:16.623Z</time>
      </trkpt>
      <trkpt lat="49.53761" lon="3.53944">
        <ele>218.8</ele>
        <time>2015-08-15T15:36:17.594Z</time>
      </trkpt>
      <trkpt lat="49.53768" lon="3.53953">
        <ele>218.8</ele>
        <time>2015-08-15T15:36:29.575Z</time>
      </trkpt>
      <trkpt lat="49.53769" lon="3.53954">
        <ele>218.7</ele>
        <time>2015-08-15T15:36:30.546Z</time>
      </trkpt>
      <trkpt lat="49.53773" lon="3.53965">
        <ele>220.8</ele>
        <time>2015-08-15T15:36:40.573Z</time>
      </trkpt>
      <trkpt lat="49.53772" lon="3.53967">
        <ele>221.3</ele>
        <time>2015-08-15T15:36:41.539Z</time>
      </trkpt>
      <trkpt lat="49.5377" lon="3.53981">
        <ele>223.6</ele>
        <time>2015-08-15T15:36:48.642Z</time>
      </trkpt>
      <trkpt lat="49.53771" lon="3.53982">
        <ele>223.9</ele>
        <time>2015-08-15T15:36:49.624Z</time>
      </trkpt>
      <trkpt lat="49.5377" lon="3.53994">
        <ele>225.5</ele>
        <time>2015-08-15T15:36:56.630Z</time>
      </trkpt>
      <trkpt lat="49.53769" lon="3.53996">
        <ele>225.7</ele>
        <time>2015-08-15T15:36:57.585Z</time>
      </trkpt>
      <trkpt lat="49.53771" lon="3.54008">
        <ele>225.4</ele>
        <time>2015-08-15T15:37:05.573Z</time>
      </trkpt>
      <trkpt lat="49.53771" lon="3.5401">
        <ele>225.1</ele>
        <time>2015-08-15T15:37:06.544Z</time>
      </trkpt>
      <trkpt lat="49.5377" lon="3.54022">
        <ele>224.5</ele>
        <time>2015-08-15T15:37:13.652Z</time>
      </trkpt>
      <trkpt lat="49.5377" lon="3.54024">
        <ele>224.5</ele>
        <time>2015-08-15T15:37:14.524Z</time>
      </trkpt>
      <trkpt lat="49.53769" lon="3.54036">
        <ele>223.7</ele>
        <time>2015-08-15T15:37:21.620Z</time>
      </trkpt>
      <trkpt lat="49.53769" lon="3.54038">
        <ele>223.6</ele>
        <time>2015-08-15T15:37:22.603Z</time>
      </trkpt>
      <trkpt lat="49.53767" lon="3.54051">
        <ele>222.9</ele>
        <time>2015-08-15T15:37:30.651Z</time>
      </trkpt>
      <trkpt lat="49.53767" lon="3.54052">
        <ele>222.8</ele>
        <time>2015-08-15T15:37:31.604Z</time>
      </trkpt>
      <trkpt lat="49.53764" lon="3.54065">
        <ele>222.2</ele>
        <time>2015-08-15T15:37:40.546Z</time>
      </trkpt>
      <trkpt lat="49.53764" lon="3.54066">
        <ele>222</ele>
        <time>2015-08-15T15:37:41.524Z</time>
      </trkpt>
      <trkpt lat="49.5376" lon="3.54079">
        <ele>221.9</ele>
        <time>2015-08-15T15:37:49.659Z</time>
      </trkpt>
      <trkpt lat="49.5376" lon="3.5408">
        <ele>221.8</ele>
        <time>2015-08-15T15:37:50.524Z</time>
      </trkpt>
      <trkpt lat="49.53757" lon="3.54086">
        <ele>221.7</ele>
        <time>2015-08-15T15:37:54.586Z</time>
      </trkpt>
      <trkpt lat="49.53757" lon="3.54086">
        <ele>221.6</ele>
        <time>2015-08-15T15:37:55.576Z</time>
      </trkpt>
      <trkpt lat="49.53757" lon="3.54086">
        <ele>221.6</ele>
        <time>2015-08-15T15:37:59.622Z</time>
      </trkpt>
      <trkpt lat="49.53756" lon="3.54087">
        <ele>221.4</ele>
        <time>2015-08-15T15:38:00.603Z</time>
      </trkpt>
      <trkpt lat="49.53754" lon="3.54091">
        <ele>221.5</ele>
        <time>2015-08-15T15:38:04.542Z</time>
      </trkpt>
      <trkpt lat="49.53753" lon="3.54091">
        <ele>221.7</ele>
        <time>2015-08-15T15:38:05.539Z</time>
      </trkpt>
      <trkpt lat="49.53753" lon="3.54091">
        <ele>221.7</ele>
        <time>2015-08-15T15:38:05.574Z</time>
      </trkpt>
      <trkpt lat="49.53753" lon="3.54091">
        <ele>221.5</ele>
        <time>2015-08-15T15:38:06.551Z</time>
      </trkpt>
      <trkpt lat="49.53749" lon="3.54103">
        <ele>220.5</ele>
        <time>2015-08-15T15:38:20.602Z</time>
      </trkpt>
      <trkpt lat="49.53748" lon="3.54103">
        <ele>220.6</ele>
        <time>2015-08-15T15:38:21.578Z</time>
      </trkpt>
      <trkpt lat="49.53742" lon="3.54113">
        <ele>220.2</ele>
        <time>2015-08-15T15:38:34.655Z</time>
      </trkpt>
      <trkpt lat="49.53742" lon="3.54113">
        <ele>220.2</ele>
        <time>2015-08-15T15:38:35.524Z</time>
      </trkpt>
      <trkpt lat="49.53737" lon="3.54123">
        <ele>220.6</ele>
        <time>2015-08-15T15:38:45.542Z</time>
      </trkpt>
      <trkpt lat="49.53736" lon="3.54125">
        <ele>220.6</ele>
        <time>2015-08-15T15:38:46.529Z</time>
      </trkpt>
      <trkpt lat="49.53732" lon="3.54135">
        <ele>220</ele>
        <time>2015-08-15T15:38:53.546Z</time>
      </trkpt>
      <trkpt lat="49.53732" lon="3.54137">
        <ele>219.9</ele>
        <time>2015-08-15T15:38:54.522Z</time>
      </trkpt>
      <trkpt lat="49.53731" lon="3.54151">
        <ele>217.6</ele>
        <time>2015-08-15T15:39:04.569Z</time>
      </trkpt>
      <trkpt lat="49.5373" lon="3.54151">
        <ele>217.4</ele>
        <time>2015-08-15T15:39:05.547Z</time>
      </trkpt>
      <trkpt lat="49.5373" lon="3.54151">
        <ele>217.4</ele>
        <time>2015-08-15T15:39:05.586Z</time>
      </trkpt>
      <trkpt lat="49.53731" lon="3.54151">
        <ele>217.7</ele>
        <time>2015-08-15T15:39:06.579Z</time>
      </trkpt>
      <trkpt lat="49.5373" lon="3.54152">
        <ele>217.6</ele>
        <time>2015-08-15T15:39:07.576Z</time>
      </trkpt>
      <trkpt lat="49.5373" lon="3.54154">
        <ele>216.8</ele>
        <time>2015-08-15T15:39:09.624Z</time>
      </trkpt>
      <trkpt lat="49.5373" lon="3.54155">
        <ele>216.4</ele>
        <time>2015-08-15T15:39:10.748Z</time>
      </trkpt>
      <trkpt lat="49.5373" lon="3.54155">
        <ele>216.4</ele>
        <time>2015-08-15T15:39:10.775Z</time>
      </trkpt>
      <trkpt lat="49.5373" lon="3.54154">
        <ele>216.2</ele>
        <time>2015-08-15T15:39:11.611Z</time>
      </trkpt>
      <trkpt lat="49.5373" lon="3.54154">
        <ele>216.1</ele>
        <time>2015-08-15T15:39:12.547Z</time>
      </trkpt>
      <trkpt lat="49.5373" lon="3.54154">
        <ele>216</ele>
        <time>2015-08-15T15:39:13.631Z</time>
      </trkpt>
      <trkpt lat="49.53729" lon="3.54154">
        <ele>215.9</ele>
        <time>2015-08-15T15:39:19.588Z</time>
      </trkpt>
      <trkpt lat="49.53729" lon="3.54156">
        <ele>215.6</ele>
        <time>2015-08-15T15:39:20.588Z</time>
      </trkpt>
      <trkpt lat="49.53734" lon="3.54165">
        <ele>211.8</ele>
        <time>2015-08-15T15:39:48.561Z</time>
      </trkpt>
      <trkpt lat="49.53734" lon="3.54166">
        <ele>211.9</ele>
        <time>2015-08-15T15:39:49.575Z</time>
      </trkpt>
      <trkpt lat="49.53733" lon="3.54166">
        <ele>211.9</ele>
        <time>2015-08-15T15:40:00.658Z</time>
      </trkpt>
      <trkpt lat="49.53734" lon="3.54167">
        <ele>211.6</ele>
        <time>2015-08-15T15:40:01.619Z</time>
      </trkpt>
      <trkpt lat="49.53734" lon="3.54167">
        <ele>211.6</ele>
        <time>2015-08-15T15:40:02.557Z</time>
      </trkpt>
      <trkpt lat="49.53734" lon="3.54167">
        <ele>211.6</ele>
        <time>2015-08-15T15:40:03.519Z</time>
      </trkpt>
      <trkpt lat="49.53734" lon="3.54167">
        <ele>211.6</ele>
        <time>2015-08-15T15:40:08.597Z</time>
      </trkpt>
      <trkpt lat="49.53732" lon="3.54169">
        <ele>211.7</ele>
        <time>2015-08-15T15:40:09.580Z</time>
      </trkpt>
      <trkpt lat="49.53732" lon="3.54169">
        <ele>211.7</ele>
        <time>2015-08-15T15:40:09.606Z</time>
      </trkpt>
      <trkpt lat="49.53732" lon="3.54169">
        <ele>211.8</ele>
        <time>2015-08-15T15:40:10.590Z</time>
      </trkpt>
      <trkpt lat="49.53732" lon="3.5417">
        <ele>211.8</ele>
        <time>2015-08-15T15:40:18.583Z</time>
      </trkpt>
      <trkpt lat="49.53734" lon="3.54174">
        <ele>210.3</ele>
        <time>2015-08-15T15:40:19.570Z</time>
      </trkpt>
      <trkpt lat="49.53736" lon="3.54182">
        <ele>210.2</ele>
        <time>2015-08-15T15:40:27.676Z</time>
      </trkpt>
      <trkpt lat="49.53735" lon="3.54182">
        <ele>210.3</ele>
        <time>2015-08-15T15:40:28.580Z</time>
      </trkpt>
      <trkpt lat="49.53735" lon="3.54182">
        <ele>210.3</ele>
        <time>2015-08-15T15:40:28.753Z</time>
      </trkpt>
      <trkpt lat="49.53735" lon="3.54183">
        <ele>210</ele>
        <time>2015-08-15T15:40:29.604Z</time>
      </trkpt>
      <trkpt lat="49.53739" lon="3.54193">
        <ele>207.9</ele>
        <time>2015-08-15T15:40:38.594Z</time>
      </trkpt>
      <trkpt lat="49.53741" lon="3.54194">
        <ele>207.5</ele>
        <time>2015-08-15T15:40:39.578Z</time>
      </trkpt>
      <trkpt lat="49.53748" lon="3.54201">
        <ele>207.1</ele>
        <time>2015-08-15T15:40:47.567Z</time>
      </trkpt>
      <trkpt lat="49.53749" lon="3.54202">
        <ele>207.1</ele>
        <time>2015-08-15T15:40:48.544Z</time>
      </trkpt>
      <trkpt lat="49.53754" lon="3.54213">
        <ele>207.6</ele>
        <time>2015-08-15T15:40:58.568Z</time>
      </trkpt>
      <trkpt lat="49.53755" lon="3.54214">
        <ele>207.4</ele>
        <time>2015-08-15T15:40:59.544Z</time>
      </trkpt>
      <trkpt lat="49.53759" lon="3.54224">
        <ele>207.2</ele>
        <time>2015-08-15T15:41:05.569Z</time>
      </trkpt>
      <trkpt lat="49.53761" lon="3.54225">
        <ele>206.9</ele>
        <time>2015-08-15T15:41:06.535Z</time>
      </trkpt>
      <trkpt lat="49.53766" lon="3.54232">
        <ele>207.4</ele>
        <time>2015-08-15T15:41:16.573Z</time>
      </trkpt>
      <trkpt lat="49.53766" lon="3.54234">
        <ele>207.4</ele>
        <time>2015-08-15T15:41:17.543Z</time>
      </trkpt>
      <trkpt lat="49.53766" lon="3.54234">
        <ele>207.4</ele>
        <time>2015-08-15T15:41:17.579Z</time>
      </trkpt>
      <trkpt lat="49.53767" lon="3.54234">
        <ele>207.3</ele>
        <time>2015-08-15T15:41:18.548Z</time>
      </trkpt>
      <trkpt lat="49.53775" lon="3.54237">
        <ele>207.7</ele>
        <time>2015-08-15T15:41:27.696Z</time>
      </trkpt>
      <trkpt lat="49.53777" lon="3.54237">
        <ele>207.6</ele>
        <time>2015-08-15T15:41:28.604Z</time>
      </trkpt>
      <trkpt lat="49.53782" lon="3.54234">
        <ele>208.4</ele>
        <time>2015-08-15T15:41:35.632Z</time>
      </trkpt>
      <trkpt lat="49.53782" lon="3.54234">
        <ele>208.7</ele>
        <time>2015-08-15T15:41:36.619Z</time>
      </trkpt>
      <trkpt lat="49.53782" lon="3.54234">
        <ele>208.7</ele>
        <time>2015-08-15T15:41:36.646Z</time>
      </trkpt>
      <trkpt lat="49.53783" lon="3.54233">
        <ele>208.9</ele>
        <time>2015-08-15T15:41:37.627Z</time>
      </trkpt>
      <trkpt lat="49.53792" lon="3.54232">
        <ele>210</ele>
        <time>2015-08-15T15:41:44.625Z</time>
      </trkpt>
      <trkpt lat="49.53794" lon="3.54233">
        <ele>209.8</ele>
        <time>2015-08-15T15:41:45.594Z</time>
      </trkpt>
      <trkpt lat="49.53802" lon="3.54231">
        <ele>210.7</ele>
        <time>2015-08-15T15:41:52.560Z</time>
      </trkpt>
      <trkpt lat="49.53805" lon="3.54231">
        <ele>210.1</ele>
        <time>2015-08-15T15:41:53.542Z</time>
      </trkpt>
      <trkpt lat="49.53814" lon="3.54233">
        <ele>210.2</ele>
        <time>2015-08-15T15:42:02.535Z</time>
      </trkpt>
      <trkpt lat="49.53814" lon="3.54234">
        <ele>210.2</ele>
        <time>2015-08-15T15:42:03.527Z</time>
      </trkpt>
      <trkpt lat="49.53823" lon="3.54235">
        <ele>210.7</ele>
        <time>2015-08-15T15:42:11.657Z</time>
      </trkpt>
      <trkpt lat="49.53824" lon="3.54236">
        <ele>210.8</ele>
        <time>2015-08-15T15:42:12.522Z</time>
      </trkpt>
      <trkpt lat="49.53832" lon="3.54238">
        <ele>211.2</ele>
        <time>2015-08-15T15:42:20.621Z</time>
      </trkpt>
      <trkpt lat="49.53834" lon="3.54238">
        <ele>211.2</ele>
        <time>2015-08-15T15:42:21.586Z</time>
      </trkpt>
      <trkpt lat="49.53842" lon="3.54239">
        <ele>210.6</ele>
        <time>2015-08-15T15:42:30.545Z</time>
      </trkpt>
      <trkpt lat="49.53843" lon="3.54239">
        <ele>210.6</ele>
        <time>2015-08-15T15:42:31.609Z</time>
      </trkpt>
      <trkpt lat="49.53851" lon="3.54243">
        <ele>210.2</ele>
        <time>2015-08-15T15:42:41.635Z</time>
      </trkpt>
      <trkpt lat="49.53852" lon="3.54242">
        <ele>210.1</ele>
        <time>2015-08-15T15:42:42.610Z</time>
      </trkpt>
      <trkpt lat="49.5386" lon="3.54241">
        <ele>210.4</ele>
        <time>2015-08-15T15:42:51.612Z</time>
      </trkpt>
      <trkpt lat="49.53861" lon="3.54241">
        <ele>210.3</ele>
        <time>2015-08-15T15:42:52.586Z</time>
      </trkpt>
      <trkpt lat="49.53869" lon="3.54242">
        <ele>209.8</ele>
        <time>2015-08-15T15:43:00.599Z</time>
      </trkpt>
      <trkpt lat="49.53871" lon="3.54243">
        <ele>209.7</ele>
        <time>2015-08-15T15:43:01.606Z</time>
      </trkpt>
      <trkpt lat="49.53879" lon="3.54241">
        <ele>209.3</ele>
        <time>2015-08-15T15:43:08.620Z</time>
      </trkpt>
      <trkpt lat="49.5388" lon="3.54241">
        <ele>209.1</ele>
        <time>2015-08-15T15:43:09.571Z</time>
      </trkpt>
      <trkpt lat="49.53888" lon="3.54244">
        <ele>209.4</ele>
        <time>2015-08-15T15:43:18.569Z</time>
      </trkpt>
      <trkpt lat="49.5389" lon="3.54244">
        <ele>209.2</ele>
        <time>2015-08-15T15:43:19.558Z</time>
      </trkpt>
      <trkpt lat="49.53898" lon="3.54247">
        <ele>208.9</ele>
        <time>2015-08-15T15:43:25.627Z</time>
      </trkpt>
      <trkpt lat="49.53899" lon="3.54247">
        <ele>208.8</ele>
        <time>2015-08-15T15:43:26.602Z</time>
      </trkpt>
      <trkpt lat="49.53908" lon="3.54249">
        <ele>208.7</ele>
        <time>2015-08-15T15:43:34.613Z</time>
      </trkpt>
      <trkpt lat="49.53908" lon="3.5425">
        <ele>208.9</ele>
        <time>2015-08-15T15:43:35.588Z</time>
      </trkpt>
      <trkpt lat="49.53917" lon="3.5425">
        <ele>209.1</ele>
        <time>2015-08-15T15:43:43.602Z</time>
      </trkpt>
      <trkpt lat="49.53918" lon="3.5425">
        <ele>209.2</ele>
        <time>2015-08-15T15:43:44.571Z</time>
      </trkpt>
      <trkpt lat="49.53926" lon="3.5425">
        <ele>209.4</ele>
        <time>2015-08-15T15:43:54.712Z</time>
      </trkpt>
      <trkpt lat="49.53927" lon="3.5425">
        <ele>209.4</ele>
        <time>2015-08-15T15:43:55.597Z</time>
      </trkpt>
      <trkpt lat="49.53935" lon="3.54248">
        <ele>209.6</ele>
        <time>2015-08-15T15:44:01.586Z</time>
      </trkpt>
      <trkpt lat="49.53936" lon="3.54247">
        <ele>209.7</ele>
        <time>2015-08-15T15:44:02.566Z</time>
      </trkpt>
      <trkpt lat="49.53944" lon="3.54241">
        <ele>210.2</ele>
        <time>2015-08-15T15:44:08.537Z</time>
      </trkpt>
      <trkpt lat="49.53945" lon="3.5424">
        <ele>210.2</ele>
        <time>2015-08-15T15:44:09.510Z</time>
      </trkpt>
      <trkpt lat="49.53952" lon="3.54235">
        <ele>210</ele>
        <time>2015-08-15T15:44:15.624Z</time>
      </trkpt>
      <trkpt lat="49.53954" lon="3.54234">
        <ele>209.9</ele>
        <time>2015-08-15T15:44:16.603Z</time>
      </trkpt>
      <trkpt lat="49.53961" lon="3.54228">
        <ele>209.7</ele>
        <time>2015-08-15T15:44:21.596Z</time>
      </trkpt>
      <trkpt lat="49.53962" lon="3.54226">
        <ele>209.5</ele>
        <time>2015-08-15T15:44:22.573Z</time>
      </trkpt>
      <trkpt lat="49.53967" lon="3.54218">
        <ele>209.2</ele>
        <time>2015-08-15T15:44:27.535Z</time>
      </trkpt>
      <trkpt lat="49.53967" lon="3.54218">
        <ele>209.2</ele>
        <time>2015-08-15T15:44:28.515Z</time>
      </trkpt>
      <trkpt lat="49.53967" lon="3.54218">
        <ele>209.2</ele>
        <time>2015-08-15T15:44:28.548Z</time>
      </trkpt>
      <trkpt lat="49.53968" lon="3.54217">
        <ele>209.3</ele>
        <time>2015-08-15T15:44:29.536Z</time>
      </trkpt>
      <trkpt lat="49.53975" lon="3.5421">
        <ele>209.8</ele>
        <time>2015-08-15T15:44:38.536Z</time>
      </trkpt>
      <trkpt lat="49.53977" lon="3.5421">
        <ele>209.8</ele>
        <time>2015-08-15T15:44:39.517Z</time>
      </trkpt>
      <trkpt lat="49.53985" lon="3.54207">
        <ele>209.8</ele>
        <time>2015-08-15T15:44:46.610Z</time>
      </trkpt>
      <trkpt lat="49.53986" lon="3.54207">
        <ele>210</ele>
        <time>2015-08-15T15:44:47.582Z</time>
      </trkpt>
      <trkpt lat="49.53988" lon="3.54207">
        <ele>210.1</ele>
        <time>2015-08-15T15:44:49.638Z</time>
      </trkpt>
      <trkpt lat="49.53989" lon="3.54206">
        <ele>210</ele>
        <time>2015-08-15T15:44:50.514Z</time>
      </trkpt>
      <trkpt lat="49.53989" lon="3.54206">
        <ele>210</ele>
        <time>2015-08-15T15:44:50.550Z</time>
      </trkpt>
      <trkpt lat="49.53989" lon="3.54207">
        <ele>210.1</ele>
        <time>2015-08-15T15:44:51.513Z</time>
      </trkpt>
      <trkpt lat="49.53997" lon="3.54209">
        <ele>211.4</ele>
        <time>2015-08-15T15:45:00.616Z</time>
      </trkpt>
      <trkpt lat="49.53998" lon="3.5421">
        <ele>211.7</ele>
        <time>2015-08-15T15:45:01.590Z</time>
      </trkpt>
      <trkpt lat="49.54006" lon="3.54211">
        <ele>213</ele>
        <time>2015-08-15T15:45:07.603Z</time>
      </trkpt>
      <trkpt lat="49.54007" lon="3.54212">
        <ele>213.2</ele>
        <time>2015-08-15T15:45:08.575Z</time>
      </trkpt>
      <trkpt lat="49.54016" lon="3.54212">
        <ele>214.1</ele>
        <time>2015-08-15T15:45:16.580Z</time>
      </trkpt>
      <trkpt lat="49.54017" lon="3.54212">
        <ele>214.4</ele>
        <time>2015-08-15T15:45:17.570Z</time>
      </trkpt>
      <trkpt lat="49.54025" lon="3.54212">
        <ele>214.5</ele>
        <time>2015-08-15T15:45:24.569Z</time>
      </trkpt>
      <trkpt lat="49.54026" lon="3.54213">
        <ele>214.5</ele>
        <time>2015-08-15T15:45:25.547Z</time>
      </trkpt>
      <trkpt lat="49.54034" lon="3.5421">
        <ele>216.4</ele>
        <time>2015-08-15T15:45:36.542Z</time>
      </trkpt>
      <trkpt lat="49.54036" lon="3.54209">
        <ele>216.8</ele>
        <time>2015-08-15T15:45:37.554Z</time>
      </trkpt>
      <trkpt lat="49.54044" lon="3.54208">
        <ele>218</ele>
        <time>2015-08-15T15:45:46.545Z</time>
      </trkpt>
      <trkpt lat="49.54045" lon="3.54206">
        <ele>218.1</ele>
        <time>2015-08-15T15:45:47.523Z</time>
      </trkpt>
      <trkpt lat="49.54046" lon="3.54206">
        <ele>218.2</ele>
        <time>2015-08-15T15:45:48.638Z</time>
      </trkpt>
      <trkpt lat="49.54046" lon="3.54205">
        <ele>218.3</ele>
        <time>2015-08-15T15:45:49.575Z</time>
      </trkpt>
      <trkpt lat="49.54046" lon="3.54205">
        <ele>218.3</ele>
        <time>2015-08-15T15:45:49.606Z</time>
      </trkpt>
      <trkpt lat="49.54047" lon="3.54204">
        <ele>218.3</ele>
        <time>2015-08-15T15:45:50.584Z</time>
      </trkpt>
      <trkpt lat="49.54051" lon="3.54203">
        <ele>219.1</ele>
        <time>2015-08-15T15:45:54.559Z</time>
      </trkpt>
      <trkpt lat="49.54051" lon="3.54202">
        <ele>219.2</ele>
        <time>2015-08-15T15:45:55.557Z</time>
      </trkpt>
      <trkpt lat="49.54051" lon="3.54202">
        <ele>219.2</ele>
        <time>2015-08-15T15:45:55.820Z</time>
      </trkpt>
      <trkpt lat="49.54052" lon="3.54201">
        <ele>219.2</ele>
        <time>2015-08-15T15:45:56.566Z</time>
      </trkpt>
      <trkpt lat="49.54059" lon="3.54194">
        <ele>219.1</ele>
        <time>2015-08-15T15:46:01.648Z</time>
      </trkpt>
      <trkpt lat="49.5406" lon="3.54193">
        <ele>219.3</ele>
        <time>2015-08-15T15:46:02.524Z</time>
      </trkpt>
      <trkpt lat="49.54062" lon="3.54189">
        <ele>220</ele>
        <time>2015-08-15T15:46:05.564Z</time>
      </trkpt>
      <trkpt lat="49.54062" lon="3.54189">
        <ele>220.5</ele>
        <time>2015-08-15T15:46:06.544Z</time>
      </trkpt>
      <trkpt lat="49.54062" lon="3.54189">
        <ele>220.8</ele>
        <time>2015-08-15T15:46:10.614Z</time>
      </trkpt>
      <trkpt lat="49.54065" lon="3.54188">
        <ele>222</ele>
        <time>2015-08-15T15:46:11.590Z</time>
      </trkpt>
      <trkpt lat="49.54073" lon="3.54182">
        <ele>223.5</ele>
        <time>2015-08-15T15:46:23.562Z</time>
      </trkpt>
      <trkpt lat="49.54073" lon="3.54181">
        <ele>223.4</ele>
        <time>2015-08-15T15:46:24.538Z</time>
      </trkpt>
      <trkpt lat="49.54073" lon="3.54181">
        <ele>223.4</ele>
        <time>2015-08-15T15:46:24.569Z</time>
      </trkpt>
      <trkpt lat="49.54074" lon="3.5418">
        <ele>223.1</ele>
        <time>2015-08-15T15:46:25.554Z</time>
      </trkpt>
      <trkpt lat="49.54075" lon="3.5418">
        <ele>222.9</ele>
        <time>2015-08-15T15:46:30.578Z</time>
      </trkpt>
      <trkpt lat="49.54078" lon="3.5418">
        <ele>222.7</ele>
        <time>2015-08-15T15:46:31.578Z</time>
      </trkpt>
      <trkpt lat="49.54087" lon="3.54178">
        <ele>222.6</ele>
        <time>2015-08-15T15:46:39.612Z</time>
      </trkpt>
      <trkpt lat="49.54088" lon="3.54177">
        <ele>222.4</ele>
        <time>2015-08-15T15:46:40.586Z</time>
      </trkpt>
      <trkpt lat="49.54095" lon="3.54172">
        <ele>222.9</ele>
        <time>2015-08-15T15:46:46.563Z</time>
      </trkpt>
      <trkpt lat="49.54096" lon="3.54171">
        <ele>223</ele>
        <time>2015-08-15T15:46:47.524Z</time>
      </trkpt>
      <trkpt lat="49.54104" lon="3.54165">
        <ele>224.6</ele>
        <time>2015-08-15T15:46:54.623Z</time>
      </trkpt>
      <trkpt lat="49.54105" lon="3.54164">
        <ele>224.6</ele>
        <time>2015-08-15T15:46:55.591Z</time>
      </trkpt>
      <trkpt lat="49.54111" lon="3.54156">
        <ele>224.5</ele>
        <time>2015-08-15T15:47:01.573Z</time>
      </trkpt>
      <trkpt lat="49.54112" lon="3.54154">
        <ele>224.7</ele>
        <time>2015-08-15T15:47:02.561Z</time>
      </trkpt>
      <trkpt lat="49.54119" lon="3.54147">
        <ele>225.5</ele>
        <time>2015-08-15T15:47:08.649Z</time>
      </trkpt>
      <trkpt lat="49.5412" lon="3.54146">
        <ele>225.6</ele>
        <time>2015-08-15T15:47:09.542Z</time>
      </trkpt>
      <trkpt lat="49.54127" lon="3.54139">
        <ele>226.8</ele>
        <time>2015-08-15T15:47:17.905Z</time>
      </trkpt>
      <trkpt lat="49.54129" lon="3.54138">
        <ele>226.9</ele>
        <time>2015-08-15T15:47:18.521Z</time>
      </trkpt>
      <trkpt lat="49.54137" lon="3.54135">
        <ele>227.9</ele>
        <time>2015-08-15T15:47:24.594Z</time>
      </trkpt>
      <trkpt lat="49.54138" lon="3.54134">
        <ele>228.1</ele>
        <time>2015-08-15T15:47:25.571Z</time>
      </trkpt>
      <trkpt lat="49.54144" lon="3.54126">
        <ele>229</ele>
        <time>2015-08-15T15:47:33.557Z</time>
      </trkpt>
      <trkpt lat="49.54146" lon="3.54125">
        <ele>229.2</ele>
        <time>2015-08-15T15:47:34.527Z</time>
      </trkpt>
      <trkpt lat="49.54146" lon="3.54125">
        <ele>229.2</ele>
        <time>2015-08-15T15:47:34.565Z</time>
      </trkpt>
      <trkpt lat="49.54146" lon="3.54125">
        <ele>229.4</ele>
        <time>2015-08-15T15:47:35.535Z</time>
      </trkpt>
      <trkpt lat="49.54146" lon="3.54125">
        <ele>229.4</ele>
        <time>2015-08-15T15:47:35.566Z</time>
      </trkpt>
      <trkpt lat="49.54146" lon="3.54124">
        <ele>229.7</ele>
        <time>2015-08-15T15:47:36.553Z</time>
      </trkpt>
      <trkpt lat="49.54154" lon="3.54117">
        <ele>230.1</ele>
        <time>2015-08-15T15:47:44.549Z</time>
      </trkpt>
      <trkpt lat="49.54154" lon="3.54116">
        <ele>230.1</ele>
        <time>2015-08-15T15:47:45.525Z</time>
      </trkpt>
      <trkpt lat="49.54156" lon="3.5411">
        <ele>230.9</ele>
        <time>2015-08-15T15:47:50.619Z</time>
      </trkpt>
      <trkpt lat="49.54156" lon="3.54109">
        <ele>230.8</ele>
        <time>2015-08-15T15:47:51.594Z</time>
      </trkpt>
      <trkpt lat="49.54156" lon="3.54109">
        <ele>230.8</ele>
        <time>2015-08-15T15:47:51.628Z</time>
      </trkpt>
      <trkpt lat="49.54156" lon="3.54109">
        <ele>231.1</ele>
        <time>2015-08-15T15:47:52.598Z</time>
      </trkpt>
      <trkpt lat="49.54158" lon="3.54109">
        <ele>231</ele>
        <time>2015-08-15T15:47:55.674Z</time>
      </trkpt>
      <trkpt lat="49.54158" lon="3.54109">
        <ele>231.1</ele>
        <time>2015-08-15T15:47:56.519Z</time>
      </trkpt>
      <trkpt lat="49.54158" lon="3.54109">
        <ele>231.4</ele>
        <time>2015-08-15T15:48:05.641Z</time>
      </trkpt>
      <trkpt lat="49.54161" lon="3.54106">
        <ele>231.9</ele>
        <time>2015-08-15T15:48:06.522Z</time>
      </trkpt>
      <trkpt lat="49.54167" lon="3.54101">
        <ele>232.7</ele>
        <time>2015-08-15T15:48:13.618Z</time>
      </trkpt>
      <trkpt lat="49.54168" lon="3.54101">
        <ele>232.9</ele>
        <time>2015-08-15T15:48:14.596Z</time>
      </trkpt>
      <trkpt lat="49.54168" lon="3.541">
        <ele>232.9</ele>
        <time>2015-08-15T15:48:17.545Z</time>
      </trkpt>
      <trkpt lat="49.54168" lon="3.54098">
        <ele>232.6</ele>
        <time>2015-08-15T15:48:18.531Z</time>
      </trkpt>
      <trkpt lat="49.54174" lon="3.54089">
        <ele>232.6</ele>
        <time>2015-08-15T15:48:29.628Z</time>
      </trkpt>
      <trkpt lat="49.54175" lon="3.54086">
        <ele>232.7</ele>
        <time>2015-08-15T15:48:30.601Z</time>
      </trkpt>
      <trkpt lat="49.54175" lon="3.54084">
        <ele>232.2</ele>
        <time>2015-08-15T15:48:32.651Z</time>
      </trkpt>
      <trkpt lat="49.54176" lon="3.54083">
        <ele>232.4</ele>
        <time>2015-08-15T15:48:33.523Z</time>
      </trkpt>
      <trkpt lat="49.54176" lon="3.54082">
        <ele>232.3</ele>
        <time>2015-08-15T15:48:34.567Z</time>
      </trkpt>
      <trkpt lat="49.54177" lon="3.54082">
        <ele>232.4</ele>
        <time>2015-08-15T15:48:35.539Z</time>
      </trkpt>
      <trkpt lat="49.54184" lon="3.54075">
        <ele>233.1</ele>
        <time>2015-08-15T15:48:42.554Z</time>
      </trkpt>
      <trkpt lat="49.54185" lon="3.54073">
        <ele>233.2</ele>
        <time>2015-08-15T15:48:43.587Z</time>
      </trkpt>
      <trkpt lat="49.54191" lon="3.54063">
        <ele>234.6</ele>
        <time>2015-08-15T15:48:53.633Z</time>
      </trkpt>
      <trkpt lat="49.54192" lon="3.54062">
        <ele>235</ele>
        <time>2015-08-15T15:48:54.521Z</time>
      </trkpt>
      <trkpt lat="49.54199" lon="3.54053">
        <ele>236.6</ele>
        <time>2015-08-15T15:49:01.621Z</time>
      </trkpt>
      <trkpt lat="49.54199" lon="3.54051">
        <ele>236.5</ele>
        <time>2015-08-15T15:49:02.580Z</time>
      </trkpt>
      <trkpt lat="49.54201" lon="3.54048">
        <ele>236.7</ele>
        <time>2015-08-15T15:49:05.649Z</time>
      </trkpt>
      <trkpt lat="49.54201" lon="3.54047">
        <ele>236.7</ele>
        <time>2015-08-15T15:49:06.530Z</time>
      </trkpt>
      <trkpt lat="49.54201" lon="3.54046">
        <ele>236.7</ele>
        <time>2015-08-15T15:49:07.666Z</time>
      </trkpt>
      <trkpt lat="49.54202" lon="3.54046">
        <ele>236.8</ele>
        <time>2015-08-15T15:49:08.522Z</time>
      </trkpt>
      <trkpt lat="49.54206" lon="3.54035">
        <ele>237.1</ele>
        <time>2015-08-15T15:49:15.625Z</time>
      </trkpt>
      <trkpt lat="49.54207" lon="3.54032">
        <ele>237.2</ele>
        <time>2015-08-15T15:49:16.526Z</time>
      </trkpt>
      <trkpt lat="49.5421" lon="3.5402">
        <ele>238.2</ele>
        <time>2015-08-15T15:49:25.744Z</time>
      </trkpt>
      <trkpt lat="49.5421" lon="3.54019">
        <ele>238.2</ele>
        <time>2015-08-15T15:49:26.514Z</time>
      </trkpt>
      <trkpt lat="49.54216" lon="3.5401">
        <ele>238.5</ele>
        <time>2015-08-15T15:49:33.642Z</time>
      </trkpt>
      <trkpt lat="49.54217" lon="3.54008">
        <ele>238.6</ele>
        <time>2015-08-15T15:49:34.608Z</time>
      </trkpt>
      <trkpt lat="49.54224" lon="3.54001">
        <ele>241.1</ele>
        <time>2015-08-15T15:49:39.624Z</time>
      </trkpt>
      <trkpt lat="49.54224" lon="3.54">
        <ele>241.3</ele>
        <time>2015-08-15T15:49:40.604Z</time>
      </trkpt>
      <trkpt lat="49.5423" lon="3.53991">
        <ele>242.8</ele>
        <time>2015-08-15T15:49:48.573Z</time>
      </trkpt>
      <trkpt lat="49.54232" lon="3.53991">
        <ele>242.8</ele>
        <time>2015-08-15T15:49:49.578Z</time>
      </trkpt>
      <trkpt lat="49.54239" lon="3.53983">
        <ele>242.8</ele>
        <time>2015-08-15T15:49:56.622Z</time>
      </trkpt>
      <trkpt lat="49.54239" lon="3.53981">
        <ele>242.7</ele>
        <time>2015-08-15T15:49:57.599Z</time>
      </trkpt>
      <trkpt lat="49.54246" lon="3.53972">
        <ele>241.7</ele>
        <time>2015-08-15T15:50:04.562Z</time>
      </trkpt>
      <trkpt lat="49.54247" lon="3.53971">
        <ele>241.7</ele>
        <time>2015-08-15T15:50:05.541Z</time>
      </trkpt>
      <trkpt lat="49.54255" lon="3.53965">
        <ele>242.8</ele>
        <time>2015-08-15T15:50:13.653Z</time>
      </trkpt>
      <trkpt lat="49.54256" lon="3.53964">
        <ele>242.7</ele>
        <time>2015-08-15T15:50:14.538Z</time>
      </trkpt>
      <trkpt lat="49.54264" lon="3.53963">
        <ele>243.9</ele>
        <time>2015-08-15T15:50:25.673Z</time>
      </trkpt>
      <trkpt lat="49.54265" lon="3.53963">
        <ele>244.1</ele>
        <time>2015-08-15T15:50:26.533Z</time>
      </trkpt>
      <trkpt lat="49.54273" lon="3.53956">
        <ele>243</ele>
        <time>2015-08-15T15:50:39.585Z</time>
      </trkpt>
      <trkpt lat="49.54273" lon="3.53955">
        <ele>242.9</ele>
        <time>2015-08-15T15:50:40.552Z</time>
      </trkpt>
      <trkpt lat="49.54267" lon="3.53957">
        <ele>242.6</ele>
        <time>2015-08-15T15:51:09.960Z</time>
      </trkpt>
      <trkpt lat="49.54266" lon="3.53958">
        <ele>242.6</ele>
        <time>2015-08-15T15:51:10.854Z</time>
      </trkpt>
      <trkpt lat="49.54266" lon="3.53958">
        <ele>242.6</ele>
        <time>2015-08-15T15:51:10.886Z</time>
      </trkpt>
      <trkpt lat="49.54266" lon="3.53958">
        <ele>242.5</ele>
        <time>2015-08-15T15:51:11.866Z</time>
      </trkpt>
      <trkpt lat="49.54268" lon="3.5396">
        <ele>243</ele>
        <time>2015-08-15T15:51:25.808Z</time>
      </trkpt>
      <trkpt lat="49.54268" lon="3.53961">
        <ele>243</ele>
        <time>2015-08-15T15:51:26.790Z</time>
      </trkpt>
      <trkpt lat="49.54268" lon="3.53961">
        <ele>242.9</ele>
        <time>2015-08-15T15:51:27.880Z</time>
      </trkpt>
      <trkpt lat="49.54269" lon="3.53961">
        <ele>243</ele>
        <time>2015-08-15T15:51:28.840Z</time>
      </trkpt>
      <trkpt lat="49.5427" lon="3.53965">
        <ele>242.4</ele>
        <time>2015-08-15T15:51:37.852Z</time>
      </trkpt>
      <trkpt lat="49.5427" lon="3.53966">
        <ele>242.1</ele>
        <time>2015-08-15T15:51:38.842Z</time>
      </trkpt>
      <trkpt lat="49.5427" lon="3.53966">
        <ele>242.1</ele>
        <time>2015-08-15T15:51:38.878Z</time>
      </trkpt>
      <trkpt lat="49.54272" lon="3.53965">
        <ele>242.2</ele>
        <time>2015-08-15T15:51:39.851Z</time>
      </trkpt>
      <trkpt lat="49.5428" lon="3.53971">
        <ele>245</ele>
        <time>2015-08-15T15:51:57.897Z</time>
      </trkpt>
      <trkpt lat="49.5428" lon="3.53972">
        <ele>245</ele>
        <time>2015-08-15T15:51:58.877Z</time>
      </trkpt>
      <trkpt lat="49.54279" lon="3.53974">
        <ele>245.2</ele>
        <time>2015-08-15T15:52:00.944Z</time>
      </trkpt>
      <trkpt lat="49.54278" lon="3.53975">
        <ele>245.3</ele>
        <time>2015-08-15T15:52:01.788Z</time>
      </trkpt>
      <trkpt lat="49.54278" lon="3.53975">
        <ele>245.3</ele>
        <time>2015-08-15T15:52:01.826Z</time>
      </trkpt>
      <trkpt lat="49.54278" lon="3.53975">
        <ele>245.4</ele>
        <time>2015-08-15T15:52:02.802Z</time>
      </trkpt>
      <trkpt lat="49.54278" lon="3.53976">
        <ele>245.4</ele>
        <time>2015-08-15T15:52:03.888Z</time>
      </trkpt>
      <trkpt lat="49.54278" lon="3.53974">
        <ele>245.1</ele>
        <time>2015-08-15T15:52:04.836Z</time>
      </trkpt>
      <trkpt lat="49.54278" lon="3.53974">
        <ele>245.1</ele>
        <time>2015-08-15T15:52:04.870Z</time>
      </trkpt>
      <trkpt lat="49.54279" lon="3.53974">
        <ele>245.1</ele>
        <time>2015-08-15T15:52:05.845Z</time>
      </trkpt>
      <trkpt lat="49.54287" lon="3.53968">
        <ele>246.1</ele>
        <time>2015-08-15T15:52:19.888Z</time>
      </trkpt>
      <trkpt lat="49.54287" lon="3.53968">
        <ele>246.1</ele>
        <time>2015-08-15T15:52:20.860Z</time>
      </trkpt>
      <trkpt lat="49.54295" lon="3.53962">
        <ele>245</ele>
        <time>2015-08-15T15:52:32.842Z</time>
      </trkpt>
      <trkpt lat="49.54295" lon="3.53961">
        <ele>245</ele>
        <time>2015-08-15T15:52:33.801Z</time>
      </trkpt>
      <trkpt lat="49.54302" lon="3.53957">
        <ele>245.2</ele>
        <time>2015-08-15T15:52:44.926Z</time>
      </trkpt>
      <trkpt lat="49.54302" lon="3.53957">
        <ele>245.3</ele>
        <time>2015-08-15T15:52:45.786Z</time>
      </trkpt>
      <trkpt lat="49.54302" lon="3.53957">
        <ele>245</ele>
        <time>2015-08-15T15:52:47.831Z</time>
      </trkpt>
      <trkpt lat="49.54303" lon="3.53957">
        <ele>244.9</ele>
        <time>2015-08-15T15:52:48.851Z</time>
      </trkpt>
      <trkpt lat="49.54309" lon="3.53949">
        <ele>244.7</ele>
        <time>2015-08-15T15:52:57.887Z</time>
      </trkpt>
      <trkpt lat="49.54311" lon="3.53949">
        <ele>244.6</ele>
        <time>2015-08-15T15:52:58.863Z</time>
      </trkpt>
      <trkpt lat="49.54318" lon="3.53946">
        <ele>243.4</ele>
        <time>2015-08-15T15:53:03.811Z</time>
      </trkpt>
      <trkpt lat="49.5432" lon="3.53945">
        <ele>243.1</ele>
        <time>2015-08-15T15:53:04.807Z</time>
      </trkpt>
      <trkpt lat="49.54327" lon="3.53936">
        <ele>241.4</ele>
        <time>2015-08-15T15:53:12.931Z</time>
      </trkpt>
      <trkpt lat="49.54328" lon="3.53935">
        <ele>241.3</ele>
        <time>2015-08-15T15:53:13.778Z</time>
      </trkpt>
      <trkpt lat="49.54334" lon="3.53926">
        <ele>241.3</ele>
        <time>2015-08-15T15:53:20.810Z</time>
      </trkpt>
      <trkpt lat="49.54335" lon="3.53925">
        <ele>241.1</ele>
        <time>2015-08-15T15:53:21.777Z</time>
      </trkpt>
      <trkpt lat="49.54335" lon="3.53913">
        <ele>239</ele>
        <time>2015-08-15T15:53:28.872Z</time>
      </trkpt>
      <trkpt lat="49.54336" lon="3.53911">
        <ele>238.9</ele>
        <time>2015-08-15T15:53:29.847Z</time>
      </trkpt>
      <trkpt lat="49.54337" lon="3.53897">
        <ele>240.5</ele>
        <time>2015-08-15T15:53:41.101Z</time>
      </trkpt>
      <trkpt lat="49.54337" lon="3.53896">
        <ele>240.7</ele>
        <time>2015-08-15T15:53:41.787Z</time>
      </trkpt>
      <trkpt lat="49.54338" lon="3.53883">
        <ele>241.3</ele>
        <time>2015-08-15T15:53:52.889Z</time>
      </trkpt>
      <trkpt lat="49.54338" lon="3.53882">
        <ele>241.3</ele>
        <time>2015-08-15T15:53:53.857Z</time>
      </trkpt>
      <trkpt lat="49.54337" lon="3.53875">
        <ele>240.4</ele>
        <time>2015-08-15T15:53:58.831Z</time>
      </trkpt>
      <trkpt lat="49.54336" lon="3.53875">
        <ele>240.3</ele>
        <time>2015-08-15T15:53:59.797Z</time>
      </trkpt>
      <trkpt lat="49.54336" lon="3.53874">
        <ele>240.2</ele>
        <time>2015-08-15T15:54:05.825Z</time>
      </trkpt>
      <trkpt lat="49.54338" lon="3.5387">
        <ele>240.2</ele>
        <time>2015-08-15T15:54:06.832Z</time>
      </trkpt>
      <trkpt lat="49.54338" lon="3.53857">
        <ele>240.2</ele>
        <time>2015-08-15T15:54:16.834Z</time>
      </trkpt>
      <trkpt lat="49.54338" lon="3.53856">
        <ele>240.3</ele>
        <time>2015-08-15T15:54:17.803Z</time>
      </trkpt>
      <trkpt lat="49.54341" lon="3.53844">
        <ele>241.2</ele>
        <time>2015-08-15T15:54:26.828Z</time>
      </trkpt>
      <trkpt lat="49.54342" lon="3.53843">
        <ele>241.4</ele>
        <time>2015-08-15T15:54:27.819Z</time>
      </trkpt>
      <trkpt lat="49.54343" lon="3.53835">
        <ele>241.6</ele>
        <time>2015-08-15T15:54:33.826Z</time>
      </trkpt>
      <trkpt lat="49.54343" lon="3.53834">
        <ele>241.7</ele>
        <time>2015-08-15T15:54:34.792Z</time>
      </trkpt>
      <trkpt lat="49.54343" lon="3.53834">
        <ele>241.7</ele>
        <time>2015-08-15T15:54:34.831Z</time>
      </trkpt>
      <trkpt lat="49.54343" lon="3.53833">
        <ele>241.8</ele>
        <time>2015-08-15T15:54:35.805Z</time>
      </trkpt>
      <trkpt lat="49.54347" lon="3.53821">
        <ele>240.7</ele>
        <time>2015-08-15T15:54:42.871Z</time>
      </trkpt>
      <trkpt lat="49.54348" lon="3.53819">
        <ele>240.4</ele>
        <time>2015-08-15T15:54:43.853Z</time>
      </trkpt>
      <trkpt lat="49.5435" lon="3.53812">
        <ele>239.5</ele>
        <time>2015-08-15T15:54:47.815Z</time>
      </trkpt>
      <trkpt lat="49.54351" lon="3.53811">
        <ele>239.1</ele>
        <time>2015-08-15T15:54:48.832Z</time>
      </trkpt>
      <trkpt lat="49.54351" lon="3.53811">
        <ele>239.1</ele>
        <time>2015-08-15T15:54:48.857Z</time>
      </trkpt>
      <trkpt lat="49.54351" lon="3.5381">
        <ele>238.8</ele>
        <time>2015-08-15T15:54:49.833Z</time>
      </trkpt>
      <trkpt lat="49.54355" lon="3.53804">
        <ele>239.1</ele>
        <time>2015-08-15T15:54:54.905Z</time>
      </trkpt>
      <trkpt lat="49.54355" lon="3.53803">
        <ele>238.6</ele>
        <time>2015-08-15T15:54:55.782Z</time>
      </trkpt>
      <trkpt lat="49.54355" lon="3.53802">
        <ele>238.5</ele>
        <time>2015-08-15T15:54:57.826Z</time>
      </trkpt>
      <trkpt lat="49.54354" lon="3.53801">
        <ele>238.5</ele>
        <time>2015-08-15T15:54:58.837Z</time>
      </trkpt>
      <trkpt lat="49.54354" lon="3.53801">
        <ele>238.4</ele>
        <time>2015-08-15T15:54:59.887Z</time>
      </trkpt>
      <trkpt lat="49.54353" lon="3.538">
        <ele>238.3</ele>
        <time>2015-08-15T15:55:00.872Z</time>
      </trkpt>
      <trkpt lat="49.54353" lon="3.538">
        <ele>238.1</ele>
        <time>2015-08-15T15:55:07.861Z</time>
      </trkpt>
      <trkpt lat="49.54355" lon="3.53796">
        <ele>237.6</ele>
        <time>2015-08-15T15:55:08.836Z</time>
      </trkpt>
      <trkpt lat="49.54358" lon="3.53783">
        <ele>237.3</ele>
        <time>2015-08-15T15:55:17.847Z</time>
      </trkpt>
      <trkpt lat="49.54357" lon="3.53781">
        <ele>237.3</ele>
        <time>2015-08-15T15:55:18.848Z</time>
      </trkpt>
      <trkpt lat="49.54355" lon="3.53769">
        <ele>236.4</ele>
        <time>2015-08-15T15:55:26.817Z</time>
      </trkpt>
      <trkpt lat="49.54354" lon="3.53768">
        <ele>236.5</ele>
        <time>2015-08-15T15:55:27.796Z</time>
      </trkpt>
      <trkpt lat="49.54358" lon="3.53756">
        <ele>235.7</ele>
        <time>2015-08-15T15:55:35.860Z</time>
      </trkpt>
      <trkpt lat="49.54358" lon="3.53753">
        <ele>235.8</ele>
        <time>2015-08-15T15:55:36.834Z</time>
      </trkpt>
      <trkpt lat="49.54361" lon="3.53743">
        <ele>235.5</ele>
        <time>2015-08-15T15:55:41.802Z</time>
      </trkpt>
      <trkpt lat="49.54362" lon="3.5374">
        <ele>235.4</ele>
        <time>2015-08-15T15:55:42.834Z</time>
      </trkpt>
      <trkpt lat="49.54366" lon="3.53728">
        <ele>233.7</ele>
        <time>2015-08-15T15:55:51.045Z</time>
      </trkpt>
      <trkpt lat="49.54367" lon="3.53726">
        <ele>233.4</ele>
        <time>2015-08-15T15:55:51.858Z</time>
      </trkpt>
      <trkpt lat="49.5437" lon="3.53714">
        <ele>233.4</ele>
        <time>2015-08-15T15:55:58.115Z</time>
      </trkpt>
      <trkpt lat="49.54371" lon="3.53713">
        <ele>233.3</ele>
        <time>2015-08-15T15:55:58.856Z</time>
      </trkpt>
      <trkpt lat="49.54374" lon="3.53702">
        <ele>232.9</ele>
        <time>2015-08-15T15:56:03.818Z</time>
      </trkpt>
      <trkpt lat="49.54375" lon="3.537">
        <ele>233</ele>
        <time>2015-08-15T15:56:04.803Z</time>
      </trkpt>
      <trkpt lat="49.54376" lon="3.53691">
        <ele>233.1</ele>
        <time>2015-08-15T15:56:11.917Z</time>
      </trkpt>
      <trkpt lat="49.54376" lon="3.5369">
        <ele>233.1</ele>
        <time>2015-08-15T15:56:12.896Z</time>
      </trkpt>
      <trkpt lat="49.54377" lon="3.53689">
        <ele>233.2</ele>
        <time>2015-08-15T15:56:17.838Z</time>
      </trkpt>
      <trkpt lat="49.54378" lon="3.53686">
        <ele>232.8</ele>
        <time>2015-08-15T15:56:18.830Z</time>
      </trkpt>
      <trkpt lat="49.54381" lon="3.53674">
        <ele>233.8</ele>
        <time>2015-08-15T15:56:30.853Z</time>
      </trkpt>
      <trkpt lat="49.54381" lon="3.53673">
        <ele>233.8</ele>
        <time>2015-08-15T15:56:31.826Z</time>
      </trkpt>
      <trkpt lat="49.54381" lon="3.53671">
        <ele>234</ele>
        <time>2015-08-15T15:56:33.887Z</time>
      </trkpt>
      <trkpt lat="49.54382" lon="3.53671">
        <ele>234.2</ele>
        <time>2015-08-15T15:56:34.778Z</time>
      </trkpt>
      <trkpt lat="49.54382" lon="3.53671">
        <ele>234.3</ele>
        <time>2015-08-15T15:57:03.809Z</time>
      </trkpt>
      <trkpt lat="49.54387" lon="3.53666">
        <ele>236.7</ele>
        <time>2015-08-15T15:57:04.794Z</time>
      </trkpt>
      <trkpt lat="49.54387" lon="3.53665">
        <ele>236.6</ele>
        <time>2015-08-15T15:57:05.831Z</time>
      </trkpt>
      <trkpt lat="49.54388" lon="3.53665">
        <ele>236.7</ele>
        <time>2015-08-15T15:57:06.836Z</time>
      </trkpt>
      <trkpt lat="49.54389" lon="3.53665">
        <ele>236.3</ele>
        <time>2015-08-15T15:57:11.901Z</time>
      </trkpt>
      <trkpt lat="49.54391" lon="3.53662">
        <ele>235.8</ele>
        <time>2015-08-15T15:57:12.873Z</time>
      </trkpt>
      <trkpt lat="49.54392" lon="3.53649">
        <ele>233.6</ele>
        <time>2015-08-15T15:57:21.823Z</time>
      </trkpt>
      <trkpt lat="49.54393" lon="3.53647">
        <ele>233.4</ele>
        <time>2015-08-15T15:57:22.776Z</time>
      </trkpt>
      <trkpt lat="49.54396" lon="3.53634">
        <ele>232.5</ele>
        <time>2015-08-15T15:57:28.891Z</time>
      </trkpt>
      <trkpt lat="49.54396" lon="3.53633">
        <ele>232.4</ele>
        <time>2015-08-15T15:57:29.867Z</time>
      </trkpt>
      <trkpt lat="49.54395" lon="3.53621">
        <ele>231.3</ele>
        <time>2015-08-15T15:57:36.865Z</time>
      </trkpt>
      <trkpt lat="49.54393" lon="3.53619">
        <ele>231.2</ele>
        <time>2015-08-15T15:57:37.835Z</time>
      </trkpt>
      <trkpt lat="49.54388" lon="3.53609">
        <ele>232.9</ele>
        <time>2015-08-15T15:57:44.800Z</time>
      </trkpt>
      <trkpt lat="49.54387" lon="3.53608">
        <ele>233</ele>
        <time>2015-08-15T15:57:45.779Z</time>
      </trkpt>
      <trkpt lat="49.54387" lon="3.53608">
        <ele>233.3</ele>
        <time>2015-08-15T15:57:46.830Z</time>
      </trkpt>
      <trkpt lat="49.54386" lon="3.53607">
        <ele>233.5</ele>
        <time>2015-08-15T15:57:47.819Z</time>
      </trkpt>
      <trkpt lat="49.54386" lon="3.53607">
        <ele>233.5</ele>
        <time>2015-08-15T15:57:47.854Z</time>
      </trkpt>
      <trkpt lat="49.54386" lon="3.53606">
        <ele>233.7</ele>
        <time>2015-08-15T15:57:48.827Z</time>
      </trkpt>
      <trkpt lat="49.54386" lon="3.53606">
        <ele>233.7</ele>
        <time>2015-08-15T15:57:48.857Z</time>
      </trkpt>
      <trkpt lat="49.54387" lon="3.53606">
        <ele>233.9</ele>
        <time>2015-08-15T15:57:49.829Z</time>
      </trkpt>
      <trkpt lat="49.54387" lon="3.53605">
        <ele>234.5</ele>
        <time>2015-08-15T15:57:53.788Z</time>
      </trkpt>
      <trkpt lat="49.54391" lon="3.53603">
        <ele>235.7</ele>
        <time>2015-08-15T15:57:54.811Z</time>
      </trkpt>
      <trkpt lat="49.54392" lon="3.53595">
        <ele>238.2</ele>
        <time>2015-08-15T15:58:03.805Z</time>
      </trkpt>
      <trkpt lat="49.54391" lon="3.53594">
        <ele>238.3</ele>
        <time>2015-08-15T15:58:04.785Z</time>
      </trkpt>
      <trkpt lat="49.54392" lon="3.53594">
        <ele>238.4</ele>
        <time>2015-08-15T15:58:06.857Z</time>
      </trkpt>
      <trkpt lat="49.54392" lon="3.53594">
        <ele>238.3</ele>
        <time>2015-08-15T15:58:07.826Z</time>
      </trkpt>
      <trkpt lat="49.54393" lon="3.53595">
        <ele>239.1</ele>
        <time>2015-08-15T15:58:15.040Z</time>
      </trkpt>
      <trkpt lat="49.54392" lon="3.53595">
        <ele>239.4</ele>
        <time>2015-08-15T15:58:15.786Z</time>
      </trkpt>
      <trkpt lat="49.54392" lon="3.53595">
        <ele>239.7</ele>
        <time>2015-08-15T15:58:17.831Z</time>
      </trkpt>
      <trkpt lat="49.54391" lon="3.53595">
        <ele>239.6</ele>
        <time>2015-08-15T15:58:18.810Z</time>
      </trkpt>
      <trkpt lat="49.54388" lon="3.53591">
        <ele>239.2</ele>
        <time>2015-08-15T15:58:29.847Z</time>
      </trkpt>
      <trkpt lat="49.54388" lon="3.53591">
        <ele>239.3</ele>
        <time>2015-08-15T15:58:30.851Z</time>
      </trkpt>
      <trkpt lat="49.54388" lon="3.53591">
        <ele>239.3</ele>
        <time>2015-08-15T15:58:30.872Z</time>
      </trkpt>
      <trkpt lat="49.5439" lon="3.53591">
        <ele>239.4</ele>
        <time>2015-08-15T15:58:31.775Z</time>
      </trkpt>
      <trkpt lat="49.5439" lon="3.53589">
        <ele>239.5</ele>
        <time>2015-08-15T15:58:34.811Z</time>
      </trkpt>
      <trkpt lat="49.5439" lon="3.53588">
        <ele>239.7</ele>
        <time>2015-08-15T15:58:35.822Z</time>
      </trkpt>
      <trkpt lat="49.5439" lon="3.53588">
        <ele>239.7</ele>
        <time>2015-08-15T15:58:35.858Z</time>
      </trkpt>
      <trkpt lat="49.54388" lon="3.53588">
        <ele>239.8</ele>
        <time>2015-08-15T15:58:36.840Z</time>
      </trkpt>
      <trkpt lat="49.54385" lon="3.53587">
        <ele>239.4</ele>
        <time>2015-08-15T15:58:46.879Z</time>
      </trkpt>
      <trkpt lat="49.54386" lon="3.53588">
        <ele>239.2</ele>
        <time>2015-08-15T15:58:47.752Z</time>
      </trkpt>
      <trkpt lat="49.54387" lon="3.53589">
        <ele>239.1</ele>
        <time>2015-08-15T15:58:49.827Z</time>
      </trkpt>
      <trkpt lat="49.54387" lon="3.5359">
        <ele>239.1</ele>
        <time>2015-08-15T15:58:50.890Z</time>
      </trkpt>
      <trkpt lat="49.54388" lon="3.53589">
        <ele>238.8</ele>
        <time>2015-08-15T15:58:53.786Z</time>
      </trkpt>
      <trkpt lat="49.54388" lon="3.53589">
        <ele>238.7</ele>
        <time>2015-08-15T15:58:54.798Z</time>
      </trkpt>
      <trkpt lat="49.54388" lon="3.53589">
        <ele>238.7</ele>
        <time>2015-08-15T15:58:54.824Z</time>
      </trkpt>
      <trkpt lat="49.54388" lon="3.53589">
        <ele>238.6</ele>
        <time>2015-08-15T15:58:55.800Z</time>
      </trkpt>
      <trkpt lat="49.54389" lon="3.5359">
        <ele>238.5</ele>
        <time>2015-08-15T15:58:56.841Z</time>
      </trkpt>
      <trkpt lat="49.54388" lon="3.5359">
        <ele>238.1</ele>
        <time>2015-08-15T15:58:57.827Z</time>
      </trkpt>
      <trkpt lat="49.54388" lon="3.5359">
        <ele>238.1</ele>
        <time>2015-08-15T15:58:57.879Z</time>
      </trkpt>
      <trkpt lat="49.54389" lon="3.5359">
        <ele>237.9</ele>
        <time>2015-08-15T15:58:58.834Z</time>
      </trkpt>
      <trkpt lat="49.54397" lon="3.53586">
        <ele>236.3</ele>
        <time>2015-08-15T15:59:05.824Z</time>
      </trkpt>
      <trkpt lat="49.54398" lon="3.53586">
        <ele>235.8</ele>
        <time>2015-08-15T15:59:06.806Z</time>
      </trkpt>
      <trkpt lat="49.54406" lon="3.53582">
        <ele>234</ele>
        <time>2015-08-15T15:59:11.783Z</time>
      </trkpt>
      <trkpt lat="49.54407" lon="3.53581">
        <ele>233.9</ele>
        <time>2015-08-15T15:59:12.809Z</time>
      </trkpt>
      <trkpt lat="49.5441" lon="3.53578">
        <ele>233.9</ele>
        <time>2015-08-15T15:59:21.802Z</time>
      </trkpt>
      <trkpt lat="49.54411" lon="3.53578">
        <ele>233.8</ele>
        <time>2015-08-15T15:59:22.786Z</time>
      </trkpt>
      <trkpt lat="49.54411" lon="3.53578">
        <ele>233.8</ele>
        <time>2015-08-15T15:59:25.844Z</time>
      </trkpt>
      <trkpt lat="49.54412" lon="3.53577">
        <ele>234</ele>
        <time>2015-08-15T15:59:26.832Z</time>
      </trkpt>
      <trkpt lat="49.54418" lon="3.5357">
        <ele>233.4</ele>
        <time>2015-08-15T15:59:32.803Z</time>
      </trkpt>
      <trkpt lat="49.5442" lon="3.53569">
        <ele>233.2</ele>
        <time>2015-08-15T15:59:33.780Z</time>
      </trkpt>
      <trkpt lat="49.54424" lon="3.53558">
        <ele>232.3</ele>
        <time>2015-08-15T15:59:42.917Z</time>
      </trkpt>
      <trkpt lat="49.54424" lon="3.53557">
        <ele>232.3</ele>
        <time>2015-08-15T15:59:43.771Z</time>
      </trkpt>
      <trkpt lat="49.54431" lon="3.53549">
        <ele>231.9</ele>
        <time>2015-08-15T15:59:52.009Z</time>
      </trkpt>
      <trkpt lat="49.54433" lon="3.53548">
        <ele>231.8</ele>
        <time>2015-08-15T15:59:52.852Z</time>
      </trkpt>
      <trkpt lat="49.54438" lon="3.53539">
        <ele>231.9</ele>
        <time>2015-08-15T15:59:59.886Z</time>
      </trkpt>
      <trkpt lat="49.54439" lon="3.53537">
        <ele>232</ele>
        <time>2015-08-15T16:00:00.854Z</time>
      </trkpt>
      <trkpt lat="49.54439" lon="3.53535">
        <ele>232.1</ele>
        <time>2015-08-15T16:00:01.799Z</time>
      </trkpt>
      <trkpt lat="49.54439" lon="3.53534">
        <ele>232.3</ele>
        <time>2015-08-15T16:00:02.782Z</time>
      </trkpt>
      <trkpt lat="49.54439" lon="3.53534">
        <ele>232.3</ele>
        <time>2015-08-15T16:00:02.837Z</time>
      </trkpt>
      <trkpt lat="49.5444" lon="3.53533">
        <ele>232.2</ele>
        <time>2015-08-15T16:00:03.786Z</time>
      </trkpt>
      <trkpt lat="49.54443" lon="3.53521">
        <ele>231.6</ele>
        <time>2015-08-15T16:00:12.864Z</time>
      </trkpt>
      <trkpt lat="49.54444" lon="3.53519">
        <ele>231.5</ele>
        <time>2015-08-15T16:00:13.855Z</time>
      </trkpt>
      <trkpt lat="49.54448" lon="3.53509">
        <ele>232.3</ele>
        <time>2015-08-15T16:00:20.901Z</time>
      </trkpt>
      <trkpt lat="49.54448" lon="3.53508">
        <ele>232.4</ele>
        <time>2015-08-15T16:00:21.775Z</time>
      </trkpt>
      <trkpt lat="49.54449" lon="3.53506">
        <ele>232.6</ele>
        <time>2015-08-15T16:00:24.844Z</time>
      </trkpt>
      <trkpt lat="49.5445" lon="3.53504">
        <ele>232.8</ele>
        <time>2015-08-15T16:00:25.827Z</time>
      </trkpt>
      <trkpt lat="49.54457" lon="3.53496">
        <ele>233.3</ele>
        <time>2015-08-15T16:00:33.823Z</time>
      </trkpt>
      <trkpt lat="49.54458" lon="3.53494">
        <ele>233.3</ele>
        <time>2015-08-15T16:00:34.799Z</time>
      </trkpt>
      <trkpt lat="49.54463" lon="3.53485">
        <ele>233</ele>
        <time>2015-08-15T16:00:40.880Z</time>
      </trkpt>
      <trkpt lat="49.54464" lon="3.53483">
        <ele>233</ele>
        <time>2015-08-15T16:00:41.853Z</time>
      </trkpt>
      <trkpt lat="49.5447" lon="3.53473">
        <ele>232.4</ele>
        <time>2015-08-15T16:00:47.824Z</time>
      </trkpt>
      <trkpt lat="49.5447" lon="3.53471">
        <ele>232.3</ele>
        <time>2015-08-15T16:00:48.831Z</time>
      </trkpt>
      <trkpt lat="49.54475" lon="3.53461">
        <ele>233.4</ele>
        <time>2015-08-15T16:00:55.808Z</time>
      </trkpt>
      <trkpt lat="49.54476" lon="3.53459">
        <ele>233.8</ele>
        <time>2015-08-15T16:00:56.781Z</time>
      </trkpt>
      <trkpt lat="49.54479" lon="3.53447">
        <ele>233.2</ele>
        <time>2015-08-15T16:01:03.805Z</time>
      </trkpt>
      <trkpt lat="49.5448" lon="3.53445">
        <ele>232.8</ele>
        <time>2015-08-15T16:01:04.783Z</time>
      </trkpt>
      <trkpt lat="49.54485" lon="3.53436">
        <ele>233.1</ele>
        <time>2015-08-15T16:01:10.894Z</time>
      </trkpt>
      <trkpt lat="49.54486" lon="3.53434">
        <ele>232.9</ele>
        <time>2015-08-15T16:01:11.778Z</time>
      </trkpt>
      <trkpt lat="49.54491" lon="3.53425">
        <ele>232.1</ele>
        <time>2015-08-15T16:01:16.825Z</time>
      </trkpt>
      <trkpt lat="49.54492" lon="3.53423">
        <ele>232</ele>
        <time>2015-08-15T16:01:17.796Z</time>
      </trkpt>
      <trkpt lat="49.54496" lon="3.53412">
        <ele>231.9</ele>
        <time>2015-08-15T16:01:23.889Z</time>
      </trkpt>
      <trkpt lat="49.54496" lon="3.5341">
        <ele>231.9</ele>
        <time>2015-08-15T16:01:24.871Z</time>
      </trkpt>
      <trkpt lat="49.54498" lon="3.53407">
        <ele>232.3</ele>
        <time>2015-08-15T16:01:26.824Z</time>
      </trkpt>
      <trkpt lat="49.54498" lon="3.53407">
        <ele>232.4</ele>
        <time>2015-08-15T16:01:27.793Z</time>
      </trkpt>
      <trkpt lat="49.54498" lon="3.53407">
        <ele>232.4</ele>
        <time>2015-08-15T16:01:27.824Z</time>
      </trkpt>
      <trkpt lat="49.54498" lon="3.53406">
        <ele>232.5</ele>
        <time>2015-08-15T16:01:28.811Z</time>
      </trkpt>
      <trkpt lat="49.54502" lon="3.53394">
        <ele>232.7</ele>
        <time>2015-08-15T16:01:41.808Z</time>
      </trkpt>
      <trkpt lat="49.54503" lon="3.53393">
        <ele>232.5</ele>
        <time>2015-08-15T16:01:42.875Z</time>
      </trkpt>
      <trkpt lat="49.54508" lon="3.53385">
        <ele>231.8</ele>
        <time>2015-08-15T16:01:47.831Z</time>
      </trkpt>
      <trkpt lat="49.5451" lon="3.53384">
        <ele>231.8</ele>
        <time>2015-08-15T16:01:48.830Z</time>
      </trkpt>
      <trkpt lat="49.54517" lon="3.53377">
        <ele>231.4</ele>
        <time>2015-08-15T16:01:54.847Z</time>
      </trkpt>
      <trkpt lat="49.54518" lon="3.53376">
        <ele>231.5</ele>
        <time>2015-08-15T16:01:55.842Z</time>
      </trkpt>
      <trkpt lat="49.54523" lon="3.53371">
        <ele>232.3</ele>
        <time>2015-08-15T16:02:01.808Z</time>
      </trkpt>
      <trkpt lat="49.54524" lon="3.5337">
        <ele>232.7</ele>
        <time>2015-08-15T16:02:02.777Z</time>
      </trkpt>
      <trkpt lat="49.54524" lon="3.5337">
        <ele>232.9</ele>
        <time>2015-08-15T16:02:04.831Z</time>
      </trkpt>
      <trkpt lat="49.54525" lon="3.53368">
        <ele>233.2</ele>
        <time>2015-08-15T16:02:05.806Z</time>
      </trkpt>
      <trkpt lat="49.5453" lon="3.5336">
        <ele>234.6</ele>
        <time>2015-08-15T16:02:12.873Z</time>
      </trkpt>
      <trkpt lat="49.54531" lon="3.53357">
        <ele>234</ele>
        <time>2015-08-15T16:02:13.857Z</time>
      </trkpt>
      <trkpt lat="49.54536" lon="3.53347">
        <ele>233.6</ele>
        <time>2015-08-15T16:02:18.852Z</time>
      </trkpt>
      <trkpt lat="49.54536" lon="3.53345">
        <ele>233.5</ele>
        <time>2015-08-15T16:02:19.822Z</time>
      </trkpt>
      <trkpt lat="49.54538" lon="3.53334">
        <ele>231.9</ele>
        <time>2015-08-15T16:02:24.904Z</time>
      </trkpt>
      <trkpt lat="49.54539" lon="3.53332">
        <ele>231.8</ele>
        <time>2015-08-15T16:02:25.871Z</time>
      </trkpt>
      <trkpt lat="49.54544" lon="3.5332">
        <ele>231.8</ele>
        <time>2015-08-15T16:02:32.915Z</time>
      </trkpt>
      <trkpt lat="49.54545" lon="3.53319">
        <ele>232</ele>
        <time>2015-08-15T16:02:33.861Z</time>
      </trkpt>
      <trkpt lat="49.54547" lon="3.53307">
        <ele>232.2</ele>
        <time>2015-08-15T16:02:42.863Z</time>
      </trkpt>
      <trkpt lat="49.54548" lon="3.53305">
        <ele>232.4</ele>
        <time>2015-08-15T16:02:43.841Z</time>
      </trkpt>
      <trkpt lat="49.54549" lon="3.53292">
        <ele>232.9</ele>
        <time>2015-08-15T16:02:54.892Z</time>
      </trkpt>
      <trkpt lat="49.54548" lon="3.53291">
        <ele>233</ele>
        <time>2015-08-15T16:02:55.886Z</time>
      </trkpt>
      <trkpt lat="49.54544" lon="3.5328">
        <ele>232.8</ele>
        <time>2015-08-15T16:03:04.819Z</time>
      </trkpt>
      <trkpt lat="49.54545" lon="3.53278">
        <ele>233.2</ele>
        <time>2015-08-15T16:03:05.797Z</time>
      </trkpt>
      <trkpt lat="49.54545" lon="3.53265">
        <ele>233.1</ele>
        <time>2015-08-15T16:03:12.932Z</time>
      </trkpt>
      <trkpt lat="49.54545" lon="3.53264">
        <ele>232.9</ele>
        <time>2015-08-15T16:03:13.772Z</time>
      </trkpt>
      <trkpt lat="49.54545" lon="3.53261">
        <ele>232.9</ele>
        <time>2015-08-15T16:03:15.819Z</time>
      </trkpt>
      <trkpt lat="49.54545" lon="3.5326">
        <ele>232.9</ele>
        <time>2015-08-15T16:03:16.801Z</time>
      </trkpt>
      <trkpt lat="49.54545" lon="3.5326">
        <ele>232.9</ele>
        <time>2015-08-15T16:03:16.838Z</time>
      </trkpt>
      <trkpt lat="49.54544" lon="3.53258">
        <ele>232.9</ele>
        <time>2015-08-15T16:03:17.810Z</time>
      </trkpt>
      <trkpt lat="49.54536" lon="3.53251">
        <ele>233.1</ele>
        <time>2015-08-15T16:03:24.675Z</time>
      </trkpt>
      <trkpt lat="49.54535" lon="3.53251">
        <ele>233.1</ele>
        <time>2015-08-15T16:03:25.853Z</time>
      </trkpt>
      <trkpt lat="49.54535" lon="3.53251">
        <ele>233.1</ele>
        <time>2015-08-15T16:03:25.878Z</time>
      </trkpt>
      <trkpt lat="49.54535" lon="3.5325">
        <ele>233.2</ele>
        <time>2015-08-15T16:03:26.774Z</time>
      </trkpt>
      <trkpt lat="49.54529" lon="3.53246">
        <ele>232.4</ele>
        <time>2015-08-15T16:03:34.905Z</time>
      </trkpt>
      <trkpt lat="49.54528" lon="3.53246">
        <ele>232.6</ele>
        <time>2015-08-15T16:03:35.790Z</time>
      </trkpt>
      <trkpt lat="49.54526" lon="3.53244">
        <ele>232.6</ele>
        <time>2015-08-15T16:03:37.806Z</time>
      </trkpt>
      <trkpt lat="49.54525" lon="3.53244">
        <ele>232.5</ele>
        <time>2015-08-15T16:03:38.788Z</time>
      </trkpt>
      <trkpt lat="49.54517" lon="3.53239">
        <ele>233.3</ele>
        <time>2015-08-15T16:03:44.915Z</time>
      </trkpt>
      <trkpt lat="49.54516" lon="3.53239">
        <ele>233.3</ele>
        <time>2015-08-15T16:03:45.785Z</time>
      </trkpt>
      <trkpt lat="49.54509" lon="3.53233">
        <ele>233.2</ele>
        <time>2015-08-15T16:03:50.934Z</time>
      </trkpt>
      <trkpt lat="49.54507" lon="3.53233">
        <ele>233.3</ele>
        <time>2015-08-15T16:03:51.863Z</time>
      </trkpt>
      <trkpt lat="49.54502" lon="3.53229">
        <ele>233.6</ele>
        <time>2015-08-15T16:03:57.901Z</time>
      </trkpt>
      <trkpt lat="49.54502" lon="3.53228">
        <ele>233.5</ele>
        <time>2015-08-15T16:03:58.784Z</time>
      </trkpt>
      <trkpt lat="49.54502" lon="3.53227">
        <ele>233.4</ele>
        <time>2015-08-15T16:03:59.825Z</time>
      </trkpt>
      <trkpt lat="49.54502" lon="3.53227">
        <ele>233.4</ele>
        <time>2015-08-15T16:04:00.848Z</time>
      </trkpt>
      <trkpt lat="49.54499" lon="3.53226">
        <ele>233.4</ele>
        <time>2015-08-15T16:04:03.809Z</time>
      </trkpt>
      <trkpt lat="49.54498" lon="3.53226">
        <ele>233.4</ele>
        <time>2015-08-15T16:04:04.795Z</time>
      </trkpt>
      <trkpt lat="49.54498" lon="3.53226">
        <ele>233.4</ele>
        <time>2015-08-15T16:04:04.828Z</time>
      </trkpt>
      <trkpt lat="49.54498" lon="3.53226">
        <ele>233.5</ele>
        <time>2015-08-15T16:04:05.795Z</time>
      </trkpt>
      <trkpt lat="49.54489" lon="3.53223">
        <ele>233.7</ele>
        <time>2015-08-15T16:04:16.845Z</time>
      </trkpt>
      <trkpt lat="49.54488" lon="3.53223">
        <ele>233.7</ele>
        <time>2015-08-15T16:04:17.825Z</time>
      </trkpt>
      <trkpt lat="49.54481" lon="3.53218">
        <ele>234.4</ele>
        <time>2015-08-15T16:04:24.869Z</time>
      </trkpt>
      <trkpt lat="49.54479" lon="3.53218">
        <ele>234.4</ele>
        <time>2015-08-15T16:04:25.835Z</time>
      </trkpt>
      <trkpt lat="49.54479" lon="3.53219">
        <ele>234.2</ele>
        <time>2015-08-15T16:04:27.878Z</time>
      </trkpt>
      <trkpt lat="49.5448" lon="3.5322">
        <ele>233.9</ele>
        <time>2015-08-15T16:04:28.853Z</time>
      </trkpt>
      <trkpt lat="49.5448" lon="3.53221">
        <ele>233.5</ele>
        <time>2015-08-15T16:04:38.893Z</time>
      </trkpt>
      <trkpt lat="49.54481" lon="3.53221">
        <ele>232.9</ele>
        <time>2015-08-15T16:04:39.873Z</time>
      </trkpt>
      <trkpt lat="49.54473" lon="3.53216">
        <ele>233.3</ele>
        <time>2015-08-15T16:04:50.850Z</time>
      </trkpt>
      <trkpt lat="49.54472" lon="3.53215">
        <ele>233.1</ele>
        <time>2015-08-15T16:04:51.808Z</time>
      </trkpt>
      <trkpt lat="49.54466" lon="3.53204">
        <ele>231.3</ele>
        <time>2015-08-15T16:04:58.812Z</time>
      </trkpt>
      <trkpt lat="49.54466" lon="3.53203">
        <ele>231</ele>
        <time>2015-08-15T16:04:59.788Z</time>
      </trkpt>
      <trkpt lat="49.54466" lon="3.53203">
        <ele>231</ele>
        <time>2015-08-15T16:04:59.816Z</time>
      </trkpt>
      <trkpt lat="49.54466" lon="3.53203">
        <ele>230.8</ele>
        <time>2015-08-15T16:05:01.000Z</time>
      </trkpt>
      <trkpt lat="49.54466" lon="3.53203">
        <ele>230.8</ele>
        <time>2015-08-15T16:05:01.029Z</time>
      </trkpt>
      <trkpt lat="49.54466" lon="3.53202">
        <ele>230.9</ele>
        <time>2015-08-15T16:05:01.856Z</time>
      </trkpt>
      <trkpt lat="49.54466" lon="3.53198">
        <ele>230.3</ele>
        <time>2015-08-15T16:05:06.863Z</time>
      </trkpt>
      <trkpt lat="49.54466" lon="3.53198">
        <ele>230.5</ele>
        <time>2015-08-15T16:05:07.865Z</time>
      </trkpt>
      <trkpt lat="49.54466" lon="3.53198">
        <ele>230.3</ele>
        <time>2015-08-15T16:05:15.816Z</time>
      </trkpt>
      <trkpt lat="49.54467" lon="3.53198">
        <ele>230.6</ele>
        <time>2015-08-15T16:05:16.781Z</time>
      </trkpt>
      <trkpt lat="49.54464" lon="3.532">
        <ele>229.7</ele>
        <time>2015-08-15T16:05:25.850Z</time>
      </trkpt>
      <trkpt lat="49.54465" lon="3.53201">
        <ele>229.7</ele>
        <time>2015-08-15T16:05:26.836Z</time>
      </trkpt>
      <trkpt lat="49.54465" lon="3.53201">
        <ele>229.7</ele>
        <time>2015-08-15T16:05:26.863Z</time>
      </trkpt>
      <trkpt lat="49.54465" lon="3.53201">
        <ele>229.6</ele>
        <time>2015-08-15T16:05:27.854Z</time>
      </trkpt>
      <trkpt lat="49.54464" lon="3.53214">
        <ele>229.4</ele>
        <time>2015-08-15T16:05:41.825Z</time>
      </trkpt>
      <trkpt lat="49.54463" lon="3.53215">
        <ele>229.5</ele>
        <time>2015-08-15T16:05:42.872Z</time>
      </trkpt>
      <trkpt lat="49.54463" lon="3.53215">
        <ele>229.6</ele>
        <time>2015-08-15T16:05:43.905Z</time>
      </trkpt>
      <trkpt lat="49.54462" lon="3.53215">
        <ele>229.4</ele>
        <time>2015-08-15T16:05:44.877Z</time>
      </trkpt>
      <trkpt lat="49.54462" lon="3.53215">
        <ele>228.5</ele>
        <time>2015-08-15T16:05:46.810Z</time>
      </trkpt>
      <trkpt lat="49.54461" lon="3.53213">
        <ele>228.1</ele>
        <time>2015-08-15T16:05:47.791Z</time>
      </trkpt>
      <trkpt lat="49.54452" lon="3.5321">
        <ele>230.4</ele>
        <time>2015-08-15T16:05:57.821Z</time>
      </trkpt>
      <trkpt lat="49.54452" lon="3.53209">
        <ele>230.3</ele>
        <time>2015-08-15T16:05:58.802Z</time>
      </trkpt>
      <trkpt lat="49.54444" lon="3.53207">
        <ele>230.2</ele>
        <time>2015-08-15T16:06:07.873Z</time>
      </trkpt>
      <trkpt lat="49.54442" lon="3.53207">
        <ele>230.4</ele>
        <time>2015-08-15T16:06:08.856Z</time>
      </trkpt>
      <trkpt lat="49.54434" lon="3.53202">
        <ele>231.3</ele>
        <time>2015-08-15T16:06:18.873Z</time>
      </trkpt>
      <trkpt lat="49.54434" lon="3.53201">
        <ele>231.3</ele>
        <time>2015-08-15T16:06:19.847Z</time>
      </trkpt>
      <trkpt lat="49.54426" lon="3.53195">
        <ele>232</ele>
        <time>2015-08-15T16:06:26.832Z</time>
      </trkpt>
      <trkpt lat="49.54425" lon="3.53195">
        <ele>232.1</ele>
        <time>2015-08-15T16:06:27.930Z</time>
      </trkpt>
      <trkpt lat="49.54425" lon="3.53195">
        <ele>232.1</ele>
        <time>2015-08-15T16:06:28.357Z</time>
      </trkpt>
      <trkpt lat="49.54425" lon="3.53194">
        <ele>232.2</ele>
        <time>2015-08-15T16:06:28.771Z</time>
      </trkpt>
      <trkpt lat="49.54425" lon="3.53194">
        <ele>232.2</ele>
        <time>2015-08-15T16:06:28.808Z</time>
      </trkpt>
      <trkpt lat="49.54424" lon="3.53194">
        <ele>232.1</ele>
        <time>2015-08-15T16:06:29.809Z</time>
      </trkpt>
      <trkpt lat="49.54419" lon="3.53187">
        <ele>230.8</ele>
        <time>2015-08-15T16:06:37.895Z</time>
      </trkpt>
      <trkpt lat="49.54419" lon="3.53187">
        <ele>230.9</ele>
        <time>2015-08-15T16:06:38.873Z</time>
      </trkpt>
      <trkpt lat="49.54419" lon="3.53187">
        <ele>230.9</ele>
        <time>2015-08-15T16:06:38.905Z</time>
      </trkpt>
      <trkpt lat="49.54419" lon="3.53187">
        <ele>231</ele>
        <time>2015-08-15T16:06:39.860Z</time>
      </trkpt>
      <trkpt lat="49.54413" lon="3.53177">
        <ele>231.7</ele>
        <time>2015-08-15T16:06:48.844Z</time>
      </trkpt>
      <trkpt lat="49.54413" lon="3.53175">
        <ele>231.7</ele>
        <time>2015-08-15T16:06:49.834Z</time>
      </trkpt>
      <trkpt lat="49.54408" lon="3.53165">
        <ele>231.6</ele>
        <time>2015-08-15T16:06:54.928Z</time>
      </trkpt>
      <trkpt lat="49.54407" lon="3.53162">
        <ele>231.6</ele>
        <time>2015-08-15T16:06:55.779Z</time>
      </trkpt>
      <trkpt lat="49.54406" lon="3.5316">
        <ele>231.6</ele>
        <time>2015-08-15T16:06:56.847Z</time>
      </trkpt>
      <trkpt lat="49.544" lon="3.53148">
        <ele>231.6</ele>
        <time>2015-08-15T16:07:01.882Z</time>
      </trkpt>
      <trkpt lat="49.54395" lon="3.5314">
        <ele>231.1</ele>
        <time>2015-08-15T16:07:05.783Z</time>
      </trkpt>
      <trkpt lat="49.54392" lon="3.5314">
        <ele>231.1</ele>
        <time>2015-08-15T16:07:06.786Z</time>
      </trkpt>
      <trkpt lat="49.54384" lon="3.53135">
        <ele>230.8</ele>
        <time>2015-08-15T16:07:19.890Z</time>
      </trkpt>
      <trkpt lat="49.54382" lon="3.53135">
        <ele>230.8</ele>
        <time>2015-08-15T16:07:21.029Z</time>
      </trkpt>
      <trkpt lat="49.54376" lon="3.53138">
        <ele>230.7</ele>
        <time>2015-08-15T16:07:29.024Z</time>
      </trkpt>
      <trkpt lat="49.54376" lon="3.53137">
        <ele>230.7</ele>
        <time>2015-08-15T16:07:29.738Z</time>
      </trkpt>
      <trkpt lat="49.54376" lon="3.53137">
        <ele>230.7</ele>
        <time>2015-08-15T16:07:29.759Z</time>
      </trkpt>
      <trkpt lat="49.54378" lon="3.53135">
        <ele>230.6</ele>
        <time>2015-08-15T16:07:30.811Z</time>
      </trkpt>
      <trkpt lat="49.54372" lon="3.53126">
        <ele>230.2</ele>
        <time>2015-08-15T16:07:35.789Z</time>
      </trkpt>
      <trkpt lat="49.54371" lon="3.53125">
        <ele>230.4</ele>
        <time>2015-08-15T16:07:36.785Z</time>
      </trkpt>
      <trkpt lat="49.54366" lon="3.53116">
        <ele>230.5</ele>
        <time>2015-08-15T16:07:39.833Z</time>
      </trkpt>
      <trkpt lat="49.54363" lon="3.53112">
        <ele>230.6</ele>
        <time>2015-08-15T16:07:40.809Z</time>
      </trkpt>
      <trkpt lat="49.54357" lon="3.53104">
        <ele>231.6</ele>
        <time>2015-08-15T16:07:43.871Z</time>
      </trkpt>
      <trkpt lat="49.54356" lon="3.53101">
        <ele>232.2</ele>
        <time>2015-08-15T16:07:45.022Z</time>
      </trkpt>
      <trkpt lat="49.5435" lon="3.53091">
        <ele>234</ele>
        <time>2015-08-15T16:07:49.896Z</time>
      </trkpt>
      <trkpt lat="49.54349" lon="3.53089">
        <ele>234.4</ele>
        <time>2015-08-15T16:07:50.778Z</time>
      </trkpt>
      <trkpt lat="49.54344" lon="3.53078">
        <ele>236.1</ele>
        <time>2015-08-15T16:07:59.981Z</time>
      </trkpt>
      <trkpt lat="49.54345" lon="3.53078">
        <ele>236.1</ele>
        <time>2015-08-15T16:08:00.853Z</time>
      </trkpt>
      <trkpt lat="49.54345" lon="3.53078">
        <ele>236.1</ele>
        <time>2015-08-15T16:08:00.894Z</time>
      </trkpt>
      <trkpt lat="49.54346" lon="3.53079">
        <ele>236.1</ele>
        <time>2015-08-15T16:08:01.859Z</time>
      </trkpt>
      <trkpt lat="49.5435" lon="3.53085">
        <ele>235.6</ele>
        <time>2015-08-15T16:08:04.615Z</time>
      </trkpt>
      <trkpt lat="49.54352" lon="3.5309">
        <ele>235.6</ele>
        <time>2015-08-15T16:08:04.875Z</time>
      </trkpt>
      <trkpt lat="49.54355" lon="3.53097">
        <ele>235.4</ele>
        <time>2015-08-15T16:08:05.811Z</time>
      </trkpt>
      <trkpt lat="49.54357" lon="3.53105">
        <ele>235.3</ele>
        <time>2015-08-15T16:08:06.815Z</time>
      </trkpt>
      <trkpt lat="49.54359" lon="3.53118">
        <ele>235</ele>
        <time>2015-08-15T16:08:08.875Z</time>
      </trkpt>
      <trkpt lat="49.54359" lon="3.53121">
        <ele>234.8</ele>
        <time>2015-08-15T16:08:09.760Z</time>
      </trkpt>
      <trkpt lat="49.54354" lon="3.53111">
        <ele>234.6</ele>
        <time>2015-08-15T16:08:11.835Z</time>
      </trkpt>
      <trkpt lat="49.54349" lon="3.53105">
        <ele>234.9</ele>
        <time>2015-08-15T16:08:12.829Z</time>
      </trkpt>
      <trkpt lat="49.54349" lon="3.53105">
        <ele>234.9</ele>
        <time>2015-08-15T16:08:12.855Z</time>
      </trkpt>
      <trkpt lat="49.54345" lon="3.53098">
        <ele>235.8</ele>
        <time>2015-08-15T16:08:16.030Z</time>
      </trkpt>
      <trkpt lat="49.54342" lon="3.53092">
        <ele>236.1</ele>
        <time>2015-08-15T16:08:16.751Z</time>
      </trkpt>
      <trkpt lat="49.54344" lon="3.53087">
        <ele>236.3</ele>
        <time>2015-08-15T16:08:18.854Z</time>
      </trkpt>
      <trkpt lat="49.54343" lon="3.53083">
        <ele>236.6</ele>
        <time>2015-08-15T16:08:19.845Z</time>
      </trkpt>
      <trkpt lat="49.54343" lon="3.53081">
        <ele>237.4</ele>
        <time>2015-08-15T16:08:22.789Z</time>
      </trkpt>
      <trkpt lat="49.54343" lon="3.5308">
        <ele>237.4</ele>
        <time>2015-08-15T16:08:23.869Z</time>
      </trkpt>
      <trkpt lat="49.54344" lon="3.53067">
        <ele>236.5</ele>
        <time>2015-08-15T16:08:30.886Z</time>
      </trkpt>
      <trkpt lat="49.54344" lon="3.53066">
        <ele>236.5</ele>
        <time>2015-08-15T16:08:31.855Z</time>
      </trkpt>
      <trkpt lat="49.54339" lon="3.53059">
        <ele>237.2</ele>
        <time>2015-08-15T16:08:35.838Z</time>
      </trkpt>
      <trkpt lat="49.54337" lon="3.53058">
        <ele>237.2</ele>
        <time>2015-08-15T16:08:36.830Z</time>
      </trkpt>
      <trkpt lat="49.54333" lon="3.53046">
        <ele>238.1</ele>
        <time>2015-08-15T16:08:41.808Z</time>
      </trkpt>
      <trkpt lat="49.54332" lon="3.53044">
        <ele>238.2</ele>
        <time>2015-08-15T16:08:42.841Z</time>
      </trkpt>
      <trkpt lat="49.54323" lon="3.53043">
        <ele>239.8</ele>
        <time>2015-08-15T16:08:51.889Z</time>
      </trkpt>
      <trkpt lat="49.54322" lon="3.53042">
        <ele>240.9</ele>
        <time>2015-08-15T16:08:52.864Z</time>
      </trkpt>
      <trkpt lat="49.54317" lon="3.5303">
        <ele>241.4</ele>
        <time>2015-08-15T16:09:03.200Z</time>
      </trkpt>
      <trkpt lat="49.54317" lon="3.5303">
        <ele>241.5</ele>
        <time>2015-08-15T16:09:03.792Z</time>
      </trkpt>
      <trkpt lat="49.54312" lon="3.53018">
        <ele>242.6</ele>
        <time>2015-08-15T16:09:14.801Z</time>
      </trkpt>
      <trkpt lat="49.54312" lon="3.53018">
        <ele>242.7</ele>
        <time>2015-08-15T16:09:15.783Z</time>
      </trkpt>
      <trkpt lat="49.54305" lon="3.53009">
        <ele>243.4</ele>
        <time>2015-08-15T16:09:32.872Z</time>
      </trkpt>
      <trkpt lat="49.54305" lon="3.53008">
        <ele>243.3</ele>
        <time>2015-08-15T16:09:33.849Z</time>
      </trkpt>
      <trkpt lat="49.54297" lon="3.53002">
        <ele>242.8</ele>
        <time>2015-08-15T16:09:41.819Z</time>
      </trkpt>
      <trkpt lat="49.54297" lon="3.53001">
        <ele>242.8</ele>
        <time>2015-08-15T16:09:42.846Z</time>
      </trkpt>
      <trkpt lat="49.54291" lon="3.52992">
        <ele>241.3</ele>
        <time>2015-08-15T16:09:49.867Z</time>
      </trkpt>
      <trkpt lat="49.5429" lon="3.52991">
        <ele>241.2</ele>
        <time>2015-08-15T16:09:50.842Z</time>
      </trkpt>
      <trkpt lat="49.54283" lon="3.52982">
        <ele>241</ele>
        <time>2015-08-15T16:09:58.872Z</time>
      </trkpt>
      <trkpt lat="49.54282" lon="3.52981">
        <ele>240.9</ele>
        <time>2015-08-15T16:09:59.851Z</time>
      </trkpt>
      <trkpt lat="49.54275" lon="3.52975">
        <ele>241.3</ele>
        <time>2015-08-15T16:10:07.890Z</time>
      </trkpt>
      <trkpt lat="49.54274" lon="3.52974">
        <ele>241.4</ele>
        <time>2015-08-15T16:10:08.849Z</time>
      </trkpt>
      <trkpt lat="49.54266" lon="3.5297">
        <ele>241.4</ele>
        <time>2015-08-15T16:10:16.889Z</time>
      </trkpt>
      <trkpt lat="49.54265" lon="3.52969">
        <ele>241.5</ele>
        <time>2015-08-15T16:10:17.786Z</time>
      </trkpt>
      <trkpt lat="49.54258" lon="3.52963">
        <ele>241</ele>
        <time>2015-08-15T16:10:25.863Z</time>
      </trkpt>
      <trkpt lat="49.54257" lon="3.52962">
        <ele>240.8</ele>
        <time>2015-08-15T16:10:26.830Z</time>
      </trkpt>
      <trkpt lat="49.54248" lon="3.52957">
        <ele>240.2</ele>
        <time>2015-08-15T16:10:34.824Z</time>
      </trkpt>
      <trkpt lat="49.54247" lon="3.52957">
        <ele>240.2</ele>
        <time>2015-08-15T16:10:35.791Z</time>
      </trkpt>
      <trkpt lat="49.54239" lon="3.52954">
        <ele>239.5</ele>
        <time>2015-08-15T16:10:41.825Z</time>
      </trkpt>
      <trkpt lat="49.54238" lon="3.52954">
        <ele>239.4</ele>
        <time>2015-08-15T16:10:42.841Z</time>
      </trkpt>
      <trkpt lat="49.54231" lon="3.5295">
        <ele>238.7</ele>
        <time>2015-08-15T16:10:48.854Z</time>
      </trkpt>
      <trkpt lat="49.54229" lon="3.52949">
        <ele>238.5</ele>
        <time>2015-08-15T16:10:49.832Z</time>
      </trkpt>
      <trkpt lat="49.54221" lon="3.52944">
        <ele>238.7</ele>
        <time>2015-08-15T16:10:57.807Z</time>
      </trkpt>
      <trkpt lat="49.5422" lon="3.52943">
        <ele>238.7</ele>
        <time>2015-08-15T16:10:58.792Z</time>
      </trkpt>
      <trkpt lat="49.54212" lon="3.52939">
        <ele>238.5</ele>
        <time>2015-08-15T16:11:05.849Z</time>
      </trkpt>
      <trkpt lat="49.54211" lon="3.52939">
        <ele>238.5</ele>
        <time>2015-08-15T16:11:06.829Z</time>
      </trkpt>
      <trkpt lat="49.54203" lon="3.52936">
        <ele>238.9</ele>
        <time>2015-08-15T16:11:13.883Z</time>
      </trkpt>
      <trkpt lat="49.54202" lon="3.52936">
        <ele>239.1</ele>
        <time>2015-08-15T16:11:14.778Z</time>
      </trkpt>
      <trkpt lat="49.54194" lon="3.52933">
        <ele>239.1</ele>
        <time>2015-08-15T16:11:22.867Z</time>
      </trkpt>
      <trkpt lat="49.54192" lon="3.52933">
        <ele>238.8</ele>
        <time>2015-08-15T16:11:23.843Z</time>
      </trkpt>
      <trkpt lat="49.54185" lon="3.52932">
        <ele>238.6</ele>
        <time>2015-08-15T16:11:31.818Z</time>
      </trkpt>
      <trkpt lat="49.54183" lon="3.52932">
        <ele>238.6</ele>
        <time>2015-08-15T16:11:32.775Z</time>
      </trkpt>
      <trkpt lat="49.54176" lon="3.52926">
        <ele>238.6</ele>
        <time>2015-08-15T16:11:41.795Z</time>
      </trkpt>
      <trkpt lat="49.54175" lon="3.52925">
        <ele>238.5</ele>
        <time>2015-08-15T16:11:42.834Z</time>
      </trkpt>
      <trkpt lat="49.54167" lon="3.52921">
        <ele>238.8</ele>
        <time>2015-08-15T16:11:49.816Z</time>
      </trkpt>
      <trkpt lat="49.54166" lon="3.5292">
        <ele>238.7</ele>
        <time>2015-08-15T16:11:50.786Z</time>
      </trkpt>
      <trkpt lat="49.54158" lon="3.52914">
        <ele>237.9</ele>
        <time>2015-08-15T16:11:58.892Z</time>
      </trkpt>
      <trkpt lat="49.54157" lon="3.52912">
        <ele>238</ele>
        <time>2015-08-15T16:11:59.786Z</time>
      </trkpt>
      <trkpt lat="49.5415" lon="3.52906">
        <ele>237.9</ele>
        <time>2015-08-15T16:12:06.854Z</time>
      </trkpt>
      <trkpt lat="49.5415" lon="3.52905">
        <ele>237.9</ele>
        <time>2015-08-15T16:12:07.837Z</time>
      </trkpt>
      <trkpt lat="49.54142" lon="3.529">
        <ele>238.6</ele>
        <time>2015-08-15T16:12:17.856Z</time>
      </trkpt>
      <trkpt lat="49.54141" lon="3.529">
        <ele>238.5</ele>
        <time>2015-08-15T16:12:18.844Z</time>
      </trkpt>
      <trkpt lat="49.54141" lon="3.529">
        <ele>238.5</ele>
        <time>2015-08-15T16:12:18.863Z</time>
      </trkpt>
      <trkpt lat="49.54141" lon="3.529">
        <ele>238.5</ele>
        <time>2015-08-15T16:12:19.879Z</time>
      </trkpt>
      <trkpt lat="49.54141" lon="3.529">
        <ele>238.5</ele>
        <time>2015-08-15T16:12:19.907Z</time>
      </trkpt>
      <trkpt lat="49.54141" lon="3.529">
        <ele>238.6</ele>
        <time>2015-08-15T16:12:20.778Z</time>
      </trkpt>
      <trkpt lat="49.54133" lon="3.52894">
        <ele>238.4</ele>
        <time>2015-08-15T16:12:29.878Z</time>
      </trkpt>
      <trkpt lat="49.54132" lon="3.52893">
        <ele>238.3</ele>
        <time>2015-08-15T16:12:30.865Z</time>
      </trkpt>
      <trkpt lat="49.54124" lon="3.52892">
        <ele>238</ele>
        <time>2015-08-15T16:12:36.860Z</time>
      </trkpt>
      <trkpt lat="49.54122" lon="3.52891">
        <ele>237.9</ele>
        <time>2015-08-15T16:12:37.837Z</time>
      </trkpt>
      <trkpt lat="49.54114" lon="3.52885">
        <ele>237.4</ele>
        <time>2015-08-15T16:12:46.890Z</time>
      </trkpt>
      <trkpt lat="49.54113" lon="3.52886">
        <ele>237.3</ele>
        <time>2015-08-15T16:12:47.784Z</time>
      </trkpt>
      <trkpt lat="49.54105" lon="3.52884">
        <ele>237.5</ele>
        <time>2015-08-15T16:12:55.867Z</time>
      </trkpt>
      <trkpt lat="49.54104" lon="3.52884">
        <ele>237.2</ele>
        <time>2015-08-15T16:12:56.840Z</time>
      </trkpt>
      <trkpt lat="49.54097" lon="3.52878">
        <ele>237.7</ele>
        <time>2015-08-15T16:13:04.813Z</time>
      </trkpt>
      <trkpt lat="49.54096" lon="3.52878">
        <ele>237.7</ele>
        <time>2015-08-15T16:13:05.805Z</time>
      </trkpt>
      <trkpt lat="49.54089" lon="3.5287">
        <ele>238.5</ele>
        <time>2015-08-15T16:13:13.806Z</time>
      </trkpt>
      <trkpt lat="49.54088" lon="3.52869">
        <ele>238.6</ele>
        <time>2015-08-15T16:13:14.796Z</time>
      </trkpt>
      <trkpt lat="49.54081" lon="3.52862">
        <ele>238.4</ele>
        <time>2015-08-15T16:13:20.870Z</time>
      </trkpt>
      <trkpt lat="49.5408" lon="3.5286">
        <ele>238.4</ele>
        <time>2015-08-15T16:13:21.842Z</time>
      </trkpt>
      <trkpt lat="49.54074" lon="3.52853">
        <ele>237.8</ele>
        <time>2015-08-15T16:13:27.828Z</time>
      </trkpt>
      <trkpt lat="49.54072" lon="3.52852">
        <ele>237.8</ele>
        <time>2015-08-15T16:13:28.811Z</time>
      </trkpt>
      <trkpt lat="49.54065" lon="3.52846">
        <ele>237.5</ele>
        <time>2015-08-15T16:13:36.921Z</time>
      </trkpt>
      <trkpt lat="49.54065" lon="3.52845">
        <ele>237.7</ele>
        <time>2015-08-15T16:13:37.784Z</time>
      </trkpt>
      <trkpt lat="49.54058" lon="3.5284">
        <ele>237.1</ele>
        <time>2015-08-15T16:13:45.834Z</time>
      </trkpt>
      <trkpt lat="49.54056" lon="3.52839">
        <ele>237</ele>
        <time>2015-08-15T16:13:46.797Z</time>
      </trkpt>
      <trkpt lat="49.54049" lon="3.52833">
        <ele>237.5</ele>
        <time>2015-08-15T16:13:53.799Z</time>
      </trkpt>
      <trkpt lat="49.54048" lon="3.52832">
        <ele>237.6</ele>
        <time>2015-08-15T16:13:54.829Z</time>
      </trkpt>
      <trkpt lat="49.54039" lon="3.52828">
        <ele>237.6</ele>
        <time>2015-08-15T16:14:03.820Z</time>
      </trkpt>
      <trkpt lat="49.54038" lon="3.52828">
        <ele>237.7</ele>
        <time>2015-08-15T16:14:04.796Z</time>
      </trkpt>
      <trkpt lat="49.54031" lon="3.5282">
        <ele>237</ele>
        <time>2015-08-15T16:14:11.803Z</time>
      </trkpt>
      <trkpt lat="49.5403" lon="3.52819">
        <ele>237</ele>
        <time>2015-08-15T16:14:12.909Z</time>
      </trkpt>
      <trkpt lat="49.54023" lon="3.52812">
        <ele>236.2</ele>
        <time>2015-08-15T16:14:18.855Z</time>
      </trkpt>
      <trkpt lat="49.54022" lon="3.52811">
        <ele>236.3</ele>
        <time>2015-08-15T16:14:19.839Z</time>
      </trkpt>
      <trkpt lat="49.54015" lon="3.52803">
        <ele>236.9</ele>
        <time>2015-08-15T16:14:28.047Z</time>
      </trkpt>
      <trkpt lat="49.54014" lon="3.52802">
        <ele>237</ele>
        <time>2015-08-15T16:14:28.796Z</time>
      </trkpt>
      <trkpt lat="49.54007" lon="3.52795">
        <ele>237.2</ele>
        <time>2015-08-15T16:14:38.874Z</time>
      </trkpt>
      <trkpt lat="49.54006" lon="3.52794">
        <ele>237.2</ele>
        <time>2015-08-15T16:14:39.850Z</time>
      </trkpt>
      <trkpt lat="49.53999" lon="3.52789">
        <ele>238</ele>
        <time>2015-08-15T16:14:45.811Z</time>
      </trkpt>
      <trkpt lat="49.53998" lon="3.52788">
        <ele>237.9</ele>
        <time>2015-08-15T16:14:46.795Z</time>
      </trkpt>
      <trkpt lat="49.5399" lon="3.52781">
        <ele>237.8</ele>
        <time>2015-08-15T16:14:53.816Z</time>
      </trkpt>
      <trkpt lat="49.53989" lon="3.52781">
        <ele>237.9</ele>
        <time>2015-08-15T16:14:54.829Z</time>
      </trkpt>
      <trkpt lat="49.5398" lon="3.52777">
        <ele>237.9</ele>
        <time>2015-08-15T16:15:03.797Z</time>
      </trkpt>
      <trkpt lat="49.53979" lon="3.52777">
        <ele>237.9</ele>
        <time>2015-08-15T16:15:04.771Z</time>
      </trkpt>
      <trkpt lat="49.53971" lon="3.52771">
        <ele>237.5</ele>
        <time>2015-08-15T16:15:15.983Z</time>
      </trkpt>
      <trkpt lat="49.5397" lon="3.52771">
        <ele>237.5</ele>
        <time>2015-08-15T16:15:16.774Z</time>
      </trkpt>
      <trkpt lat="49.5397" lon="3.52771">
        <ele>237.5</ele>
        <time>2015-08-15T16:15:16.798Z</time>
      </trkpt>
      <trkpt lat="49.5397" lon="3.5277">
        <ele>237.4</ele>
        <time>2015-08-15T16:15:17.779Z</time>
      </trkpt>
      <trkpt lat="49.5397" lon="3.52771">
        <ele>237.1</ele>
        <time>2015-08-15T16:15:22.885Z</time>
      </trkpt>
      <trkpt lat="49.53969" lon="3.52769">
        <ele>236.7</ele>
        <time>2015-08-15T16:15:23.861Z</time>
      </trkpt>
      <trkpt lat="49.53961" lon="3.52765">
        <ele>235.4</ele>
        <time>2015-08-15T16:15:31.880Z</time>
      </trkpt>
      <trkpt lat="49.53959" lon="3.52764">
        <ele>235.4</ele>
        <time>2015-08-15T16:15:32.854Z</time>
      </trkpt>
      <trkpt lat="49.53952" lon="3.52759">
        <ele>234.8</ele>
        <time>2015-08-15T16:15:41.897Z</time>
      </trkpt>
      <trkpt lat="49.53951" lon="3.52759">
        <ele>234.7</ele>
        <time>2015-08-15T16:15:42.872Z</time>
      </trkpt>
      <trkpt lat="49.53945" lon="3.52756">
        <ele>233.8</ele>
        <time>2015-08-15T16:15:46.833Z</time>
      </trkpt>
      <trkpt lat="49.53945" lon="3.52756">
        <ele>233.8</ele>
        <time>2015-08-15T16:15:47.795Z</time>
      </trkpt>
      <trkpt lat="49.53945" lon="3.52756">
        <ele>233.8</ele>
        <time>2015-08-15T16:15:47.837Z</time>
      </trkpt>
      <trkpt lat="49.53944" lon="3.52755">
        <ele>233.8</ele>
        <time>2015-08-15T16:15:48.832Z</time>
      </trkpt>
      <trkpt lat="49.53936" lon="3.5275">
        <ele>233.3</ele>
        <time>2015-08-15T16:15:53.895Z</time>
      </trkpt>
      <trkpt lat="49.53935" lon="3.52749">
        <ele>233.2</ele>
        <time>2015-08-15T16:15:54.880Z</time>
      </trkpt>
      <trkpt lat="49.53926" lon="3.52745">
        <ele>233.8</ele>
        <time>2015-08-15T16:16:03.878Z</time>
      </trkpt>
      <trkpt lat="49.53926" lon="3.52745">
        <ele>234</ele>
        <time>2015-08-15T16:16:04.779Z</time>
      </trkpt>
      <trkpt lat="49.53917" lon="3.52742">
        <ele>234.1</ele>
        <time>2015-08-15T16:16:09.895Z</time>
      </trkpt>
      <trkpt lat="49.53916" lon="3.52742">
        <ele>234.1</ele>
        <time>2015-08-15T16:16:10.781Z</time>
      </trkpt>
      <trkpt lat="49.53908" lon="3.5274">
        <ele>233.8</ele>
        <time>2015-08-15T16:16:15.923Z</time>
      </trkpt>
      <trkpt lat="49.53906" lon="3.5274">
        <ele>233.9</ele>
        <time>2015-08-15T16:16:16.780Z</time>
      </trkpt>
      <trkpt lat="49.53898" lon="3.52742">
        <ele>234.4</ele>
        <time>2015-08-15T16:16:26.877Z</time>
      </trkpt>
      <trkpt lat="49.53897" lon="3.52742">
        <ele>234.4</ele>
        <time>2015-08-15T16:16:27.858Z</time>
      </trkpt>
      <trkpt lat="49.53889" lon="3.52742">
        <ele>233.8</ele>
        <time>2015-08-15T16:16:33.837Z</time>
      </trkpt>
      <trkpt lat="49.53888" lon="3.52742">
        <ele>233.6</ele>
        <time>2015-08-15T16:16:34.829Z</time>
      </trkpt>
      <trkpt lat="49.53879" lon="3.52742">
        <ele>233.4</ele>
        <time>2015-08-15T16:16:41.810Z</time>
      </trkpt>
      <trkpt lat="49.53878" lon="3.52742">
        <ele>233.4</ele>
        <time>2015-08-15T16:16:42.916Z</time>
      </trkpt>
      <trkpt lat="49.53869" lon="3.52741">
        <ele>233.5</ele>
        <time>2015-08-15T16:16:50.882Z</time>
      </trkpt>
      <trkpt lat="49.53868" lon="3.52741">
        <ele>233.7</ele>
        <time>2015-08-15T16:16:51.859Z</time>
      </trkpt>
      <trkpt lat="49.53868" lon="3.52742">
        <ele>233.5</ele>
        <time>2015-08-15T16:16:52.806Z</time>
      </trkpt>
      <trkpt lat="49.53867" lon="3.52742">
        <ele>233.6</ele>
        <time>2015-08-15T16:16:53.780Z</time>
      </trkpt>
      <trkpt lat="49.53866" lon="3.52742">
        <ele>233.8</ele>
        <time>2015-08-15T16:16:58.852Z</time>
      </trkpt>
      <trkpt lat="49.53865" lon="3.52742">
        <ele>234</ele>
        <time>2015-08-15T16:16:59.847Z</time>
      </trkpt>
      <trkpt lat="49.53864" lon="3.52742">
        <ele>234</ele>
        <time>2015-08-15T16:17:00.898Z</time>
      </trkpt>
      <trkpt lat="49.53864" lon="3.52742">
        <ele>234.1</ele>
        <time>2015-08-15T16:17:01.864Z</time>
      </trkpt>
      <trkpt lat="49.53864" lon="3.52742">
        <ele>234.1</ele>
        <time>2015-08-15T16:17:01.897Z</time>
      </trkpt>
      <trkpt lat="49.53863" lon="3.52743">
        <ele>234.3</ele>
        <time>2015-08-15T16:17:02.780Z</time>
      </trkpt>
      <trkpt lat="49.53855" lon="3.52746">
        <ele>234.5</ele>
        <time>2015-08-15T16:17:11.883Z</time>
      </trkpt>
      <trkpt lat="49.53854" lon="3.52746">
        <ele>234.3</ele>
        <time>2015-08-15T16:17:12.858Z</time>
      </trkpt>
      <trkpt lat="49.53849" lon="3.52748">
        <ele>234.7</ele>
        <time>2015-08-15T16:17:17.872Z</time>
      </trkpt>
      <trkpt lat="49.53847" lon="3.52748">
        <ele>235</ele>
        <time>2015-08-15T16:17:18.841Z</time>
      </trkpt>
      <trkpt lat="49.53845" lon="3.52748">
        <ele>235.1</ele>
        <time>2015-08-15T16:17:21.906Z</time>
      </trkpt>
      <trkpt lat="49.53844" lon="3.52748">
        <ele>234.6</ele>
        <time>2015-08-15T16:17:22.779Z</time>
      </trkpt>
      <trkpt lat="49.53843" lon="3.52749">
        <ele>234.4</ele>
        <time>2015-08-15T16:17:24.840Z</time>
      </trkpt>
      <trkpt lat="49.53842" lon="3.52749">
        <ele>234.4</ele>
        <time>2015-08-15T16:17:25.821Z</time>
      </trkpt>
      <trkpt lat="49.53842" lon="3.52749">
        <ele>234.4</ele>
        <time>2015-08-15T16:17:25.848Z</time>
      </trkpt>
      <trkpt lat="49.53842" lon="3.52749">
        <ele>234.4</ele>
        <time>2015-08-15T16:17:26.827Z</time>
      </trkpt>
      <trkpt lat="49.53842" lon="3.52748">
        <ele>234.6</ele>
        <time>2015-08-15T16:17:29.855Z</time>
      </trkpt>
      <trkpt lat="49.53842" lon="3.52747">
        <ele>234.3</ele>
        <time>2015-08-15T16:17:30.869Z</time>
      </trkpt>
      <trkpt lat="49.53842" lon="3.52747">
        <ele>234.4</ele>
        <time>2015-08-15T16:18:02.894Z</time>
      </trkpt>
      <trkpt lat="49.53835" lon="3.52748">
        <ele>237</ele>
        <time>2015-08-15T16:18:03.780Z</time>
      </trkpt>
      <trkpt lat="49.5383" lon="3.52758">
        <ele>237.2</ele>
        <time>2015-08-15T16:18:15.918Z</time>
      </trkpt>
      <trkpt lat="49.53829" lon="3.52759">
        <ele>237.2</ele>
        <time>2015-08-15T16:18:16.795Z</time>
      </trkpt>
      <trkpt lat="49.53829" lon="3.52772">
        <ele>236.4</ele>
        <time>2015-08-15T16:18:26.837Z</time>
      </trkpt>
      <trkpt lat="49.5383" lon="3.52775">
        <ele>236.5</ele>
        <time>2015-08-15T16:18:27.796Z</time>
      </trkpt>
      <trkpt lat="49.53834" lon="3.52782">
        <ele>236.3</ele>
        <time>2015-08-15T16:18:34.833Z</time>
      </trkpt>
      <trkpt lat="49.53834" lon="3.52782">
        <ele>236.3</ele>
        <time>2015-08-15T16:18:35.802Z</time>
      </trkpt>
      <trkpt lat="49.53833" lon="3.52784">
        <ele>236.3</ele>
        <time>2015-08-15T16:18:36.876Z</time>
      </trkpt>
      <trkpt lat="49.53833" lon="3.52784">
        <ele>236.4</ele>
        <time>2015-08-15T16:18:37.842Z</time>
      </trkpt>
      <trkpt lat="49.53837" lon="3.52797">
        <ele>236.7</ele>
        <time>2015-08-15T16:18:49.808Z</time>
      </trkpt>
      <trkpt lat="49.53838" lon="3.52798">
        <ele>236.8</ele>
        <time>2015-08-15T16:18:50.782Z</time>
      </trkpt>
      <trkpt lat="49.53842" lon="3.52808">
        <ele>236.9</ele>
        <time>2015-08-15T16:18:57.858Z</time>
      </trkpt>
      <trkpt lat="49.53843" lon="3.5281">
        <ele>236.9</ele>
        <time>2015-08-15T16:18:58.842Z</time>
      </trkpt>
      <trkpt lat="49.53847" lon="3.52821">
        <ele>237.2</ele>
        <time>2015-08-15T16:19:04.825Z</time>
      </trkpt>
      <trkpt lat="49.53849" lon="3.52822">
        <ele>237.4</ele>
        <time>2015-08-15T16:19:05.800Z</time>
      </trkpt>
      <trkpt lat="49.5385" lon="3.52828">
        <ele>237.4</ele>
        <time>2015-08-15T16:19:09.858Z</time>
      </trkpt>
      <trkpt lat="49.5385" lon="3.52829">
        <ele>237.2</ele>
        <time>2015-08-15T16:19:10.841Z</time>
      </trkpt>
      <trkpt lat="49.5385" lon="3.52831">
        <ele>236.8</ele>
        <time>2015-08-15T16:19:12.901Z</time>
      </trkpt>
      <trkpt lat="49.53851" lon="3.52832">
        <ele>236.8</ele>
        <time>2015-08-15T16:19:13.779Z</time>
      </trkpt>
      <trkpt lat="49.53856" lon="3.52841">
        <ele>236.6</ele>
        <time>2015-08-15T16:19:19.853Z</time>
      </trkpt>
      <trkpt lat="49.53857" lon="3.52843">
        <ele>236.7</ele>
        <time>2015-08-15T16:19:20.834Z</time>
      </trkpt>
      <trkpt lat="49.53862" lon="3.52853">
        <ele>237</ele>
        <time>2015-08-15T16:19:26.821Z</time>
      </trkpt>
      <trkpt lat="49.53863" lon="3.52854">
        <ele>237.2</ele>
        <time>2015-08-15T16:19:27.783Z</time>
      </trkpt>
      <trkpt lat="49.53869" lon="3.52863">
        <ele>237.6</ele>
        <time>2015-08-15T16:19:34.852Z</time>
      </trkpt>
      <trkpt lat="49.5387" lon="3.52864">
        <ele>237.5</ele>
        <time>2015-08-15T16:19:35.828Z</time>
      </trkpt>
      <trkpt lat="49.53875" lon="3.52874">
        <ele>237</ele>
        <time>2015-08-15T16:19:43.863Z</time>
      </trkpt>
      <trkpt lat="49.53876" lon="3.52876">
        <ele>237.2</ele>
        <time>2015-08-15T16:19:44.849Z</time>
      </trkpt>
      <trkpt lat="49.53881" lon="3.52886">
        <ele>237.8</ele>
        <time>2015-08-15T16:19:50.802Z</time>
      </trkpt>
      <trkpt lat="49.53881" lon="3.52887">
        <ele>237.9</ele>
        <time>2015-08-15T16:19:51.780Z</time>
      </trkpt>
      <trkpt lat="49.53886" lon="3.52895">
        <ele>238.7</ele>
        <time>2015-08-15T16:19:57.867Z</time>
      </trkpt>
      <trkpt lat="49.53887" lon="3.52897">
        <ele>238.8</ele>
        <time>2015-08-15T16:19:58.851Z</time>
      </trkpt>
      <trkpt lat="49.53893" lon="3.52905">
        <ele>239.2</ele>
        <time>2015-08-15T16:20:04.831Z</time>
      </trkpt>
      <trkpt lat="49.53894" lon="3.52906">
        <ele>239.4</ele>
        <time>2015-08-15T16:20:05.813Z</time>
      </trkpt>
      <trkpt lat="49.53898" lon="3.52917">
        <ele>239.9</ele>
        <time>2015-08-15T16:20:13.802Z</time>
      </trkpt>
      <trkpt lat="49.53899" lon="3.52918">
        <ele>239.9</ele>
        <time>2015-08-15T16:20:14.793Z</time>
      </trkpt>
      <trkpt lat="49.53905" lon="3.52928">
        <ele>240</ele>
        <time>2015-08-15T16:20:21.888Z</time>
      </trkpt>
      <trkpt lat="49.53906" lon="3.52929">
        <ele>239.9</ele>
        <time>2015-08-15T16:20:22.777Z</time>
      </trkpt>
      <trkpt lat="49.53912" lon="3.52937">
        <ele>239.9</ele>
        <time>2015-08-15T16:20:29.888Z</time>
      </trkpt>
      <trkpt lat="49.53913" lon="3.52938">
        <ele>240</ele>
        <time>2015-08-15T16:20:30.868Z</time>
      </trkpt>
      <trkpt lat="49.5392" lon="3.52946">
        <ele>240.1</ele>
        <time>2015-08-15T16:20:37.878Z</time>
      </trkpt>
      <trkpt lat="49.53921" lon="3.52947">
        <ele>239.8</ele>
        <time>2015-08-15T16:20:38.859Z</time>
      </trkpt>
      <trkpt lat="49.53924" lon="3.52959">
        <ele>239.5</ele>
        <time>2015-08-15T16:20:48.856Z</time>
      </trkpt>
      <trkpt lat="49.53925" lon="3.5296">
        <ele>239.5</ele>
        <time>2015-08-15T16:20:49.847Z</time>
      </trkpt>
      <trkpt lat="49.53932" lon="3.52968">
        <ele>239.1</ele>
        <time>2015-08-15T16:20:53.805Z</time>
      </trkpt>
      <trkpt lat="49.53934" lon="3.5297">
        <ele>239</ele>
        <time>2015-08-15T16:20:54.832Z</time>
      </trkpt>
      <trkpt lat="49.53938" lon="3.52983">
        <ele>239</ele>
        <time>2015-08-15T16:21:00.940Z</time>
      </trkpt>
      <trkpt lat="49.53938" lon="3.52985">
        <ele>239.1</ele>
        <time>2015-08-15T16:21:01.775Z</time>
      </trkpt>
      <trkpt lat="49.53941" lon="3.52997">
        <ele>239.5</ele>
        <time>2015-08-15T16:21:08.883Z</time>
      </trkpt>
      <trkpt lat="49.53942" lon="3.52999">
        <ele>239.7</ele>
        <time>2015-08-15T16:21:09.862Z</time>
      </trkpt>
      <trkpt lat="49.53946" lon="3.5301">
        <ele>240.1</ele>
        <time>2015-08-15T16:21:18.856Z</time>
      </trkpt>
      <trkpt lat="49.53947" lon="3.53011">
        <ele>240.2</ele>
        <time>2015-08-15T16:21:19.834Z</time>
      </trkpt>
      <trkpt lat="49.53953" lon="3.5302">
        <ele>239.8</ele>
        <time>2015-08-15T16:21:26.833Z</time>
      </trkpt>
      <trkpt lat="49.53954" lon="3.53022">
        <ele>239.5</ele>
        <time>2015-08-15T16:21:27.795Z</time>
      </trkpt>
      <trkpt lat="49.5396" lon="3.53032">
        <ele>239.4</ele>
        <time>2015-08-15T16:21:34.780Z</time>
      </trkpt>
      <trkpt lat="49.5396" lon="3.53034">
        <ele>239.5</ele>
        <time>2015-08-15T16:21:35.774Z</time>
      </trkpt>
      <trkpt lat="49.53959" lon="3.53036">
        <ele>239.7</ele>
        <time>2015-08-15T16:21:37.816Z</time>
      </trkpt>
      <trkpt lat="49.53959" lon="3.53036">
        <ele>239.6</ele>
        <time>2015-08-15T16:21:38.776Z</time>
      </trkpt>
      <trkpt lat="49.53959" lon="3.53036">
        <ele>239.6</ele>
        <time>2015-08-15T16:21:38.797Z</time>
      </trkpt>
      <trkpt lat="49.5396" lon="3.53037">
        <ele>239.6</ele>
        <time>2015-08-15T16:21:39.832Z</time>
      </trkpt>
      <trkpt lat="49.53965" lon="3.53046">
        <ele>239.2</ele>
        <time>2015-08-15T16:21:46.818Z</time>
      </trkpt>
      <trkpt lat="49.53965" lon="3.53047">
        <ele>239.1</ele>
        <time>2015-08-15T16:21:47.783Z</time>
      </trkpt>
      <trkpt lat="49.53972" lon="3.53053">
        <ele>239.3</ele>
        <time>2015-08-15T16:21:52.817Z</time>
      </trkpt>
      <trkpt lat="49.53973" lon="3.53055">
        <ele>239</ele>
        <time>2015-08-15T16:21:53.789Z</time>
      </trkpt>
      <trkpt lat="49.53977" lon="3.53067">
        <ele>238.2</ele>
        <time>2015-08-15T16:21:59.825Z</time>
      </trkpt>
      <trkpt lat="49.53977" lon="3.53068">
        <ele>238.3</ele>
        <time>2015-08-15T16:22:00.820Z</time>
      </trkpt>
      <trkpt lat="49.53982" lon="3.53079">
        <ele>238.1</ele>
        <time>2015-08-15T16:22:07.802Z</time>
      </trkpt>
      <trkpt lat="49.53982" lon="3.5308">
        <ele>237.9</ele>
        <time>2015-08-15T16:22:08.777Z</time>
      </trkpt>
      <trkpt lat="49.53987" lon="3.53092">
        <ele>237.9</ele>
        <time>2015-08-15T16:22:15.807Z</time>
      </trkpt>
      <trkpt lat="49.53988" lon="3.53093">
        <ele>237.7</ele>
        <time>2015-08-15T16:22:16.779Z</time>
      </trkpt>
      <trkpt lat="49.53995" lon="3.53102">
        <ele>237.9</ele>
        <time>2015-08-15T16:22:23.899Z</time>
      </trkpt>
      <trkpt lat="49.53996" lon="3.53104">
        <ele>237.8</ele>
        <time>2015-08-15T16:22:24.873Z</time>
      </trkpt>
      <trkpt lat="49.54" lon="3.53116">
        <ele>237.9</ele>
        <time>2015-08-15T16:22:34.820Z</time>
      </trkpt>
      <trkpt lat="49.54002" lon="3.53119">
        <ele>237.5</ele>
        <time>2015-08-15T16:22:35.801Z</time>
      </trkpt>
      <trkpt lat="49.54006" lon="3.5313">
        <ele>237</ele>
        <time>2015-08-15T16:22:41.809Z</time>
      </trkpt>
      <trkpt lat="49.54007" lon="3.53132">
        <ele>237.1</ele>
        <time>2015-08-15T16:22:42.823Z</time>
      </trkpt>
      <trkpt lat="49.54008" lon="3.53146">
        <ele>236.8</ele>
        <time>2015-08-15T16:22:51.798Z</time>
      </trkpt>
      <trkpt lat="49.54008" lon="3.53147">
        <ele>236.8</ele>
        <time>2015-08-15T16:22:52.985Z</time>
      </trkpt>
      <trkpt lat="49.5401" lon="3.5316">
        <ele>236.4</ele>
        <time>2015-08-15T16:23:02.803Z</time>
      </trkpt>
      <trkpt lat="49.5401" lon="3.53161">
        <ele>236.4</ele>
        <time>2015-08-15T16:23:03.783Z</time>
      </trkpt>
      <trkpt lat="49.54005" lon="3.53171">
        <ele>236</ele>
        <time>2015-08-15T16:23:11.884Z</time>
      </trkpt>
      <trkpt lat="49.54004" lon="3.53173">
        <ele>235.9</ele>
        <time>2015-08-15T16:23:12.856Z</time>
      </trkpt>
      <trkpt lat="49.54" lon="3.53183">
        <ele>235.7</ele>
        <time>2015-08-15T16:23:19.885Z</time>
      </trkpt>
      <trkpt lat="49.54" lon="3.53185">
        <ele>235.7</ele>
        <time>2015-08-15T16:23:20.858Z</time>
      </trkpt>
      <trkpt lat="49.53999" lon="3.53198">
        <ele>236.2</ele>
        <time>2015-08-15T16:23:30.588Z</time>
      </trkpt>
      <trkpt lat="49.53999" lon="3.532">
        <ele>236.1</ele>
        <time>2015-08-15T16:23:31.615Z</time>
      </trkpt>
      <trkpt lat="49.53994" lon="3.5321">
        <ele>235.3</ele>
        <time>2015-08-15T16:23:36.587Z</time>
      </trkpt>
      <trkpt lat="49.53992" lon="3.53212">
        <ele>235</ele>
        <time>2015-08-15T16:23:37.581Z</time>
      </trkpt>
      <trkpt lat="49.53989" lon="3.53223">
        <ele>234.8</ele>
        <time>2015-08-15T16:23:42.628Z</time>
      </trkpt>
      <trkpt lat="49.53988" lon="3.53225">
        <ele>235</ele>
        <time>2015-08-15T16:23:43.616Z</time>
      </trkpt>
      <trkpt lat="49.53984" lon="3.53237">
        <ele>235</ele>
        <time>2015-08-15T16:23:49.633Z</time>
      </trkpt>
      <trkpt lat="49.53984" lon="3.53238">
        <ele>235</ele>
        <time>2015-08-15T16:23:50.610Z</time>
      </trkpt>
      <trkpt lat="49.5398" lon="3.5325">
        <ele>234.5</ele>
        <time>2015-08-15T16:23:59.626Z</time>
      </trkpt>
      <trkpt lat="49.5398" lon="3.53252">
        <ele>234.5</ele>
        <time>2015-08-15T16:24:00.578Z</time>
      </trkpt>
      <trkpt lat="49.53978" lon="3.53264">
        <ele>234.1</ele>
        <time>2015-08-15T16:24:06.603Z</time>
      </trkpt>
      <trkpt lat="49.53977" lon="3.53266">
        <ele>234</ele>
        <time>2015-08-15T16:24:07.593Z</time>
      </trkpt>
      <trkpt lat="49.53974" lon="3.53277">
        <ele>234.7</ele>
        <time>2015-08-15T16:24:17.582Z</time>
      </trkpt>
      <trkpt lat="49.53973" lon="3.53278">
        <ele>234.3</ele>
        <time>2015-08-15T16:24:18.551Z</time>
      </trkpt>
      <trkpt lat="49.53973" lon="3.53278">
        <ele>234.3</ele>
        <time>2015-08-15T16:24:18.579Z</time>
      </trkpt>
      <trkpt lat="49.53973" lon="3.53278">
        <ele>234.9</ele>
        <time>2015-08-15T16:24:21.644Z</time>
      </trkpt>
      <trkpt lat="49.53972" lon="3.53278">
        <ele>235.1</ele>
        <time>2015-08-15T16:24:22.622Z</time>
      </trkpt>
      <trkpt lat="49.53972" lon="3.53278">
        <ele>235.1</ele>
        <time>2015-08-15T16:24:22.656Z</time>
      </trkpt>
      <trkpt lat="49.53972" lon="3.53277">
        <ele>235.1</ele>
        <time>2015-08-15T16:24:23.630Z</time>
      </trkpt>
      <trkpt lat="49.53971" lon="3.53277">
        <ele>235.3</ele>
        <time>2015-08-15T16:24:51.654Z</time>
      </trkpt>
      <trkpt lat="49.53971" lon="3.53274">
        <ele>234.7</ele>
        <time>2015-08-15T16:24:52.613Z</time>
      </trkpt>
      <trkpt lat="49.53972" lon="3.53274">
        <ele>234.8</ele>
        <time>2015-08-15T16:24:55.676Z</time>
      </trkpt>
      <trkpt lat="49.53972" lon="3.53274">
        <ele>234.8</ele>
        <time>2015-08-15T16:24:56.525Z</time>
      </trkpt>
      <trkpt lat="49.53972" lon="3.53274">
        <ele>234.8</ele>
        <time>2015-08-15T16:24:56.541Z</time>
      </trkpt>
      <trkpt lat="49.53972" lon="3.53274">
        <ele>234.7</ele>
        <time>2015-08-15T16:24:57.539Z</time>
      </trkpt>
      <trkpt lat="49.53965" lon="3.53266">
        <ele>232.6</ele>
        <time>2015-08-15T16:25:14.669Z</time>
      </trkpt>
      <trkpt lat="49.53965" lon="3.53265">
        <ele>232.4</ele>
        <time>2015-08-15T16:25:15.554Z</time>
      </trkpt>
      <trkpt lat="49.53958" lon="3.53259">
        <ele>230.8</ele>
        <time>2015-08-15T16:25:27.579Z</time>
      </trkpt>
      <trkpt lat="49.53957" lon="3.53258">
        <ele>230.8</ele>
        <time>2015-08-15T16:25:28.548Z</time>
      </trkpt>
      <trkpt lat="49.53949" lon="3.53252">
        <ele>229.7</ele>
        <time>2015-08-15T16:25:38.667Z</time>
      </trkpt>
      <trkpt lat="49.53948" lon="3.53251">
        <ele>229.5</ele>
        <time>2015-08-15T16:25:39.553Z</time>
      </trkpt>
      <trkpt lat="49.53942" lon="3.53243">
        <ele>228.9</ele>
        <time>2015-08-15T16:25:45.652Z</time>
      </trkpt>
      <trkpt lat="49.53941" lon="3.53242">
        <ele>228.9</ele>
        <time>2015-08-15T16:25:46.628Z</time>
      </trkpt>
      <trkpt lat="49.53934" lon="3.53235">
        <ele>229.3</ele>
        <time>2015-08-15T16:25:53.654Z</time>
      </trkpt>
      <trkpt lat="49.53933" lon="3.53234">
        <ele>229.4</ele>
        <time>2015-08-15T16:25:54.641Z</time>
      </trkpt>
      <trkpt lat="49.53927" lon="3.53226">
        <ele>229.5</ele>
        <time>2015-08-15T16:26:03.642Z</time>
      </trkpt>
      <trkpt lat="49.53926" lon="3.53224">
        <ele>229.3</ele>
        <time>2015-08-15T16:26:04.614Z</time>
      </trkpt>
      <trkpt lat="49.53919" lon="3.53217">
        <ele>229.3</ele>
        <time>2015-08-15T16:26:10.590Z</time>
      </trkpt>
      <trkpt lat="49.53918" lon="3.53217">
        <ele>229.2</ele>
        <time>2015-08-15T16:26:11.578Z</time>
      </trkpt>
      <trkpt lat="49.53912" lon="3.53212">
        <ele>228.7</ele>
        <time>2015-08-15T16:26:16.647Z</time>
      </trkpt>
      <trkpt lat="49.53909" lon="3.53211">
        <ele>228.3</ele>
        <time>2015-08-15T16:26:17.623Z</time>
      </trkpt>
      <trkpt lat="49.53901" lon="3.53205">
        <ele>228.6</ele>
        <time>2015-08-15T16:26:24.591Z</time>
      </trkpt>
      <trkpt lat="49.539" lon="3.53205">
        <ele>228.5</ele>
        <time>2015-08-15T16:26:25.563Z</time>
      </trkpt>
      <trkpt lat="49.53897" lon="3.53203">
        <ele>228.9</ele>
        <time>2015-08-15T16:26:28.618Z</time>
      </trkpt>
      <trkpt lat="49.53896" lon="3.53203">
        <ele>228.8</ele>
        <time>2015-08-15T16:26:29.601Z</time>
      </trkpt>
      <trkpt lat="49.53896" lon="3.53203">
        <ele>228.8</ele>
        <time>2015-08-15T16:26:29.636Z</time>
      </trkpt>
      <trkpt lat="49.53895" lon="3.53203">
        <ele>228.7</ele>
        <time>2015-08-15T16:26:30.622Z</time>
      </trkpt>
      <trkpt lat="49.53887" lon="3.53196">
        <ele>228.7</ele>
        <time>2015-08-15T16:26:36.575Z</time>
      </trkpt>
      <trkpt lat="49.53887" lon="3.53195">
        <ele>228.6</ele>
        <time>2015-08-15T16:26:37.577Z</time>
      </trkpt>
      <trkpt lat="49.5388" lon="3.53188">
        <ele>228.6</ele>
        <time>2015-08-15T16:26:44.644Z</time>
      </trkpt>
      <trkpt lat="49.53879" lon="3.53187">
        <ele>228.7</ele>
        <time>2015-08-15T16:26:45.531Z</time>
      </trkpt>
      <trkpt lat="49.53871" lon="3.53181">
        <ele>229.5</ele>
        <time>2015-08-15T16:26:53.556Z</time>
      </trkpt>
      <trkpt lat="49.5387" lon="3.53179">
        <ele>229.4</ele>
        <time>2015-08-15T16:26:54.531Z</time>
      </trkpt>
      <trkpt lat="49.53862" lon="3.53174">
        <ele>229.4</ele>
        <time>2015-08-15T16:27:03.552Z</time>
      </trkpt>
      <trkpt lat="49.53861" lon="3.53174">
        <ele>229.3</ele>
        <time>2015-08-15T16:27:04.533Z</time>
      </trkpt>
      <trkpt lat="49.53857" lon="3.53164">
        <ele>228.8</ele>
        <time>2015-08-15T16:27:12.642Z</time>
      </trkpt>
      <trkpt lat="49.53856" lon="3.53163">
        <ele>228.7</ele>
        <time>2015-08-15T16:27:13.628Z</time>
      </trkpt>
      <trkpt lat="49.53848" lon="3.53155">
        <ele>229.5</ele>
        <time>2015-08-15T16:27:20.901Z</time>
      </trkpt>
      <trkpt lat="49.53847" lon="3.53155">
        <ele>229.4</ele>
        <time>2015-08-15T16:27:21.608Z</time>
      </trkpt>
      <trkpt lat="49.5384" lon="3.53149">
        <ele>229.1</ele>
        <time>2015-08-15T16:27:28.563Z</time>
      </trkpt>
      <trkpt lat="49.53839" lon="3.53147">
        <ele>228.7</ele>
        <time>2015-08-15T16:27:29.532Z</time>
      </trkpt>
      <trkpt lat="49.53834" lon="3.53137">
        <ele>227.7</ele>
        <time>2015-08-15T16:27:38.626Z</time>
      </trkpt>
      <trkpt lat="49.53833" lon="3.53136">
        <ele>227.7</ele>
        <time>2015-08-15T16:27:39.600Z</time>
      </trkpt>
      <trkpt lat="49.53825" lon="3.53128">
        <ele>225.9</ele>
        <time>2015-08-15T16:27:50.566Z</time>
      </trkpt>
      <trkpt lat="49.53825" lon="3.53128">
        <ele>225.7</ele>
        <time>2015-08-15T16:27:51.541Z</time>
      </trkpt>
      <trkpt lat="49.53825" lon="3.53128">
        <ele>225.7</ele>
        <time>2015-08-15T16:27:51.570Z</time>
      </trkpt>
      <trkpt lat="49.53824" lon="3.53128">
        <ele>225.6</ele>
        <time>2015-08-15T16:27:56.647Z</time>
      </trkpt>
      <trkpt lat="49.53821" lon="3.53127">
        <ele>224.6</ele>
        <time>2015-08-15T16:27:57.607Z</time>
      </trkpt>
      <trkpt lat="49.53813" lon="3.5312">
        <ele>224.2</ele>
        <time>2015-08-15T16:28:05.604Z</time>
      </trkpt>
      <trkpt lat="49.53812" lon="3.53118">
        <ele>224.3</ele>
        <time>2015-08-15T16:28:06.570Z</time>
      </trkpt>
      <trkpt lat="49.53806" lon="3.53108">
        <ele>224.3</ele>
        <time>2015-08-15T16:28:15.650Z</time>
      </trkpt>
      <trkpt lat="49.53806" lon="3.53108">
        <ele>224.2</ele>
        <time>2015-08-15T16:28:16.620Z</time>
      </trkpt>
      <trkpt lat="49.53798" lon="3.53104">
        <ele>223.6</ele>
        <time>2015-08-15T16:28:22.584Z</time>
      </trkpt>
      <trkpt lat="49.53797" lon="3.53103">
        <ele>223.7</ele>
        <time>2015-08-15T16:28:23.562Z</time>
      </trkpt>
      <trkpt lat="49.5379" lon="3.53094">
        <ele>224</ele>
        <time>2015-08-15T16:28:30.680Z</time>
      </trkpt>
      <trkpt lat="49.53789" lon="3.53093">
        <ele>224</ele>
        <time>2015-08-15T16:28:31.663Z</time>
      </trkpt>
      <trkpt lat="49.53783" lon="3.53085">
        <ele>222.6</ele>
        <time>2015-08-15T16:28:39.629Z</time>
      </trkpt>
      <trkpt lat="49.53782" lon="3.53085">
        <ele>222.6</ele>
        <time>2015-08-15T16:28:40.605Z</time>
      </trkpt>
      <trkpt lat="49.53776" lon="3.53079">
        <ele>222</ele>
        <time>2015-08-15T16:28:49.639Z</time>
      </trkpt>
      <trkpt lat="49.53776" lon="3.53077">
        <ele>221.8</ele>
        <time>2015-08-15T16:28:50.616Z</time>
      </trkpt>
      <trkpt lat="49.53776" lon="3.53077">
        <ele>221.8</ele>
        <time>2015-08-15T16:28:50.654Z</time>
      </trkpt>
      <trkpt lat="49.53776" lon="3.53076">
        <ele>221.8</ele>
        <time>2015-08-15T16:28:51.540Z</time>
      </trkpt>
      <trkpt lat="49.53772" lon="3.53066">
        <ele>222.3</ele>
        <time>2015-08-15T16:28:57.617Z</time>
      </trkpt>
      <trkpt lat="49.53771" lon="3.53065">
        <ele>222.1</ele>
        <time>2015-08-15T16:28:58.596Z</time>
      </trkpt>
      <trkpt lat="49.5377" lon="3.53064">
        <ele>222.2</ele>
        <time>2015-08-15T16:28:59.612Z</time>
      </trkpt>
      <trkpt lat="49.5377" lon="3.53064">
        <ele>222.2</ele>
        <time>2015-08-15T16:29:00.626Z</time>
      </trkpt>
      <trkpt lat="49.53769" lon="3.53063">
        <ele>222</ele>
        <time>2015-08-15T16:29:01.683Z</time>
      </trkpt>
      <trkpt lat="49.53768" lon="3.53062">
        <ele>221.8</ele>
        <time>2015-08-15T16:29:02.546Z</time>
      </trkpt>
      <trkpt lat="49.53764" lon="3.53052">
        <ele>219.6</ele>
        <time>2015-08-15T16:29:09.634Z</time>
      </trkpt>
      <trkpt lat="49.53763" lon="3.5305">
        <ele>219.5</ele>
        <time>2015-08-15T16:29:10.620Z</time>
      </trkpt>
      <trkpt lat="49.53757" lon="3.53044">
        <ele>218.1</ele>
        <time>2015-08-15T16:29:15.638Z</time>
      </trkpt>
      <trkpt lat="49.53755" lon="3.53043">
        <ele>218</ele>
        <time>2015-08-15T16:29:16.605Z</time>
      </trkpt>
      <trkpt lat="49.53749" lon="3.53033">
        <ele>218</ele>
        <time>2015-08-15T16:29:22.573Z</time>
      </trkpt>
      <trkpt lat="49.53747" lon="3.53032">
        <ele>218.3</ele>
        <time>2015-08-15T16:29:23.565Z</time>
      </trkpt>
      <trkpt lat="49.53741" lon="3.53027">
        <ele>219.6</ele>
        <time>2015-08-15T16:29:28.643Z</time>
      </trkpt>
      <trkpt lat="49.53739" lon="3.53026">
        <ele>219.8</ele>
        <time>2015-08-15T16:29:29.616Z</time>
      </trkpt>
      <trkpt lat="49.53731" lon="3.53022">
        <ele>220.6</ele>
        <time>2015-08-15T16:29:35.605Z</time>
      </trkpt>
      <trkpt lat="49.5373" lon="3.53021">
        <ele>220.7</ele>
        <time>2015-08-15T16:29:36.578Z</time>
      </trkpt>
      <trkpt lat="49.53721" lon="3.53022">
        <ele>218.8</ele>
        <time>2015-08-15T16:29:46.602Z</time>
      </trkpt>
      <trkpt lat="49.5372" lon="3.53022">
        <ele>218.6</ele>
        <time>2015-08-15T16:29:47.587Z</time>
      </trkpt>
      <trkpt lat="49.53712" lon="3.53016">
        <ele>217.5</ele>
        <time>2015-08-15T16:29:55.614Z</time>
      </trkpt>
      <trkpt lat="49.53711" lon="3.53015">
        <ele>217.2</ele>
        <time>2015-08-15T16:29:56.595Z</time>
      </trkpt>
      <trkpt lat="49.53704" lon="3.53008">
        <ele>216.1</ele>
        <time>2015-08-15T16:30:02.555Z</time>
      </trkpt>
      <trkpt lat="49.53702" lon="3.53008">
        <ele>215.9</ele>
        <time>2015-08-15T16:30:03.539Z</time>
      </trkpt>
      <trkpt lat="49.53695" lon="3.53002">
        <ele>214.7</ele>
        <time>2015-08-15T16:30:09.643Z</time>
      </trkpt>
      <trkpt lat="49.53694" lon="3.53001">
        <ele>214.5</ele>
        <time>2015-08-15T16:30:10.612Z</time>
      </trkpt>
      <trkpt lat="49.53685" lon="3.52999">
        <ele>214</ele>
        <time>2015-08-15T16:30:19.627Z</time>
      </trkpt>
      <trkpt lat="49.53685" lon="3.52999">
        <ele>214</ele>
        <time>2015-08-15T16:30:20.586Z</time>
      </trkpt>
      <trkpt lat="49.53676" lon="3.52998">
        <ele>213</ele>
        <time>2015-08-15T16:30:29.559Z</time>
      </trkpt>
      <trkpt lat="49.53675" lon="3.52997">
        <ele>212.9</ele>
        <time>2015-08-15T16:30:30.549Z</time>
      </trkpt>
      <trkpt lat="49.53668" lon="3.52992">
        <ele>212.1</ele>
        <time>2015-08-15T16:30:37.631Z</time>
      </trkpt>
      <trkpt lat="49.53666" lon="3.52991">
        <ele>212.1</ele>
        <time>2015-08-15T16:30:38.594Z</time>
      </trkpt>
      <trkpt lat="49.53658" lon="3.52987">
        <ele>210.8</ele>
        <time>2015-08-15T16:30:45.568Z</time>
      </trkpt>
      <trkpt lat="49.53658" lon="3.52986">
        <ele>210.7</ele>
        <time>2015-08-15T16:30:46.532Z</time>
      </trkpt>
      <trkpt lat="49.53651" lon="3.52979">
        <ele>209.4</ele>
        <time>2015-08-15T16:30:52.625Z</time>
      </trkpt>
      <trkpt lat="49.53649" lon="3.52978">
        <ele>209.1</ele>
        <time>2015-08-15T16:30:53.595Z</time>
      </trkpt>
      <trkpt lat="49.53642" lon="3.52972">
        <ele>208.5</ele>
        <time>2015-08-15T16:30:59.556Z</time>
      </trkpt>
      <trkpt lat="49.53641" lon="3.52972">
        <ele>208.5</ele>
        <time>2015-08-15T16:31:00.532Z</time>
      </trkpt>
      <trkpt lat="49.53634" lon="3.52966">
        <ele>207.9</ele>
        <time>2015-08-15T16:31:05.578Z</time>
      </trkpt>
      <trkpt lat="49.53632" lon="3.52965">
        <ele>207.8</ele>
        <time>2015-08-15T16:31:06.556Z</time>
      </trkpt>
      <trkpt lat="49.53624" lon="3.5296">
        <ele>207.7</ele>
        <time>2015-08-15T16:31:13.653Z</time>
      </trkpt>
      <trkpt lat="49.53623" lon="3.5296">
        <ele>207.5</ele>
        <time>2015-08-15T16:31:14.520Z</time>
      </trkpt>
      <trkpt lat="49.53615" lon="3.52955">
        <ele>207.5</ele>
        <time>2015-08-15T16:31:23.564Z</time>
      </trkpt>
      <trkpt lat="49.53614" lon="3.52954">
        <ele>207.4</ele>
        <time>2015-08-15T16:31:24.531Z</time>
      </trkpt>
      <trkpt lat="49.53605" lon="3.52954">
        <ele>204.8</ele>
        <time>2015-08-15T16:31:33.584Z</time>
      </trkpt>
      <trkpt lat="49.53604" lon="3.52954">
        <ele>204.5</ele>
        <time>2015-08-15T16:31:34.554Z</time>
      </trkpt>
      <trkpt lat="49.53595" lon="3.52952">
        <ele>203.8</ele>
        <time>2015-08-15T16:31:42.655Z</time>
      </trkpt>
      <trkpt lat="49.53594" lon="3.52951">
        <ele>203.7</ele>
        <time>2015-08-15T16:31:43.631Z</time>
      </trkpt>
      <trkpt lat="49.53586" lon="3.52953">
        <ele>201.7</ele>
        <time>2015-08-15T16:31:50.589Z</time>
      </trkpt>
      <trkpt lat="49.53585" lon="3.52954">
        <ele>200.9</ele>
        <time>2015-08-15T16:31:51.581Z</time>
      </trkpt>
      <trkpt lat="49.53581" lon="3.52955">
        <ele>199.6</ele>
        <time>2015-08-15T16:31:54.655Z</time>
      </trkpt>
      <trkpt lat="49.53579" lon="3.52953">
        <ele>200.4</ele>
        <time>2015-08-15T16:31:55.614Z</time>
      </trkpt>
      <trkpt lat="49.53578" lon="3.52952">
        <ele>200.7</ele>
        <time>2015-08-15T16:32:02.557Z</time>
      </trkpt>
      <trkpt lat="49.53578" lon="3.52955">
        <ele>201.5</ele>
        <time>2015-08-15T16:32:03.538Z</time>
      </trkpt>
      <trkpt lat="49.53569" lon="3.5296">
        <ele>200.9</ele>
        <time>2015-08-15T16:32:14.716Z</time>
      </trkpt>
      <trkpt lat="49.53569" lon="3.52961">
        <ele>200.8</ele>
        <time>2015-08-15T16:32:15.694Z</time>
      </trkpt>
      <trkpt lat="49.53561" lon="3.52965">
        <ele>199.9</ele>
        <time>2015-08-15T16:32:23.664Z</time>
      </trkpt>
      <trkpt lat="49.53559" lon="3.52964">
        <ele>199.5</ele>
        <time>2015-08-15T16:32:24.649Z</time>
      </trkpt>
      <trkpt lat="49.53551" lon="3.52962">
        <ele>198.4</ele>
        <time>2015-08-15T16:32:31.764Z</time>
      </trkpt>
      <trkpt lat="49.5355" lon="3.52962">
        <ele>198.2</ele>
        <time>2015-08-15T16:32:32.620Z</time>
      </trkpt>
      <trkpt lat="49.53541" lon="3.52964">
        <ele>198.1</ele>
        <time>2015-08-15T16:32:43.841Z</time>
      </trkpt>
      <trkpt lat="49.5354" lon="3.52964">
        <ele>198</ele>
        <time>2015-08-15T16:32:44.683Z</time>
      </trkpt>
      <trkpt lat="49.53534" lon="3.52973">
        <ele>197.2</ele>
        <time>2015-08-15T16:32:51.754Z</time>
      </trkpt>
      <trkpt lat="49.53534" lon="3.52974">
        <ele>197.4</ele>
        <time>2015-08-15T16:32:52.730Z</time>
      </trkpt>
      <trkpt lat="49.53526" lon="3.52979">
        <ele>197.5</ele>
        <time>2015-08-15T16:32:57.708Z</time>
      </trkpt>
      <trkpt lat="49.53525" lon="3.52979">
        <ele>197.5</ele>
        <time>2015-08-15T16:32:58.660Z</time>
      </trkpt>
      <trkpt lat="49.53517" lon="3.52978">
        <ele>197.3</ele>
        <time>2015-08-15T16:33:03.717Z</time>
      </trkpt>
      <trkpt lat="49.53515" lon="3.52978">
        <ele>197.2</ele>
        <time>2015-08-15T16:33:04.649Z</time>
      </trkpt>
      <trkpt lat="49.53507" lon="3.52978">
        <ele>196.7</ele>
        <time>2015-08-15T16:33:09.883Z</time>
      </trkpt>
      <trkpt lat="49.53505" lon="3.52978">
        <ele>196.6</ele>
        <time>2015-08-15T16:33:10.650Z</time>
      </trkpt>
      <trkpt lat="49.53499" lon="3.52986">
        <ele>196</ele>
        <time>2015-08-15T16:33:16.739Z</time>
      </trkpt>
      <trkpt lat="49.53497" lon="3.52987">
        <ele>195.7</ele>
        <time>2015-08-15T16:33:17.714Z</time>
      </trkpt>
      <trkpt lat="49.5349" lon="3.5299">
        <ele>194.7</ele>
        <time>2015-08-15T16:33:23.747Z</time>
      </trkpt>
      <trkpt lat="49.53488" lon="3.52992">
        <ele>194.5</ele>
        <time>2015-08-15T16:33:24.634Z</time>
      </trkpt>
      <trkpt lat="49.53481" lon="3.52995">
        <ele>194.5</ele>
        <time>2015-08-15T16:33:30.711Z</time>
      </trkpt>
      <trkpt lat="49.5348" lon="3.52996">
        <ele>194.3</ele>
        <time>2015-08-15T16:33:31.719Z</time>
      </trkpt>
      <trkpt lat="49.53471" lon="3.52995">
        <ele>194</ele>
        <time>2015-08-15T16:33:39.751Z</time>
      </trkpt>
      <trkpt lat="49.5347" lon="3.52995">
        <ele>193.9</ele>
        <time>2015-08-15T16:33:40.722Z</time>
      </trkpt>
      <trkpt lat="49.53462" lon="3.52996">
        <ele>194.5</ele>
        <time>2015-08-15T16:33:47.754Z</time>
      </trkpt>
      <trkpt lat="49.5346" lon="3.52996">
        <ele>194.3</ele>
        <time>2015-08-15T16:33:48.634Z</time>
      </trkpt>
      <trkpt lat="49.53453" lon="3.53002">
        <ele>193.3</ele>
        <time>2015-08-15T16:33:54.757Z</time>
      </trkpt>
      <trkpt lat="49.53452" lon="3.53004">
        <ele>192.9</ele>
        <time>2015-08-15T16:33:55.734Z</time>
      </trkpt>
      <trkpt lat="49.53446" lon="3.53013">
        <ele>191.3</ele>
        <time>2015-08-15T16:34:01.716Z</time>
      </trkpt>
      <trkpt lat="49.53445" lon="3.53015">
        <ele>190.8</ele>
        <time>2015-08-15T16:34:02.694Z</time>
      </trkpt>
      <trkpt lat="49.5344" lon="3.53024">
        <ele>189.9</ele>
        <time>2015-08-15T16:34:08.672Z</time>
      </trkpt>
      <trkpt lat="49.53439" lon="3.53025">
        <ele>189.8</ele>
        <time>2015-08-15T16:34:09.635Z</time>
      </trkpt>
      <trkpt lat="49.53438" lon="3.53026">
        <ele>189.8</ele>
        <time>2015-08-15T16:34:10.698Z</time>
      </trkpt>
      <trkpt lat="49.53438" lon="3.53027">
        <ele>189.7</ele>
        <time>2015-08-15T16:34:11.648Z</time>
      </trkpt>
      <trkpt lat="49.53439" lon="3.53029">
        <ele>189.5</ele>
        <time>2015-08-15T16:34:14.722Z</time>
      </trkpt>
      <trkpt lat="49.53439" lon="3.53028">
        <ele>189.4</ele>
        <time>2015-08-15T16:34:15.704Z</time>
      </trkpt>
      <trkpt lat="49.53431" lon="3.53029">
        <ele>189.3</ele>
        <time>2015-08-15T16:34:21.678Z</time>
      </trkpt>
      <trkpt lat="49.53429" lon="3.5303">
        <ele>189.2</ele>
        <time>2015-08-15T16:34:22.644Z</time>
      </trkpt>
      <trkpt lat="49.53421" lon="3.53036">
        <ele>189.6</ele>
        <time>2015-08-15T16:34:30.694Z</time>
      </trkpt>
      <trkpt lat="49.53421" lon="3.53037">
        <ele>189.3</ele>
        <time>2015-08-15T16:34:31.697Z</time>
      </trkpt>
      <trkpt lat="49.53414" lon="3.53046">
        <ele>187.3</ele>
        <time>2015-08-15T16:34:37.777Z</time>
      </trkpt>
      <trkpt lat="49.53413" lon="3.53047">
        <ele>187.3</ele>
        <time>2015-08-15T16:34:38.643Z</time>
      </trkpt>
      <trkpt lat="49.53408" lon="3.53057">
        <ele>185.8</ele>
        <time>2015-08-15T16:34:44.740Z</time>
      </trkpt>
      <trkpt lat="49.53407" lon="3.53058">
        <ele>185.4</ele>
        <time>2015-08-15T16:34:45.714Z</time>
      </trkpt>
      <trkpt lat="49.53402" lon="3.53069">
        <ele>184.4</ele>
        <time>2015-08-15T16:34:52.667Z</time>
      </trkpt>
      <trkpt lat="49.53401" lon="3.5307">
        <ele>184.1</ele>
        <time>2015-08-15T16:34:53.657Z</time>
      </trkpt>
      <trkpt lat="49.53395" lon="3.53081">
        <ele>182</ele>
        <time>2015-08-15T16:34:59.771Z</time>
      </trkpt>
      <trkpt lat="49.53395" lon="3.53083">
        <ele>181.9</ele>
        <time>2015-08-15T16:35:00.725Z</time>
      </trkpt>
      <trkpt lat="49.53389" lon="3.53093">
        <ele>180.6</ele>
        <time>2015-08-15T16:35:06.697Z</time>
      </trkpt>
      <trkpt lat="49.53388" lon="3.53094">
        <ele>180.5</ele>
        <time>2015-08-15T16:35:07.696Z</time>
      </trkpt>
      <trkpt lat="49.53381" lon="3.53102">
        <ele>180.2</ele>
        <time>2015-08-15T16:35:14.676Z</time>
      </trkpt>
      <trkpt lat="49.5338" lon="3.53103">
        <ele>180.3</ele>
        <time>2015-08-15T16:35:15.648Z</time>
      </trkpt>
      <trkpt lat="49.53373" lon="3.53112">
        <ele>179.8</ele>
        <time>2015-08-15T16:35:23.732Z</time>
      </trkpt>
      <trkpt lat="49.53372" lon="3.53113">
        <ele>179.8</ele>
        <time>2015-08-15T16:35:24.724Z</time>
      </trkpt>
      <trkpt lat="49.53366" lon="3.53122">
        <ele>179.5</ele>
        <time>2015-08-15T16:35:32.726Z</time>
      </trkpt>
      <trkpt lat="49.53365" lon="3.53123">
        <ele>179.5</ele>
        <time>2015-08-15T16:35:33.704Z</time>
      </trkpt>
      <trkpt lat="49.53359" lon="3.53132">
        <ele>179.4</ele>
        <time>2015-08-15T16:35:41.740Z</time>
      </trkpt>
      <trkpt lat="49.53358" lon="3.53133">
        <ele>179.5</ele>
        <time>2015-08-15T16:35:42.715Z</time>
      </trkpt>
      <trkpt lat="49.5335" lon="3.53139">
        <ele>179.1</ele>
        <time>2015-08-15T16:35:50.723Z</time>
      </trkpt>
      <trkpt lat="49.5335" lon="3.5314">
        <ele>178.8</ele>
        <time>2015-08-15T16:35:51.689Z</time>
      </trkpt>
      <trkpt lat="49.53342" lon="3.53146">
        <ele>178.7</ele>
        <time>2015-08-15T16:35:59.679Z</time>
      </trkpt>
      <trkpt lat="49.5334" lon="3.53146">
        <ele>178.8</ele>
        <time>2015-08-15T16:36:00.645Z</time>
      </trkpt>
      <trkpt lat="49.53333" lon="3.53153">
        <ele>178.6</ele>
        <time>2015-08-15T16:36:06.677Z</time>
      </trkpt>
      <trkpt lat="49.53332" lon="3.53155">
        <ele>178.6</ele>
        <time>2015-08-15T16:36:07.680Z</time>
      </trkpt>
      <trkpt lat="49.53324" lon="3.5316">
        <ele>178.4</ele>
        <time>2015-08-15T16:36:14.671Z</time>
      </trkpt>
      <trkpt lat="49.53323" lon="3.53161">
        <ele>178.1</ele>
        <time>2015-08-15T16:36:15.644Z</time>
      </trkpt>
      <trkpt lat="49.53317" lon="3.53167">
        <ele>177.4</ele>
        <time>2015-08-15T16:36:21.758Z</time>
      </trkpt>
      <trkpt lat="49.53316" lon="3.53168">
        <ele>177</ele>
        <time>2015-08-15T16:36:22.723Z</time>
      </trkpt>
      <trkpt lat="49.53309" lon="3.53176">
        <ele>176</ele>
        <time>2015-08-15T16:36:28.685Z</time>
      </trkpt>
      <trkpt lat="49.53308" lon="3.53177">
        <ele>175.9</ele>
        <time>2015-08-15T16:36:29.668Z</time>
      </trkpt>
      <trkpt lat="49.53301" lon="3.53184">
        <ele>175.1</ele>
        <time>2015-08-15T16:36:37.730Z</time>
      </trkpt>
      <trkpt lat="49.533" lon="3.53185">
        <ele>175.1</ele>
        <time>2015-08-15T16:36:38.697Z</time>
      </trkpt>
      <trkpt lat="49.53293" lon="3.53192">
        <ele>173.2</ele>
        <time>2015-08-15T16:36:45.663Z</time>
      </trkpt>
      <trkpt lat="49.53292" lon="3.53193">
        <ele>172.9</ele>
        <time>2015-08-15T16:36:46.655Z</time>
      </trkpt>
      <trkpt lat="49.53285" lon="3.532">
        <ele>171.9</ele>
        <time>2015-08-15T16:36:52.755Z</time>
      </trkpt>
      <trkpt lat="49.53284" lon="3.532">
        <ele>171.9</ele>
        <time>2015-08-15T16:36:53.721Z</time>
      </trkpt>
      <trkpt lat="49.53279" lon="3.53209">
        <ele>169.9</ele>
        <time>2015-08-15T16:36:59.687Z</time>
      </trkpt>
      <trkpt lat="49.53278" lon="3.53212">
        <ele>169.6</ele>
        <time>2015-08-15T16:37:00.657Z</time>
      </trkpt>
      <trkpt lat="49.53273" lon="3.53223">
        <ele>168.2</ele>
        <time>2015-08-15T16:37:06.756Z</time>
      </trkpt>
      <trkpt lat="49.53272" lon="3.53225">
        <ele>168</ele>
        <time>2015-08-15T16:37:07.743Z</time>
      </trkpt>
      <trkpt lat="49.53266" lon="3.53234">
        <ele>166.2</ele>
        <time>2015-08-15T16:37:13.755Z</time>
      </trkpt>
      <trkpt lat="49.53265" lon="3.53235">
        <ele>165.9</ele>
        <time>2015-08-15T16:37:14.716Z</time>
      </trkpt>
      <trkpt lat="49.5326" lon="3.53246">
        <ele>165</ele>
        <time>2015-08-15T16:37:20.703Z</time>
      </trkpt>
      <trkpt lat="49.5326" lon="3.53247">
        <ele>164.7</ele>
        <time>2015-08-15T16:37:21.687Z</time>
      </trkpt>
      <trkpt lat="49.53253" lon="3.53255">
        <ele>164.6</ele>
        <time>2015-08-15T16:37:27.674Z</time>
      </trkpt>
      <trkpt lat="49.53252" lon="3.53256">
        <ele>164.6</ele>
        <time>2015-08-15T16:37:28.650Z</time>
      </trkpt>
      <trkpt lat="49.53246" lon="3.53265">
        <ele>164.4</ele>
        <time>2015-08-15T16:37:35.693Z</time>
      </trkpt>
      <trkpt lat="49.53245" lon="3.53266">
        <ele>164.4</ele>
        <time>2015-08-15T16:37:36.661Z</time>
      </trkpt>
      <trkpt lat="49.53239" lon="3.53276">
        <ele>164.1</ele>
        <time>2015-08-15T16:37:43.751Z</time>
      </trkpt>
      <trkpt lat="49.53238" lon="3.53277">
        <ele>164.2</ele>
        <time>2015-08-15T16:37:44.732Z</time>
      </trkpt>
      <trkpt lat="49.53232" lon="3.53285">
        <ele>164.3</ele>
        <time>2015-08-15T16:37:50.745Z</time>
      </trkpt>
      <trkpt lat="49.53231" lon="3.53286">
        <ele>164.2</ele>
        <time>2015-08-15T16:37:51.703Z</time>
      </trkpt>
      <trkpt lat="49.53225" lon="3.53295">
        <ele>163.8</ele>
        <time>2015-08-15T16:37:58.693Z</time>
      </trkpt>
      <trkpt lat="49.53224" lon="3.53297">
        <ele>164.1</ele>
        <time>2015-08-15T16:37:59.652Z</time>
      </trkpt>
      <trkpt lat="49.53217" lon="3.53305">
        <ele>163.5</ele>
        <time>2015-08-15T16:38:06.757Z</time>
      </trkpt>
      <trkpt lat="49.53216" lon="3.53306">
        <ele>163.3</ele>
        <time>2015-08-15T16:38:07.733Z</time>
      </trkpt>
      <trkpt lat="49.53212" lon="3.53312">
        <ele>163</ele>
        <time>2015-08-15T16:38:14.746Z</time>
      </trkpt>
      <trkpt lat="49.53211" lon="3.53312">
        <ele>161.8</ele>
        <time>2015-08-15T16:38:15.726Z</time>
      </trkpt>
      <trkpt lat="49.53211" lon="3.53312">
        <ele>161.8</ele>
        <time>2015-08-15T16:38:15.755Z</time>
      </trkpt>
      <trkpt lat="49.53211" lon="3.53312">
        <ele>161.9</ele>
        <time>2015-08-15T16:38:16.730Z</time>
      </trkpt>
      <trkpt lat="49.53203" lon="3.53318">
        <ele>162.6</ele>
        <time>2015-08-15T16:38:24.671Z</time>
      </trkpt>
      <trkpt lat="49.53202" lon="3.53318">
        <ele>162.5</ele>
        <time>2015-08-15T16:38:25.751Z</time>
      </trkpt>
      <trkpt lat="49.53195" lon="3.53327">
        <ele>162.5</ele>
        <time>2015-08-15T16:38:32.742Z</time>
      </trkpt>
      <trkpt lat="49.53195" lon="3.53328">
        <ele>162.6</ele>
        <time>2015-08-15T16:38:33.716Z</time>
      </trkpt>
      <trkpt lat="49.5319" lon="3.53337">
        <ele>162.5</ele>
        <time>2015-08-15T16:38:39.737Z</time>
      </trkpt>
      <trkpt lat="49.53188" lon="3.53338">
        <ele>162.2</ele>
        <time>2015-08-15T16:38:40.726Z</time>
      </trkpt>
      <trkpt lat="49.53183" lon="3.53346">
        <ele>162</ele>
        <time>2015-08-15T16:38:45.667Z</time>
      </trkpt>
      <trkpt lat="49.53182" lon="3.53348">
        <ele>162</ele>
        <time>2015-08-15T16:38:46.665Z</time>
      </trkpt>
      <trkpt lat="49.53177" lon="3.53358">
        <ele>161.8</ele>
        <time>2015-08-15T16:38:52.658Z</time>
      </trkpt>
      <trkpt lat="49.53176" lon="3.5336">
        <ele>161.8</ele>
        <time>2015-08-15T16:38:53.640Z</time>
      </trkpt>
      <trkpt lat="49.5317" lon="3.53368">
        <ele>161.3</ele>
        <time>2015-08-15T16:38:59.738Z</time>
      </trkpt>
      <trkpt lat="49.53169" lon="3.53369">
        <ele>161.3</ele>
        <time>2015-08-15T16:39:00.709Z</time>
      </trkpt>
      <trkpt lat="49.53163" lon="3.53379">
        <ele>161.1</ele>
        <time>2015-08-15T16:39:07.721Z</time>
      </trkpt>
      <trkpt lat="49.53162" lon="3.5338">
        <ele>161</ele>
        <time>2015-08-15T16:39:08.683Z</time>
      </trkpt>
      <trkpt lat="49.53156" lon="3.53389">
        <ele>161</ele>
        <time>2015-08-15T16:39:14.753Z</time>
      </trkpt>
      <trkpt lat="49.53156" lon="3.53391">
        <ele>161.2</ele>
        <time>2015-08-15T16:39:15.708Z</time>
      </trkpt>
      <trkpt lat="49.53151" lon="3.53402">
        <ele>162</ele>
        <time>2015-08-15T16:39:25.726Z</time>
      </trkpt>
      <trkpt lat="49.53151" lon="3.53404">
        <ele>162.1</ele>
        <time>2015-08-15T16:39:26.690Z</time>
      </trkpt>
      <trkpt lat="49.53146" lon="3.53414">
        <ele>162.2</ele>
        <time>2015-08-15T16:39:32.781Z</time>
      </trkpt>
      <trkpt lat="49.53145" lon="3.53416">
        <ele>162.1</ele>
        <time>2015-08-15T16:39:33.643Z</time>
      </trkpt>
      <trkpt lat="49.53142" lon="3.53426">
        <ele>161.9</ele>
        <time>2015-08-15T16:39:39.762Z</time>
      </trkpt>
      <trkpt lat="49.53141" lon="3.53428">
        <ele>161.8</ele>
        <time>2015-08-15T16:39:40.727Z</time>
      </trkpt>
      <trkpt lat="49.53137" lon="3.5344">
        <ele>162.1</ele>
        <time>2015-08-15T16:39:50.673Z</time>
      </trkpt>
      <trkpt lat="49.53136" lon="3.53441">
        <ele>162.1</ele>
        <time>2015-08-15T16:39:51.638Z</time>
      </trkpt>
      <trkpt lat="49.53131" lon="3.5345">
        <ele>161.9</ele>
        <time>2015-08-15T16:39:57.716Z</time>
      </trkpt>
      <trkpt lat="49.5313" lon="3.53452">
        <ele>162</ele>
        <time>2015-08-15T16:39:58.691Z</time>
      </trkpt>
      <trkpt lat="49.53125" lon="3.53462">
        <ele>161.5</ele>
        <time>2015-08-15T16:40:05.714Z</time>
      </trkpt>
      <trkpt lat="49.53124" lon="3.53463">
        <ele>161.4</ele>
        <time>2015-08-15T16:40:06.685Z</time>
      </trkpt>
      <trkpt lat="49.53118" lon="3.53474">
        <ele>160.5</ele>
        <time>2015-08-15T16:40:13.748Z</time>
      </trkpt>
      <trkpt lat="49.53117" lon="3.53476">
        <ele>160.4</ele>
        <time>2015-08-15T16:40:14.713Z</time>
      </trkpt>
      <trkpt lat="49.53113" lon="3.53487">
        <ele>160.3</ele>
        <time>2015-08-15T16:40:21.731Z</time>
      </trkpt>
      <trkpt lat="49.53113" lon="3.53489">
        <ele>160.3</ele>
        <time>2015-08-15T16:40:22.719Z</time>
      </trkpt>
      <trkpt lat="49.53111" lon="3.53501">
        <ele>160.2</ele>
        <time>2015-08-15T16:40:29.752Z</time>
      </trkpt>
      <trkpt lat="49.53111" lon="3.53502">
        <ele>160</ele>
        <time>2015-08-15T16:40:30.720Z</time>
      </trkpt>
      <trkpt lat="49.5311" lon="3.53515">
        <ele>160</ele>
        <time>2015-08-15T16:40:38.722Z</time>
      </trkpt>
      <trkpt lat="49.53109" lon="3.53517">
        <ele>159.7</ele>
        <time>2015-08-15T16:40:39.691Z</time>
      </trkpt>
      <trkpt lat="49.5311" lon="3.5353">
        <ele>159.9</ele>
        <time>2015-08-15T16:40:50.712Z</time>
      </trkpt>
      <trkpt lat="49.5311" lon="3.53532">
        <ele>159.9</ele>
        <time>2015-08-15T16:40:51.690Z</time>
      </trkpt>
      <trkpt lat="49.53107" lon="3.53544">
        <ele>159</ele>
        <time>2015-08-15T16:40:58.669Z</time>
      </trkpt>
      <trkpt lat="49.53107" lon="3.53545">
        <ele>158.9</ele>
        <time>2015-08-15T16:40:59.649Z</time>
      </trkpt>
      <trkpt lat="49.53102" lon="3.53556">
        <ele>158.2</ele>
        <time>2015-08-15T16:41:06.731Z</time>
      </trkpt>
      <trkpt lat="49.53101" lon="3.53557">
        <ele>158.1</ele>
        <time>2015-08-15T16:41:07.717Z</time>
      </trkpt>
      <trkpt lat="49.53096" lon="3.53567">
        <ele>158.2</ele>
        <time>2015-08-15T16:41:13.711Z</time>
      </trkpt>
      <trkpt lat="49.53096" lon="3.53568">
        <ele>158.3</ele>
        <time>2015-08-15T16:41:14.693Z</time>
      </trkpt>
      <trkpt lat="49.53092" lon="3.53579">
        <ele>158</ele>
        <time>2015-08-15T16:41:20.653Z</time>
      </trkpt>
      <trkpt lat="49.53091" lon="3.5358">
        <ele>158</ele>
        <time>2015-08-15T16:41:21.637Z</time>
      </trkpt>
      <trkpt lat="49.53085" lon="3.5359">
        <ele>157.4</ele>
        <time>2015-08-15T16:41:28.752Z</time>
      </trkpt>
      <trkpt lat="49.53084" lon="3.53591">
        <ele>157.3</ele>
        <time>2015-08-15T16:41:29.713Z</time>
      </trkpt>
      <trkpt lat="49.53079" lon="3.53601">
        <ele>157</ele>
        <time>2015-08-15T16:41:35.699Z</time>
      </trkpt>
      <trkpt lat="49.53078" lon="3.53603">
        <ele>157</ele>
        <time>2015-08-15T16:41:36.657Z</time>
      </trkpt>
      <trkpt lat="49.53074" lon="3.53613">
        <ele>156.6</ele>
        <time>2015-08-15T16:41:43.751Z</time>
      </trkpt>
      <trkpt lat="49.53073" lon="3.53614">
        <ele>156.6</ele>
        <time>2015-08-15T16:41:44.720Z</time>
      </trkpt>
      <trkpt lat="49.53066" lon="3.53622">
        <ele>156.3</ele>
        <time>2015-08-15T16:41:50.720Z</time>
      </trkpt>
      <trkpt lat="49.53065" lon="3.53624">
        <ele>156.4</ele>
        <time>2015-08-15T16:41:51.672Z</time>
      </trkpt>
      <trkpt lat="49.53062" lon="3.53636">
        <ele>156.4</ele>
        <time>2015-08-15T16:41:58.721Z</time>
      </trkpt>
      <trkpt lat="49.53061" lon="3.53637">
        <ele>156.2</ele>
        <time>2015-08-15T16:41:59.699Z</time>
      </trkpt>
      <trkpt lat="49.53057" lon="3.53649">
        <ele>155.5</ele>
        <time>2015-08-15T16:42:06.712Z</time>
      </trkpt>
      <trkpt lat="49.53056" lon="3.5365">
        <ele>155.4</ele>
        <time>2015-08-15T16:42:07.688Z</time>
      </trkpt>
      <trkpt lat="49.5305" lon="3.5366">
        <ele>155</ele>
        <time>2015-08-15T16:42:14.729Z</time>
      </trkpt>
      <trkpt lat="49.5305" lon="3.53661">
        <ele>155.2</ele>
        <time>2015-08-15T16:42:15.702Z</time>
      </trkpt>
      <trkpt lat="49.53044" lon="3.53671">
        <ele>155.2</ele>
        <time>2015-08-15T16:42:23.767Z</time>
      </trkpt>
      <trkpt lat="49.53043" lon="3.53672">
        <ele>155.2</ele>
        <time>2015-08-15T16:42:24.642Z</time>
      </trkpt>
      <trkpt lat="49.53037" lon="3.53681">
        <ele>154.2</ele>
        <time>2015-08-15T16:42:31.770Z</time>
      </trkpt>
      <trkpt lat="49.53036" lon="3.53683">
        <ele>153.7</ele>
        <time>2015-08-15T16:42:32.640Z</time>
      </trkpt>
      <trkpt lat="49.53029" lon="3.53692">
        <ele>151.8</ele>
        <time>2015-08-15T16:42:39.727Z</time>
      </trkpt>
      <trkpt lat="49.53029" lon="3.53693">
        <ele>151.5</ele>
        <time>2015-08-15T16:42:40.701Z</time>
      </trkpt>
      <trkpt lat="49.53024" lon="3.53703">
        <ele>151</ele>
        <time>2015-08-15T16:42:46.751Z</time>
      </trkpt>
      <trkpt lat="49.53023" lon="3.53705">
        <ele>151</ele>
        <time>2015-08-15T16:42:47.709Z</time>
      </trkpt>
      <trkpt lat="49.53019" lon="3.53716">
        <ele>150.8</ele>
        <time>2015-08-15T16:42:54.698Z</time>
      </trkpt>
      <trkpt lat="49.53018" lon="3.53718">
        <ele>150.7</ele>
        <time>2015-08-15T16:42:55.702Z</time>
      </trkpt>
      <trkpt lat="49.53016" lon="3.5373">
        <ele>150.6</ele>
        <time>2015-08-15T16:43:02.674Z</time>
      </trkpt>
      <trkpt lat="49.53016" lon="3.53732">
        <ele>150.9</ele>
        <time>2015-08-15T16:43:03.650Z</time>
      </trkpt>
      <trkpt lat="49.53014" lon="3.53744">
        <ele>150.7</ele>
        <time>2015-08-15T16:43:09.739Z</time>
      </trkpt>
      <trkpt lat="49.53014" lon="3.53746">
        <ele>150.7</ele>
        <time>2015-08-15T16:43:10.716Z</time>
      </trkpt>
      <trkpt lat="49.53012" lon="3.53758">
        <ele>150.3</ele>
        <time>2015-08-15T16:43:17.677Z</time>
      </trkpt>
      <trkpt lat="49.53011" lon="3.5376">
        <ele>150.5</ele>
        <time>2015-08-15T16:43:18.665Z</time>
      </trkpt>
      <trkpt lat="49.53009" lon="3.53772">
        <ele>150.4</ele>
        <time>2015-08-15T16:43:24.769Z</time>
      </trkpt>
      <trkpt lat="49.53009" lon="3.53773">
        <ele>150.4</ele>
        <time>2015-08-15T16:43:25.740Z</time>
      </trkpt>
      <trkpt lat="49.53008" lon="3.53786">
        <ele>150.4</ele>
        <time>2015-08-15T16:43:35.688Z</time>
      </trkpt>
      <trkpt lat="49.53007" lon="3.53787">
        <ele>150.4</ele>
        <time>2015-08-15T16:43:36.675Z</time>
      </trkpt>
      <trkpt lat="49.53006" lon="3.53789">
        <ele>150.7</ele>
        <time>2015-08-15T16:43:38.740Z</time>
      </trkpt>
      <trkpt lat="49.53006" lon="3.53789">
        <ele>150.7</ele>
        <time>2015-08-15T16:43:39.706Z</time>
      </trkpt>
      <trkpt lat="49.53006" lon="3.53789">
        <ele>150.7</ele>
        <time>2015-08-15T16:43:42.777Z</time>
      </trkpt>
      <trkpt lat="49.53007" lon="3.5379">
        <ele>150.7</ele>
        <time>2015-08-15T16:43:43.747Z</time>
      </trkpt>
      <trkpt lat="49.53003" lon="3.53801">
        <ele>151.3</ele>
        <time>2015-08-15T16:43:57.671Z</time>
      </trkpt>
      <trkpt lat="49.53002" lon="3.53802">
        <ele>151.4</ele>
        <time>2015-08-15T16:43:58.644Z</time>
      </trkpt>
      <trkpt lat="49.53001" lon="3.53807">
        <ele>151.6</ele>
        <time>2015-08-15T16:44:02.670Z</time>
      </trkpt>
      <trkpt lat="49.53001" lon="3.53808">
        <ele>151.9</ele>
        <time>2015-08-15T16:44:03.641Z</time>
      </trkpt>
      <trkpt lat="49.53" lon="3.53808">
        <ele>152.3</ele>
        <time>2015-08-15T16:44:05.673Z</time>
      </trkpt>
      <trkpt lat="49.53" lon="3.53809">
        <ele>152.2</ele>
        <time>2015-08-15T16:44:06.676Z</time>
      </trkpt>
      <trkpt lat="49.52995" lon="3.53821">
        <ele>150.6</ele>
        <time>2015-08-15T16:44:15.748Z</time>
      </trkpt>
      <trkpt lat="49.52995" lon="3.53822">
        <ele>150.4</ele>
        <time>2015-08-15T16:44:16.646Z</time>
      </trkpt>
      <trkpt lat="49.5299" lon="3.53832">
        <ele>149.2</ele>
        <time>2015-08-15T16:44:23.744Z</time>
      </trkpt>
      <trkpt lat="49.52989" lon="3.53833">
        <ele>149.1</ele>
        <time>2015-08-15T16:44:24.719Z</time>
      </trkpt>
      <trkpt lat="49.52984" lon="3.53844">
        <ele>148.6</ele>
        <time>2015-08-15T16:44:32.761Z</time>
      </trkpt>
      <trkpt lat="49.52984" lon="3.53845">
        <ele>148.4</ele>
        <time>2015-08-15T16:44:33.762Z</time>
      </trkpt>
      <trkpt lat="49.5298" lon="3.53855">
        <ele>148.2</ele>
        <time>2015-08-15T16:44:40.738Z</time>
      </trkpt>
      <trkpt lat="49.52979" lon="3.53857">
        <ele>148.2</ele>
        <time>2015-08-15T16:44:41.724Z</time>
      </trkpt>
      <trkpt lat="49.52974" lon="3.53867">
        <ele>147.8</ele>
        <time>2015-08-15T16:44:48.826Z</time>
      </trkpt>
      <trkpt lat="49.52974" lon="3.53868">
        <ele>147.7</ele>
        <time>2015-08-15T16:44:49.735Z</time>
      </trkpt>
      <trkpt lat="49.52968" lon="3.53879">
        <ele>147.6</ele>
        <time>2015-08-15T16:44:57.694Z</time>
      </trkpt>
      <trkpt lat="49.52967" lon="3.5388">
        <ele>147.7</ele>
        <time>2015-08-15T16:44:58.672Z</time>
      </trkpt>
      <trkpt lat="49.52962" lon="3.53889">
        <ele>147</ele>
        <time>2015-08-15T16:45:00.421Z</time>
      </trkpt>
      <trkpt lat="49.52961" lon="3.53891">
        <ele>146.4</ele>
        <time>2015-08-15T16:45:05.671Z</time>
      </trkpt>
      <trkpt lat="49.52957" lon="3.53902">
        <ele>146.2</ele>
        <time>2015-08-15T16:45:11.756Z</time>
      </trkpt>
      <trkpt lat="49.52956" lon="3.53903">
        <ele>146.3</ele>
        <time>2015-08-15T16:45:12.785Z</time>
      </trkpt>
      <trkpt lat="49.52951" lon="3.53914">
        <ele>146.7</ele>
        <time>2015-08-15T16:45:15.480Z</time>
      </trkpt>
      <trkpt lat="49.5295" lon="3.53916">
        <ele>146.7</ele>
        <time>2015-08-15T16:45:20.717Z</time>
      </trkpt>
      <trkpt lat="49.52945" lon="3.53927">
        <ele>147.2</ele>
        <time>2015-08-15T16:45:25.713Z</time>
      </trkpt>
      <trkpt lat="49.52944" lon="3.53927">
        <ele>147.1</ele>
        <time>2015-08-15T16:45:30.645Z</time>
      </trkpt>
      <trkpt lat="49.52935" lon="3.53929">
        <ele>146.3</ele>
        <time>2015-08-15T16:45:39.862Z</time>
      </trkpt>
      <trkpt lat="49.52934" lon="3.5393">
        <ele>146.4</ele>
        <time>2015-08-15T16:45:40.716Z</time>
      </trkpt>
      <trkpt lat="49.52927" lon="3.53935">
        <ele>144</ele>
        <time>2015-08-15T16:46:05.550Z</time>
      </trkpt>
      <trkpt lat="49.52926" lon="3.53936">
        <ele>143.9</ele>
        <time>2015-08-15T16:46:10.634Z</time>
      </trkpt>
      <trkpt lat="49.52922" lon="3.53947">
        <ele>143.6</ele>
        <time>2015-08-15T16:46:18.661Z</time>
      </trkpt>
      <trkpt lat="49.52922" lon="3.53948">
        <ele>143.5</ele>
        <time>2015-08-15T16:46:19.680Z</time>
      </trkpt>
      <trkpt lat="49.52921" lon="3.53962">
        <ele>143.5</ele>
        <time>2015-08-15T16:46:27.669Z</time>
      </trkpt>
      <trkpt lat="49.52921" lon="3.53963">
        <ele>143.6</ele>
        <time>2015-08-15T16:46:28.652Z</time>
      </trkpt>
      <trkpt lat="49.52926" lon="3.53974">
        <ele>143.9</ele>
        <time>2015-08-15T16:46:35.689Z</time>
      </trkpt>
      <trkpt lat="49.52927" lon="3.53975">
        <ele>144</ele>
        <time>2015-08-15T16:46:36.652Z</time>
      </trkpt>
      <trkpt lat="49.52929" lon="3.53981">
        <ele>143.9</ele>
        <time>2015-08-15T16:46:41.762Z</time>
      </trkpt>
      <trkpt lat="49.5293" lon="3.53981">
        <ele>144</ele>
        <time>2015-08-15T16:46:42.721Z</time>
      </trkpt>
      <trkpt lat="49.5293" lon="3.53981">
        <ele>144.2</ele>
        <time>2015-08-15T16:47:06.742Z</time>
      </trkpt>
      <trkpt lat="49.52929" lon="3.53986">
        <ele>144.5</ele>
        <time>2015-08-15T16:47:07.713Z</time>
      </trkpt>
      <trkpt lat="49.52929" lon="3.53986">
        <ele>144.7</ele>
        <time>2015-08-15T16:47:08.756Z</time>
      </trkpt>
      <trkpt lat="49.52928" lon="3.53986">
        <ele>144.8</ele>
        <time>2015-08-15T16:47:09.723Z</time>
      </trkpt>
      <trkpt lat="49.52928" lon="3.53986">
        <ele>144.8</ele>
        <time>2015-08-15T16:47:05.446Z</time>
      </trkpt>
      <trkpt lat="49.52928" lon="3.53987">
        <ele>144.8</ele>
        <time>2015-08-15T16:47:10.736Z</time>
      </trkpt>
      <trkpt lat="49.52922" lon="3.53997">
        <ele>143.7</ele>
        <time>2015-08-15T16:47:18.700Z</time>
      </trkpt>
      <trkpt lat="49.52922" lon="3.53999">
        <ele>143.6</ele>
        <time>2015-08-15T16:47:19.696Z</time>
      </trkpt>
      <trkpt lat="49.52917" lon="3.5401">
        <ele>143.5</ele>
        <time>2015-08-15T16:47:26.672Z</time>
      </trkpt>
      <trkpt lat="49.52916" lon="3.54011">
        <ele>143.8</ele>
        <time>2015-08-15T16:47:27.645Z</time>
      </trkpt>
      <trkpt lat="49.52911" lon="3.54023">
        <ele>144</ele>
        <time>2015-08-15T16:47:35.695Z</time>
      </trkpt>
      <trkpt lat="49.5291" lon="3.54024">
        <ele>144.1</ele>
        <time>2015-08-15T16:47:36.675Z</time>
      </trkpt>
      <trkpt lat="49.52906" lon="3.54034">
        <ele>144.2</ele>
        <time>2015-08-15T16:47:42.783Z</time>
      </trkpt>
      <trkpt lat="49.52905" lon="3.54036">
        <ele>144.2</ele>
        <time>2015-08-15T16:47:43.763Z</time>
      </trkpt>
      <trkpt lat="49.529" lon="3.54046">
        <ele>144</ele>
        <time>2015-08-15T16:47:50.854Z</time>
      </trkpt>
      <trkpt lat="49.529" lon="3.54047">
        <ele>143.9</ele>
        <time>2015-08-15T16:47:51.738Z</time>
      </trkpt>
      <trkpt lat="49.52894" lon="3.54055">
        <ele>143.8</ele>
        <time>2015-08-15T16:47:58.769Z</time>
      </trkpt>
      <trkpt lat="49.52893" lon="3.54056">
        <ele>143.7</ele>
        <time>2015-08-15T16:47:59.693Z</time>
      </trkpt>
      <trkpt lat="49.52886" lon="3.54063">
        <ele>143.7</ele>
        <time>2015-08-15T16:48:06.694Z</time>
      </trkpt>
      <trkpt lat="49.52886" lon="3.54064">
        <ele>143.5</ele>
        <time>2015-08-15T16:48:07.697Z</time>
      </trkpt>
      <trkpt lat="49.52885" lon="3.54064">
        <ele>143.4</ele>
        <time>2015-08-15T16:48:08.735Z</time>
      </trkpt>
      <trkpt lat="49.52884" lon="3.54065">
        <ele>143.3</ele>
        <time>2015-08-15T16:48:09.706Z</time>
      </trkpt>
      <trkpt lat="49.52884" lon="3.54065">
        <ele>143.3</ele>
        <time>2015-08-15T16:48:10.754Z</time>
      </trkpt>
      <trkpt lat="49.52883" lon="3.54065">
        <ele>143.4</ele>
        <time>2015-08-15T16:48:11.719Z</time>
      </trkpt>
      <trkpt lat="49.52883" lon="3.54078">
        <ele>143</ele>
        <time>2015-08-15T16:48:32.661Z</time>
      </trkpt>
      <trkpt lat="49.52883" lon="3.5408">
        <ele>142.9</ele>
        <time>2015-08-15T16:48:33.644Z</time>
      </trkpt>
      <trkpt lat="49.52882" lon="3.54079">
        <ele>142.8</ele>
        <time>2015-08-15T16:48:51.740Z</time>
      </trkpt>
      <trkpt lat="49.52881" lon="3.54078">
        <ele>142.9</ele>
        <time>2015-08-15T16:48:52.706Z</time>
      </trkpt>
      <trkpt lat="49.52881" lon="3.54078">
        <ele>143</ele>
        <time>2015-08-15T16:50:29.826Z</time>
      </trkpt>
      <trkpt lat="49.5288" lon="3.5408">
        <ele>137.9</ele>
        <time>2015-08-15T16:50:30.696Z</time>
      </trkpt>
      <trkpt lat="49.52879" lon="3.54076">
        <ele>137.8</ele>
        <time>2015-08-15T16:50:35.712Z</time>
      </trkpt>
      <trkpt lat="49.5288" lon="3.54076">
        <ele>137.5</ele>
        <time>2015-08-15T16:50:36.709Z</time>
      </trkpt>
      <trkpt lat="49.52879" lon="3.54076">
        <ele>137.4</ele>
        <time>2015-08-15T16:50:38.676Z</time>
      </trkpt>
      <trkpt lat="49.52879" lon="3.54075">
        <ele>137.3</ele>
        <time>2015-08-15T16:50:39.679Z</time>
      </trkpt>
      <trkpt lat="49.52876" lon="3.54062">
        <ele>137.5</ele>
        <time>2015-08-15T16:51:29.740Z</time>
      </trkpt>
      <trkpt lat="49.52875" lon="3.54062">
        <ele>137.6</ele>
        <time>2015-08-15T16:51:30.714Z</time>
      </trkpt>
      <trkpt lat="49.52872" lon="3.54062">
        <ele>137.7</ele>
        <time>2015-08-15T16:51:33.667Z</time>
      </trkpt>
      <trkpt lat="49.52872" lon="3.54062">
        <ele>137.9</ele>
        <time>2015-08-15T16:51:34.645Z</time>
      </trkpt>
      <trkpt lat="49.52872" lon="3.54062">
        <ele>138.1</ele>
        <time>2015-08-15T16:51:43.755Z</time>
      </trkpt>
      <trkpt lat="49.5287" lon="3.5406">
        <ele>139.1</ele>
        <time>2015-08-15T16:51:44.732Z</time>
      </trkpt>
      <trkpt lat="49.5287" lon="3.54061">
        <ele>139.1</ele>
        <time>2015-08-15T16:51:45.692Z</time>
      </trkpt>
      <trkpt lat="49.5287" lon="3.54061">
        <ele>139.1</ele>
        <time>2015-08-15T16:51:46.656Z</time>
      </trkpt>
      <trkpt lat="49.5287" lon="3.54062">
        <ele>139.1</ele>
        <time>2015-08-15T16:51:52.666Z</time>
      </trkpt>
      <trkpt lat="49.52871" lon="3.54063">
        <ele>139.1</ele>
        <time>2015-08-15T16:51:53.645Z</time>
      </trkpt>
      <trkpt lat="49.52872" lon="3.54064">
        <ele>139</ele>
        <time>2015-08-15T16:51:55.121Z</time>
      </trkpt>
      <trkpt lat="49.52872" lon="3.54065">
        <ele>138.9</ele>
        <time>2015-08-15T16:51:55.694Z</time>
      </trkpt>
      <trkpt lat="49.52872" lon="3.54064">
        <ele>138.9</ele>
        <time>2015-08-15T16:52:04.694Z</time>
      </trkpt>
      <trkpt lat="49.52869" lon="3.54064">
        <ele>138.9</ele>
        <time>2015-08-15T16:52:05.682Z</time>
      </trkpt>
      <trkpt lat="49.5287" lon="3.54064">
        <ele>138.8</ele>
        <time>2015-08-15T16:52:08.747Z</time>
      </trkpt>
      <trkpt lat="49.5287" lon="3.54064">
        <ele>138.9</ele>
        <time>2015-08-15T16:52:09.705Z</time>
      </trkpt>
      <trkpt lat="49.5287" lon="3.54064">
        <ele>139.1</ele>
        <time>2015-08-15T16:52:15.736Z</time>
      </trkpt>
      <trkpt lat="49.52869" lon="3.54064">
        <ele>139.1</ele>
        <time>2015-08-15T16:52:16.711Z</time>
      </trkpt>
      <trkpt lat="49.5286" lon="3.54061">
        <ele>139.3</ele>
        <time>2015-08-15T16:52:22.686Z</time>
      </trkpt>
      <trkpt lat="49.52859" lon="3.54061">
        <ele>139.2</ele>
        <time>2015-08-15T16:52:23.660Z</time>
      </trkpt>
      <trkpt lat="49.52851" lon="3.54061">
        <ele>140.5</ele>
        <time>2015-08-15T16:52:30.669Z</time>
      </trkpt>
      <trkpt lat="49.52849" lon="3.54061">
        <ele>140.4</ele>
        <time>2015-08-15T16:52:31.744Z</time>
      </trkpt>
      <trkpt lat="49.5284" lon="3.54063">
        <ele>140.6</ele>
        <time>2015-08-15T16:52:38.734Z</time>
      </trkpt>
      <trkpt lat="49.5284" lon="3.54063">
        <ele>140.6</ele>
        <time>2015-08-15T16:52:39.696Z</time>
      </trkpt>
      <trkpt lat="49.52831" lon="3.5406">
        <ele>140.1</ele>
        <time>2015-08-15T16:52:51.053Z</time>
      </trkpt>
      <trkpt lat="49.5283" lon="3.5406">
        <ele>140</ele>
        <time>2015-08-15T16:52:51.652Z</time>
      </trkpt>
      <trkpt lat="49.52821" lon="3.54061">
        <ele>139.9</ele>
        <time>2015-08-15T16:52:57.915Z</time>
      </trkpt>
      <trkpt lat="49.5282" lon="3.54062">
        <ele>139.9</ele>
        <time>2015-08-15T16:52:58.643Z</time>
      </trkpt>
      <trkpt lat="49.52811" lon="3.54064">
        <ele>140.2</ele>
        <time>2015-08-15T16:53:04.789Z</time>
      </trkpt>
      <trkpt lat="49.5281" lon="3.54064">
        <ele>140.2</ele>
        <time>2015-08-15T16:53:05.640Z</time>
      </trkpt>
      <trkpt lat="49.52802" lon="3.54066">
        <ele>140.4</ele>
        <time>2015-08-15T16:53:11.824Z</time>
      </trkpt>
      <trkpt lat="49.52801" lon="3.54066">
        <ele>140.5</ele>
        <time>2015-08-15T16:53:12.691Z</time>
      </trkpt>
      <trkpt lat="49.52792" lon="3.54067">
        <ele>140.6</ele>
        <time>2015-08-15T16:53:18.706Z</time>
      </trkpt>
      <trkpt lat="49.52791" lon="3.54068">
        <ele>140.6</ele>
        <time>2015-08-15T16:53:19.687Z</time>
      </trkpt>
      <trkpt lat="49.52782" lon="3.54069">
        <ele>141.1</ele>
        <time>2015-08-15T16:53:26.839Z</time>
      </trkpt>
      <trkpt lat="49.52781" lon="3.5407">
        <ele>141.3</ele>
        <time>2015-08-15T16:53:27.649Z</time>
      </trkpt>
      <trkpt lat="49.52773" lon="3.54072">
        <ele>141.5</ele>
        <time>2015-08-15T16:53:33.760Z</time>
      </trkpt>
      <trkpt lat="49.52772" lon="3.54073">
        <ele>141.3</ele>
        <time>2015-08-15T16:53:34.722Z</time>
      </trkpt>
      <trkpt lat="49.52764" lon="3.54073">
        <ele>141.5</ele>
        <time>2015-08-15T16:53:39.750Z</time>
      </trkpt>
      <trkpt lat="49.52763" lon="3.54074">
        <ele>141.3</ele>
        <time>2015-08-15T16:53:40.725Z</time>
      </trkpt>
      <trkpt lat="49.52755" lon="3.54077">
        <ele>140.8</ele>
        <time>2015-08-15T16:53:45.746Z</time>
      </trkpt>
      <trkpt lat="49.52754" lon="3.54077">
        <ele>140.7</ele>
        <time>2015-08-15T16:53:46.718Z</time>
      </trkpt>
      <trkpt lat="49.52746" lon="3.54085">
        <ele>140</ele>
        <time>2015-08-15T16:53:54.749Z</time>
      </trkpt>
      <trkpt lat="49.52745" lon="3.54085">
        <ele>139.8</ele>
        <time>2015-08-15T16:53:55.734Z</time>
      </trkpt>
      <trkpt lat="49.52739" lon="3.54091">
        <ele>139.4</ele>
        <time>2015-08-15T16:54:01.730Z</time>
      </trkpt>
      <trkpt lat="49.52737" lon="3.54092">
        <ele>139.2</ele>
        <time>2015-08-15T16:54:02.709Z</time>
      </trkpt>
      <trkpt lat="49.5273" lon="3.54099">
        <ele>138.9</ele>
        <time>2015-08-15T16:54:10.696Z</time>
      </trkpt>
      <trkpt lat="49.52729" lon="3.54099">
        <ele>138.9</ele>
        <time>2015-08-15T16:54:11.713Z</time>
      </trkpt>
      <trkpt lat="49.52724" lon="3.54097">
        <ele>138.7</ele>
        <time>2015-08-15T16:54:19.859Z</time>
      </trkpt>
      <trkpt lat="49.52724" lon="3.54097">
        <ele>138.7</ele>
        <time>2015-08-15T16:54:20.784Z</time>
      </trkpt>
      <trkpt lat="49.52724" lon="3.54097">
        <ele>138.7</ele>
        <time>2015-08-15T16:54:20.820Z</time>
      </trkpt>
      <trkpt lat="49.52723" lon="3.54097">
        <ele>138.7</ele>
        <time>2015-08-15T16:54:21.630Z</time>
      </trkpt>
      <trkpt lat="49.52723" lon="3.54099">
        <ele>138.8</ele>
        <time>2015-08-15T16:54:26.728Z</time>
      </trkpt>
      <trkpt lat="49.52723" lon="3.54099">
        <ele>138.8</ele>
        <time>2015-08-15T16:54:27.711Z</time>
      </trkpt>
      <trkpt lat="49.52723" lon="3.54099">
        <ele>138.8</ele>
        <time>2015-08-15T16:54:27.752Z</time>
      </trkpt>
      <trkpt lat="49.52723" lon="3.54099">
        <ele>139</ele>
        <time>2015-08-15T16:54:28.713Z</time>
      </trkpt>
      <trkpt lat="49.52724" lon="3.54113">
        <ele>138.9</ele>
        <time>2015-08-15T16:54:48.691Z</time>
      </trkpt>
      <trkpt lat="49.52724" lon="3.54114">
        <ele>138.9</ele>
        <time>2015-08-15T16:54:49.698Z</time>
      </trkpt>
      <trkpt lat="49.52719" lon="3.54125">
        <ele>137.9</ele>
        <time>2015-08-15T16:54:58.758Z</time>
      </trkpt>
      <trkpt lat="49.52718" lon="3.54127">
        <ele>137.7</ele>
        <time>2015-08-15T16:54:59.648Z</time>
      </trkpt>
      <trkpt lat="49.52714" lon="3.54138">
        <ele>137.6</ele>
        <time>2015-08-15T16:55:06.727Z</time>
      </trkpt>
      <trkpt lat="49.52714" lon="3.5414">
        <ele>137.7</ele>
        <time>2015-08-15T16:55:07.694Z</time>
      </trkpt>
      <trkpt lat="49.52709" lon="3.5415">
        <ele>137</ele>
        <time>2015-08-15T16:55:14.708Z</time>
      </trkpt>
      <trkpt lat="49.52709" lon="3.54152">
        <ele>137.1</ele>
        <time>2015-08-15T16:55:15.648Z</time>
      </trkpt>
      <trkpt lat="49.52704" lon="3.54162">
        <ele>136.5</ele>
        <time>2015-08-15T16:55:22.739Z</time>
      </trkpt>
      <trkpt lat="49.52703" lon="3.54163">
        <ele>136.4</ele>
        <time>2015-08-15T16:55:23.712Z</time>
      </trkpt>
      <trkpt lat="49.52699" lon="3.54173">
        <ele>136.1</ele>
        <time>2015-08-15T16:55:31.593Z</time>
      </trkpt>
      <trkpt lat="49.52698" lon="3.54174">
        <ele>136.1</ele>
        <time>2015-08-15T16:55:31.706Z</time>
      </trkpt>
      <trkpt lat="49.52693" lon="3.54185">
        <ele>135.4</ele>
        <time>2015-08-15T16:55:39.729Z</time>
      </trkpt>
      <trkpt lat="49.52693" lon="3.54187">
        <ele>135.3</ele>
        <time>2015-08-15T16:55:40.734Z</time>
      </trkpt>
      <trkpt lat="49.52692" lon="3.54192">
        <ele>134.9</ele>
        <time>2015-08-15T16:55:42.667Z</time>
      </trkpt>
      <trkpt lat="49.52692" lon="3.54193">
        <ele>135</ele>
        <time>2015-08-15T16:55:43.694Z</time>
      </trkpt>
      <trkpt lat="49.52692" lon="3.54193">
        <ele>135</ele>
        <time>2015-08-15T16:55:43.726Z</time>
      </trkpt>
      <trkpt lat="49.52692" lon="3.54194">
        <ele>135.1</ele>
        <time>2015-08-15T16:55:44.705Z</time>
      </trkpt>
      <trkpt lat="49.52685" lon="3.542">
        <ele>134.9</ele>
        <time>2015-08-15T16:55:53.986Z</time>
      </trkpt>
      <trkpt lat="49.52683" lon="3.54201">
        <ele>135</ele>
        <time>2015-08-15T16:55:54.688Z</time>
      </trkpt>
      <trkpt lat="49.52679" lon="3.54211">
        <ele>134.5</ele>
        <time>2015-08-15T16:56:00.677Z</time>
      </trkpt>
      <trkpt lat="49.52677" lon="3.54212">
        <ele>134.4</ele>
        <time>2015-08-15T16:56:01.737Z</time>
      </trkpt>
      <trkpt lat="49.5267" lon="3.54219">
        <ele>133.4</ele>
        <time>2015-08-15T16:56:05.729Z</time>
      </trkpt>
      <trkpt lat="49.52669" lon="3.5422">
        <ele>133.1</ele>
        <time>2015-08-15T16:56:09.718Z</time>
      </trkpt>
      <trkpt lat="49.52662" lon="3.54229">
        <ele>132.7</ele>
        <time>2015-08-15T16:56:16.750Z</time>
      </trkpt>
      <trkpt lat="49.52661" lon="3.54231">
        <ele>132.8</ele>
        <time>2015-08-15T16:56:17.722Z</time>
      </trkpt>
      <trkpt lat="49.52657" lon="3.54243">
        <ele>133.1</ele>
        <time>2015-08-15T16:56:24.694Z</time>
      </trkpt>
      <trkpt lat="49.52656" lon="3.54244">
        <ele>132.9</ele>
        <time>2015-08-15T16:56:25.697Z</time>
      </trkpt>
      <trkpt lat="49.52649" lon="3.54253">
        <ele>132.6</ele>
        <time>2015-08-15T16:56:32.651Z</time>
      </trkpt>
      <trkpt lat="49.52649" lon="3.54254">
        <ele>132.5</ele>
        <time>2015-08-15T16:56:33.637Z</time>
      </trkpt>
      <trkpt lat="49.52643" lon="3.54264">
        <ele>131.9</ele>
        <time>2015-08-15T16:56:40.746Z</time>
      </trkpt>
      <trkpt lat="49.52642" lon="3.54266">
        <ele>131.7</ele>
        <time>2015-08-15T16:56:41.850Z</time>
      </trkpt>
      <trkpt lat="49.52636" lon="3.54274">
        <ele>131.6</ele>
        <time>2015-08-15T16:56:47.735Z</time>
      </trkpt>
      <trkpt lat="49.52635" lon="3.54275">
        <ele>131.6</ele>
        <time>2015-08-15T16:56:48.708Z</time>
      </trkpt>
      <trkpt lat="49.52628" lon="3.54282">
        <ele>131.4</ele>
        <time>2015-08-15T16:56:51.649Z</time>
      </trkpt>
      <trkpt lat="49.52627" lon="3.54283">
        <ele>131.2</ele>
        <time>2015-08-15T16:56:55.697Z</time>
      </trkpt>
      <trkpt lat="49.52626" lon="3.54283">
        <ele>131.2</ele>
        <time>2015-08-15T16:56:57.735Z</time>
      </trkpt>
      <trkpt lat="49.52626" lon="3.54284">
        <ele>131.3</ele>
        <time>2015-08-15T16:56:58.713Z</time>
      </trkpt>
      <trkpt lat="49.52626" lon="3.54284">
        <ele>131.2</ele>
        <time>2015-08-15T16:57:03.673Z</time>
      </trkpt>
      <trkpt lat="49.52626" lon="3.54286">
        <ele>131.5</ele>
        <time>2015-08-15T16:57:04.655Z</time>
      </trkpt>
      <trkpt lat="49.52625" lon="3.54286">
        <ele>131.7</ele>
        <time>2015-08-15T16:57:05.698Z</time>
      </trkpt>
      <trkpt lat="49.52625" lon="3.54287">
        <ele>131.8</ele>
        <time>2015-08-15T16:57:06.668Z</time>
      </trkpt>
      <trkpt lat="49.52626" lon="3.54288">
        <ele>132</ele>
        <time>2015-08-15T16:57:17.697Z</time>
      </trkpt>
      <trkpt lat="49.52626" lon="3.54294">
        <ele>133.9</ele>
        <time>2015-08-15T16:57:18.668Z</time>
      </trkpt>
      <trkpt lat="49.52621" lon="3.54305">
        <ele>133.1</ele>
        <time>2015-08-15T16:57:29.663Z</time>
      </trkpt>
      <trkpt lat="49.52621" lon="3.54306">
        <ele>133</ele>
        <time>2015-08-15T16:57:30.648Z</time>
      </trkpt>
      <trkpt lat="49.52619" lon="3.54318">
        <ele>133.2</ele>
        <time>2015-08-15T16:57:38.729Z</time>
      </trkpt>
      <trkpt lat="49.52619" lon="3.5432">
        <ele>133.3</ele>
        <time>2015-08-15T16:57:39.706Z</time>
      </trkpt>
      <trkpt lat="49.52618" lon="3.54334">
        <ele>133.2</ele>
        <time>2015-08-15T16:57:45.668Z</time>
      </trkpt>
      <trkpt lat="49.52618" lon="3.54335">
        <ele>133.4</ele>
        <time>2015-08-15T16:57:46.651Z</time>
      </trkpt>
      <trkpt lat="49.52613" lon="3.54346">
        <ele>133</ele>
        <time>2015-08-15T16:57:55.340Z</time>
      </trkpt>
      <trkpt lat="49.52613" lon="3.54347">
        <ele>133.1</ele>
        <time>2015-08-15T16:57:59.661Z</time>
      </trkpt>
      <trkpt lat="49.52606" lon="3.54354">
        <ele>133.6</ele>
        <time>2015-08-15T16:58:07.717Z</time>
      </trkpt>
      <trkpt lat="49.52604" lon="3.54354">
        <ele>133.7</ele>
        <time>2015-08-15T16:58:08.701Z</time>
      </trkpt>
      <trkpt lat="49.52597" lon="3.54354">
        <ele>134.3</ele>
        <time>2015-08-15T16:58:14.677Z</time>
      </trkpt>
      <trkpt lat="49.52595" lon="3.54353">
        <ele>134.4</ele>
        <time>2015-08-15T16:58:15.649Z</time>
      </trkpt>
      <trkpt lat="49.52591" lon="3.54354">
        <ele>134.3</ele>
        <time>2015-08-15T16:58:20.716Z</time>
      </trkpt>
      <trkpt lat="49.52591" lon="3.54355">
        <ele>134.3</ele>
        <time>2015-08-15T16:58:21.664Z</time>
      </trkpt>
      <trkpt lat="49.52591" lon="3.54355">
        <ele>134.3</ele>
        <time>2015-08-15T16:58:21.758Z</time>
      </trkpt>
      <trkpt lat="49.52591" lon="3.54356">
        <ele>134.4</ele>
        <time>2015-08-15T16:58:22.698Z</time>
      </trkpt>
      <trkpt lat="49.52593" lon="3.54366">
        <ele>136.1</ele>
        <time>2015-08-15T16:58:28.727Z</time>
      </trkpt>
      <trkpt lat="49.52593" lon="3.5437">
        <ele>136</ele>
        <time>2015-08-15T16:58:29.706Z</time>
      </trkpt>
      <trkpt lat="49.52592" lon="3.54382">
        <ele>136.1</ele>
        <time>2015-08-15T16:58:35.526Z</time>
      </trkpt>
      <trkpt lat="49.52591" lon="3.54383">
        <ele>136.3</ele>
        <time>2015-08-15T16:58:36.669Z</time>
      </trkpt>
      <trkpt lat="49.5259" lon="3.54386">
        <ele>136.7</ele>
        <time>2015-08-15T16:58:38.702Z</time>
      </trkpt>
      <trkpt lat="49.52591" lon="3.54387">
        <ele>136.9</ele>
        <time>2015-08-15T16:58:39.702Z</time>
      </trkpt>
      <trkpt lat="49.52591" lon="3.54387">
        <ele>136.9</ele>
        <time>2015-08-15T16:58:39.728Z</time>
      </trkpt>
      <trkpt lat="49.52591" lon="3.54388">
        <ele>137.1</ele>
        <time>2015-08-15T16:58:40.712Z</time>
      </trkpt>
      <trkpt lat="49.52587" lon="3.544">
        <ele>138</ele>
        <time>2015-08-15T16:58:52.749Z</time>
      </trkpt>
      <trkpt lat="49.52587" lon="3.54401">
        <ele>138.1</ele>
        <time>2015-08-15T16:58:53.845Z</time>
      </trkpt>
      <trkpt lat="49.52585" lon="3.54413">
        <ele>138.2</ele>
        <time>2015-08-15T16:59:00.668Z</time>
      </trkpt>
      <trkpt lat="49.52584" lon="3.54415">
        <ele>138.2</ele>
        <time>2015-08-15T16:59:01.696Z</time>
      </trkpt>
      <trkpt lat="49.52581" lon="3.54426">
        <ele>138.7</ele>
        <time>2015-08-15T16:59:07.777Z</time>
      </trkpt>
      <trkpt lat="49.5258" lon="3.54429">
        <ele>138.9</ele>
        <time>2015-08-15T16:59:08.650Z</time>
      </trkpt>
      <trkpt lat="49.5258" lon="3.54429">
        <ele>138.9</ele>
        <time>2015-08-15T16:59:08.671Z</time>
      </trkpt>
      <trkpt lat="49.5258" lon="3.5443">
        <ele>139</ele>
        <time>2015-08-15T16:59:09.664Z</time>
      </trkpt>
      <trkpt lat="49.5258" lon="3.5443">
        <ele>139</ele>
        <time>2015-08-15T16:59:17.753Z</time>
      </trkpt>
      <trkpt lat="49.5258" lon="3.54435">
        <ele>139.1</ele>
        <time>2015-08-15T16:59:18.721Z</time>
      </trkpt>
      <trkpt lat="49.52579" lon="3.54439">
        <ele>139</ele>
        <time>2015-08-15T16:59:22.680Z</time>
      </trkpt>
      <trkpt lat="49.52579" lon="3.54439">
        <ele>139</ele>
        <time>2015-08-15T16:59:23.673Z</time>
      </trkpt>
      <trkpt lat="49.52579" lon="3.54439">
        <ele>138.9</ele>
        <time>2015-08-15T16:59:27.671Z</time>
      </trkpt>
      <trkpt lat="49.52579" lon="3.5444">
        <ele>138.8</ele>
        <time>2015-08-15T16:59:28.651Z</time>
      </trkpt>
      <trkpt lat="49.52579" lon="3.5444">
        <ele>138.8</ele>
        <time>2015-08-15T16:59:28.676Z</time>
      </trkpt>
      <trkpt lat="49.52579" lon="3.5444">
        <ele>138.7</ele>
        <time>2015-08-15T16:59:29.664Z</time>
      </trkpt>
      <trkpt lat="49.52579" lon="3.5444">
        <ele>138.7</ele>
        <time>2015-08-15T16:59:30.713Z</time>
      </trkpt>
      <trkpt lat="49.52578" lon="3.5444">
        <ele>138.7</ele>
        <time>2015-08-15T16:59:31.707Z</time>
      </trkpt>
      <trkpt lat="49.52578" lon="3.5444">
        <ele>138.7</ele>
        <time>2015-08-15T16:59:31.738Z</time>
      </trkpt>
      <trkpt lat="49.52579" lon="3.54441">
        <ele>138.8</ele>
        <time>2015-08-15T16:59:32.704Z</time>
      </trkpt>
      <trkpt lat="49.52579" lon="3.54441">
        <ele>138.8</ele>
        <time>2015-08-15T16:59:32.738Z</time>
      </trkpt>
      <trkpt lat="49.52579" lon="3.54442">
        <ele>138.7</ele>
        <time>2015-08-15T16:59:33.706Z</time>
      </trkpt>
      <trkpt lat="49.52582" lon="3.54451">
        <ele>138.8</ele>
        <time>2015-08-15T16:59:38.735Z</time>
      </trkpt>
      <trkpt lat="49.52583" lon="3.54455">
        <ele>138.9</ele>
        <time>2015-08-15T16:59:39.707Z</time>
      </trkpt>
      <trkpt lat="49.52584" lon="3.54464">
        <ele>139.5</ele>
        <time>2015-08-15T16:59:41.458Z</time>
      </trkpt>
      <trkpt lat="49.52584" lon="3.54465">
        <ele>139.2</ele>
        <time>2015-08-15T16:59:46.715Z</time>
      </trkpt>
      <trkpt lat="49.52584" lon="3.54465">
        <ele>139.3</ele>
        <time>2015-08-15T16:59:48.757Z</time>
      </trkpt>
      <trkpt lat="49.52583" lon="3.54467">
        <ele>139.4</ele>
        <time>2015-08-15T16:59:49.744Z</time>
      </trkpt>
      <trkpt lat="49.52583" lon="3.54479">
        <ele>139.9</ele>
        <time>2015-08-15T16:59:57.739Z</time>
      </trkpt>
      <trkpt lat="49.52583" lon="3.54481">
        <ele>140</ele>
        <time>2015-08-15T16:59:58.728Z</time>
      </trkpt>
      <trkpt lat="49.52578" lon="3.54492">
        <ele>142</ele>
        <time>2015-08-15T17:00:05.547Z</time>
      </trkpt>
      <trkpt lat="49.52578" lon="3.54493">
        <ele>142.2</ele>
        <time>2015-08-15T17:00:10.685Z</time>
      </trkpt>
      <trkpt lat="49.52576" lon="3.54506">
        <ele>142.9</ele>
        <time>2015-08-15T17:00:17.784Z</time>
      </trkpt>
      <trkpt lat="49.52576" lon="3.54507">
        <ele>142.9</ele>
        <time>2015-08-15T17:00:18.739Z</time>
      </trkpt>
      <trkpt lat="49.52578" lon="3.54519">
        <ele>143.2</ele>
        <time>2015-08-15T17:00:25.750Z</time>
      </trkpt>
      <trkpt lat="49.52579" lon="3.54522">
        <ele>143.2</ele>
        <time>2015-08-15T17:00:26.650Z</time>
      </trkpt>
      <trkpt lat="49.52582" lon="3.54534">
        <ele>143.8</ele>
        <time>2015-08-15T17:00:33.953Z</time>
      </trkpt>
      <trkpt lat="49.52583" lon="3.54535">
        <ele>144</ele>
        <time>2015-08-15T17:00:34.674Z</time>
      </trkpt>
      <trkpt lat="49.52587" lon="3.54546">
        <ele>144.5</ele>
        <time>2015-08-15T17:00:41.720Z</time>
      </trkpt>
      <trkpt lat="49.52587" lon="3.54548">
        <ele>144.6</ele>
        <time>2015-08-15T17:00:42.688Z</time>
      </trkpt>
      <trkpt lat="49.52586" lon="3.5456">
        <ele>144.7</ele>
        <time>2015-08-15T17:00:49.734Z</time>
      </trkpt>
      <trkpt lat="49.52586" lon="3.54563">
        <ele>144.6</ele>
        <time>2015-08-15T17:00:50.707Z</time>
      </trkpt>
      <trkpt lat="49.52587" lon="3.54576">
        <ele>144.9</ele>
        <time>2015-08-15T17:00:58.751Z</time>
      </trkpt>
      <trkpt lat="49.52587" lon="3.54578">
        <ele>145</ele>
        <time>2015-08-15T17:00:59.746Z</time>
      </trkpt>
      <trkpt lat="49.52586" lon="3.5458">
        <ele>145.2</ele>
        <time>2015-08-15T17:01:01.765Z</time>
      </trkpt>
      <trkpt lat="49.52586" lon="3.54581">
        <ele>145.3</ele>
        <time>2015-08-15T17:01:02.642Z</time>
      </trkpt>
      <trkpt lat="49.52586" lon="3.54581">
        <ele>145.3</ele>
        <time>2015-08-15T17:01:02.913Z</time>
      </trkpt>
      <trkpt lat="49.52586" lon="3.54582">
        <ele>145.4</ele>
        <time>2015-08-15T17:01:03.489Z</time>
      </trkpt>
      <trkpt lat="49.5259" lon="3.54593">
        <ele>145.5</ele>
        <time>2015-08-15T17:01:09.607Z</time>
      </trkpt>
      <trkpt lat="49.52589" lon="3.54596">
        <ele>145.4</ele>
        <time>2015-08-15T17:01:10.498Z</time>
      </trkpt>
      <trkpt lat="49.52589" lon="3.54609">
        <ele>144.5</ele>
        <time>2015-08-15T17:01:23.537Z</time>
      </trkpt>
      <trkpt lat="49.52589" lon="3.54611">
        <ele>144.6</ele>
        <time>2015-08-15T17:01:24.511Z</time>
      </trkpt>
      <trkpt lat="49.52591" lon="3.54622">
        <ele>144.9</ele>
        <time>2015-08-15T17:01:30.613Z</time>
      </trkpt>
      <trkpt lat="49.52592" lon="3.54624">
        <ele>145</ele>
        <time>2015-08-15T17:01:31.598Z</time>
      </trkpt>
      <trkpt lat="49.52592" lon="3.54638">
        <ele>145.8</ele>
        <time>2015-08-15T17:01:41.597Z</time>
      </trkpt>
      <trkpt lat="49.52593" lon="3.54639">
        <ele>145.8</ele>
        <time>2015-08-15T17:01:42.574Z</time>
      </trkpt>
      <trkpt lat="49.52594" lon="3.54648">
        <ele>147.5</ele>
        <time>2015-08-15T17:01:48.552Z</time>
      </trkpt>
      <trkpt lat="49.52594" lon="3.54649">
        <ele>147.6</ele>
        <time>2015-08-15T17:01:49.530Z</time>
      </trkpt>
      <trkpt lat="49.52594" lon="3.54649">
        <ele>147.6</ele>
        <time>2015-08-15T17:02:05.625Z</time>
      </trkpt>
      <trkpt lat="49.52595" lon="3.54651">
        <ele>148.5</ele>
        <time>2015-08-15T17:02:06.504Z</time>
      </trkpt>
      <trkpt lat="49.526" lon="3.54662">
        <ele>149.3</ele>
        <time>2015-08-15T17:02:15.630Z</time>
      </trkpt>
      <trkpt lat="49.526" lon="3.54664">
        <ele>149.3</ele>
        <time>2015-08-15T17:02:16.587Z</time>
      </trkpt>
      <trkpt lat="49.52604" lon="3.54675">
        <ele>150.2</ele>
        <time>2015-08-15T17:02:26.536Z</time>
      </trkpt>
      <trkpt lat="49.52605" lon="3.54677">
        <ele>150.1</ele>
        <time>2015-08-15T17:02:27.508Z</time>
      </trkpt>
      <trkpt lat="49.5261" lon="3.54688">
        <ele>149.6</ele>
        <time>2015-08-15T17:02:33.599Z</time>
      </trkpt>
      <trkpt lat="49.52611" lon="3.54689">
        <ele>149.7</ele>
        <time>2015-08-15T17:02:34.605Z</time>
      </trkpt>
      <trkpt lat="49.52615" lon="3.547">
        <ele>150.2</ele>
        <time>2015-08-15T17:02:42.523Z</time>
      </trkpt>
      <trkpt lat="49.52615" lon="3.54702">
        <ele>150.3</ele>
        <time>2015-08-15T17:02:43.583Z</time>
      </trkpt>
      <trkpt lat="49.52619" lon="3.54714">
        <ele>150.9</ele>
        <time>2015-08-15T17:02:51.574Z</time>
      </trkpt>
      <trkpt lat="49.52619" lon="3.54715">
        <ele>151</ele>
        <time>2015-08-15T17:02:52.567Z</time>
      </trkpt>
      <trkpt lat="49.52622" lon="3.54726">
        <ele>151.3</ele>
        <time>2015-08-15T17:02:58.533Z</time>
      </trkpt>
      <trkpt lat="49.52623" lon="3.54728">
        <ele>151.2</ele>
        <time>2015-08-15T17:02:59.520Z</time>
      </trkpt>
      <trkpt lat="49.52629" lon="3.54737">
        <ele>151.5</ele>
        <time>2015-08-15T17:03:05.615Z</time>
      </trkpt>
      <trkpt lat="49.52631" lon="3.54738">
        <ele>151.7</ele>
        <time>2015-08-15T17:03:06.501Z</time>
      </trkpt>
      <trkpt lat="49.52631" lon="3.54739">
        <ele>151.9</ele>
        <time>2015-08-15T17:03:07.569Z</time>
      </trkpt>
      <trkpt lat="49.52631" lon="3.5474">
        <ele>151.9</ele>
        <time>2015-08-15T17:03:08.554Z</time>
      </trkpt>
      <trkpt lat="49.52631" lon="3.5474">
        <ele>151.9</ele>
        <time>2015-08-15T17:03:08.805Z</time>
      </trkpt>
      <trkpt lat="49.52631" lon="3.5474">
        <ele>152</ele>
        <time>2015-08-15T17:03:09.560Z</time>
      </trkpt>
      <trkpt lat="49.52631" lon="3.54741">
        <ele>152.1</ele>
        <time>2015-08-15T17:03:10.609Z</time>
      </trkpt>
      <trkpt lat="49.52632" lon="3.54741">
        <ele>152.2</ele>
        <time>2015-08-15T17:03:11.567Z</time>
      </trkpt>
      <trkpt lat="49.52632" lon="3.54742">
        <ele>152.2</ele>
        <time>2015-08-15T17:03:15.555Z</time>
      </trkpt>
      <trkpt lat="49.52633" lon="3.54745">
        <ele>152.5</ele>
        <time>2015-08-15T17:03:16.506Z</time>
      </trkpt>
      <trkpt lat="49.52636" lon="3.54758">
        <ele>152.9</ele>
        <time>2015-08-15T17:03:25.578Z</time>
      </trkpt>
      <trkpt lat="49.52637" lon="3.54759">
        <ele>153</ele>
        <time>2015-08-15T17:03:26.544Z</time>
      </trkpt>
      <trkpt lat="49.52642" lon="3.54769">
        <ele>155.5</ele>
        <time>2015-08-15T17:03:34.556Z</time>
      </trkpt>
      <trkpt lat="49.52643" lon="3.5477">
        <ele>155.9</ele>
        <time>2015-08-15T17:03:35.539Z</time>
      </trkpt>
      <trkpt lat="49.52649" lon="3.54779">
        <ele>156.7</ele>
        <time>2015-08-15T17:03:41.544Z</time>
      </trkpt>
      <trkpt lat="49.5265" lon="3.5478">
        <ele>156.5</ele>
        <time>2015-08-15T17:03:42.495Z</time>
      </trkpt>
      <trkpt lat="49.52658" lon="3.54786">
        <ele>155.2</ele>
        <time>2015-08-15T17:03:57.550Z</time>
      </trkpt>
      <trkpt lat="49.52658" lon="3.54788">
        <ele>155.1</ele>
        <time>2015-08-15T17:03:58.526Z</time>
      </trkpt>
      <trkpt lat="49.52663" lon="3.54799">
        <ele>154.5</ele>
        <time>2015-08-15T17:04:04.527Z</time>
      </trkpt>
      <trkpt lat="49.52663" lon="3.54801">
        <ele>154</ele>
        <time>2015-08-15T17:04:05.503Z</time>
      </trkpt>
      <trkpt lat="49.52669" lon="3.5481">
        <ele>154</ele>
        <time>2015-08-15T17:04:11.545Z</time>
      </trkpt>
      <trkpt lat="49.5267" lon="3.54812">
        <ele>154.1</ele>
        <time>2015-08-15T17:04:12.528Z</time>
      </trkpt>
      <trkpt lat="49.52674" lon="3.54822">
        <ele>154.8</ele>
        <time>2015-08-15T17:04:18.519Z</time>
      </trkpt>
      <trkpt lat="49.52675" lon="3.54823">
        <ele>154.9</ele>
        <time>2015-08-15T17:04:19.552Z</time>
      </trkpt>
      <trkpt lat="49.5268" lon="3.54833">
        <ele>155.4</ele>
        <time>2015-08-15T17:04:26.517Z</time>
      </trkpt>
      <trkpt lat="49.52681" lon="3.54834">
        <ele>155.7</ele>
        <time>2015-08-15T17:04:27.508Z</time>
      </trkpt>
      <trkpt lat="49.52687" lon="3.54839">
        <ele>157.1</ele>
        <time>2015-08-15T17:04:32.590Z</time>
      </trkpt>
      <trkpt lat="49.52689" lon="3.5484">
        <ele>157.3</ele>
        <time>2015-08-15T17:04:33.566Z</time>
      </trkpt>
      <trkpt lat="49.52697" lon="3.54838">
        <ele>159.1</ele>
        <time>2015-08-15T17:04:38.594Z</time>
      </trkpt>
      <trkpt lat="49.52698" lon="3.54838">
        <ele>159.3</ele>
        <time>2015-08-15T17:04:39.576Z</time>
      </trkpt>
      <trkpt lat="49.52702" lon="3.5484">
        <ele>160</ele>
        <time>2015-08-15T17:04:44.588Z</time>
      </trkpt>
      <trkpt lat="49.52702" lon="3.54841">
        <ele>160</ele>
        <time>2015-08-15T17:04:45.564Z</time>
      </trkpt>
      <trkpt lat="49.52702" lon="3.54841">
        <ele>160</ele>
        <time>2015-08-15T17:04:45.592Z</time>
      </trkpt>
      <trkpt lat="49.52702" lon="3.5484">
        <ele>159.9</ele>
        <time>2015-08-15T17:04:46.573Z</time>
      </trkpt>
      <trkpt lat="49.52702" lon="3.5484">
        <ele>159.9</ele>
        <time>2015-08-15T17:04:46.603Z</time>
      </trkpt>
      <trkpt lat="49.52703" lon="3.5484">
        <ele>159.9</ele>
        <time>2015-08-15T17:04:47.581Z</time>
      </trkpt>
      <trkpt lat="49.52703" lon="3.5484">
        <ele>159.9</ele>
        <time>2015-08-15T17:04:47.617Z</time>
      </trkpt>
      <trkpt lat="49.52703" lon="3.5484">
        <ele>160</ele>
        <time>2015-08-15T17:04:48.584Z</time>
      </trkpt>
      <trkpt lat="49.52711" lon="3.54842">
        <ele>160.2</ele>
        <time>2015-08-15T17:04:56.664Z</time>
      </trkpt>
      <trkpt lat="49.52712" lon="3.54842">
        <ele>160.4</ele>
        <time>2015-08-15T17:04:57.555Z</time>
      </trkpt>
      <trkpt lat="49.5272" lon="3.54844">
        <ele>161.2</ele>
        <time>2015-08-15T17:05:04.540Z</time>
      </trkpt>
      <trkpt lat="49.52722" lon="3.54845">
        <ele>161.1</ele>
        <time>2015-08-15T17:05:05.520Z</time>
      </trkpt>
      <trkpt lat="49.5273" lon="3.54851">
        <ele>160.2</ele>
        <time>2015-08-15T17:05:10.614Z</time>
      </trkpt>
      <trkpt lat="49.52731" lon="3.54852">
        <ele>159.8</ele>
        <time>2015-08-15T17:05:11.590Z</time>
      </trkpt>
      <trkpt lat="49.52734" lon="3.54853">
        <ele>159.9</ele>
        <time>2015-08-15T17:05:14.533Z</time>
      </trkpt>
      <trkpt lat="49.52735" lon="3.54853">
        <ele>159.8</ele>
        <time>2015-08-15T17:05:15.503Z</time>
      </trkpt>
      <trkpt lat="49.52735" lon="3.54853">
        <ele>159.8</ele>
        <time>2015-08-15T17:05:15.525Z</time>
      </trkpt>
      <trkpt lat="49.52736" lon="3.54854">
        <ele>159.7</ele>
        <time>2015-08-15T17:05:16.508Z</time>
      </trkpt>
      <trkpt lat="49.52744" lon="3.54858">
        <ele>158</ele>
        <time>2015-08-15T17:05:22.607Z</time>
      </trkpt>
      <trkpt lat="49.52745" lon="3.54858">
        <ele>158.2</ele>
        <time>2015-08-15T17:05:23.567Z</time>
      </trkpt>
      <trkpt lat="49.52746" lon="3.54858">
        <ele>158.3</ele>
        <time>2015-08-15T17:05:24.611Z</time>
      </trkpt>
      <trkpt lat="49.52746" lon="3.54858">
        <ele>158.3</ele>
        <time>2015-08-15T17:05:25.587Z</time>
      </trkpt>
      <trkpt lat="49.52747" lon="3.54859">
        <ele>158.2</ele>
        <time>2015-08-15T17:05:29.554Z</time>
      </trkpt>
      <trkpt lat="49.52748" lon="3.54862">
        <ele>157.8</ele>
        <time>2015-08-15T17:05:30.534Z</time>
      </trkpt>
      <trkpt lat="49.52748" lon="3.54863">
        <ele>157.8</ele>
        <time>2015-08-15T17:05:31.572Z</time>
      </trkpt>
      <trkpt lat="49.52749" lon="3.54864">
        <ele>157.9</ele>
        <time>2015-08-15T17:05:32.560Z</time>
      </trkpt>
      <trkpt lat="49.52749" lon="3.54864">
        <ele>157.9</ele>
        <time>2015-08-15T17:05:32.599Z</time>
      </trkpt>
      <trkpt lat="49.5275" lon="3.54864">
        <ele>157.9</ele>
        <time>2015-08-15T17:05:33.580Z</time>
      </trkpt>
      <trkpt lat="49.52757" lon="3.54869">
        <ele>158.1</ele>
        <time>2015-08-15T17:05:41.616Z</time>
      </trkpt>
      <trkpt lat="49.52758" lon="3.5487">
        <ele>158.2</ele>
        <time>2015-08-15T17:05:42.514Z</time>
      </trkpt>
      <trkpt lat="49.52764" lon="3.54881">
        <ele>158.2</ele>
        <time>2015-08-15T17:05:50.586Z</time>
      </trkpt>
      <trkpt lat="49.52765" lon="3.54882">
        <ele>158.3</ele>
        <time>2015-08-15T17:05:51.567Z</time>
      </trkpt>
      <trkpt lat="49.52771" lon="3.54889">
        <ele>158.1</ele>
        <time>2015-08-15T17:05:55.238Z</time>
      </trkpt>
      <trkpt lat="49.52773" lon="3.54891">
        <ele>158</ele>
        <time>2015-08-15T17:05:59.511Z</time>
      </trkpt>
      <trkpt lat="49.52779" lon="3.549">
        <ele>157.5</ele>
        <time>2015-08-15T17:06:05.614Z</time>
      </trkpt>
      <trkpt lat="49.5278" lon="3.549">
        <ele>157.6</ele>
        <time>2015-08-15T17:06:06.590Z</time>
      </trkpt>
      <trkpt lat="49.52787" lon="3.54907">
        <ele>156.8</ele>
        <time>2015-08-15T17:06:11.661Z</time>
      </trkpt>
      <trkpt lat="49.52788" lon="3.54909">
        <ele>156.9</ele>
        <time>2015-08-15T17:06:12.551Z</time>
      </trkpt>
      <trkpt lat="49.52791" lon="3.54919">
        <ele>156.5</ele>
        <time>2015-08-15T17:06:17.532Z</time>
      </trkpt>
      <trkpt lat="49.52792" lon="3.54921">
        <ele>156.2</ele>
        <time>2015-08-15T17:06:18.505Z</time>
      </trkpt>
      <trkpt lat="49.52796" lon="3.54934">
        <ele>155.5</ele>
        <time>2015-08-15T17:06:24.612Z</time>
      </trkpt>
      <trkpt lat="49.52796" lon="3.54936">
        <ele>155.3</ele>
        <time>2015-08-15T17:06:25.597Z</time>
      </trkpt>
      <trkpt lat="49.52799" lon="3.54948">
        <ele>155.3</ele>
        <time>2015-08-15T17:06:32.591Z</time>
      </trkpt>
      <trkpt lat="49.528" lon="3.54949">
        <ele>155.2</ele>
        <time>2015-08-15T17:06:33.577Z</time>
      </trkpt>
      <trkpt lat="49.52803" lon="3.54962">
        <ele>153.9</ele>
        <time>2015-08-15T17:06:41.524Z</time>
      </trkpt>
      <trkpt lat="49.52803" lon="3.54963">
        <ele>153.7</ele>
        <time>2015-08-15T17:06:42.497Z</time>
      </trkpt>
      <trkpt lat="49.52809" lon="3.54973">
        <ele>151.9</ele>
        <time>2015-08-15T17:06:50.623Z</time>
      </trkpt>
      <trkpt lat="49.52811" lon="3.54974">
        <ele>151.3</ele>
        <time>2015-08-15T17:06:51.567Z</time>
      </trkpt>
      <trkpt lat="49.52817" lon="3.54984">
        <ele>150</ele>
        <time>2015-08-15T17:06:55.234Z</time>
      </trkpt>
      <trkpt lat="49.52818" lon="3.54985">
        <ele>149.9</ele>
        <time>2015-08-15T17:06:59.511Z</time>
      </trkpt>
      <trkpt lat="49.52826" lon="3.54991">
        <ele>148.5</ele>
        <time>2015-08-15T17:07:05.521Z</time>
      </trkpt>
      <trkpt lat="49.52826" lon="3.54992">
        <ele>148.2</ele>
        <time>2015-08-15T17:07:06.506Z</time>
      </trkpt>
      <trkpt lat="49.52833" lon="3.55001">
        <ele>145.4</ele>
        <time>2015-08-15T17:07:10.505Z</time>
      </trkpt>
      <trkpt lat="49.52834" lon="3.55002">
        <ele>145.1</ele>
        <time>2015-08-15T17:07:14.552Z</time>
      </trkpt>
      <trkpt lat="49.52839" lon="3.55012">
        <ele>143.1</ele>
        <time>2015-08-15T17:07:21.590Z</time>
      </trkpt>
      <trkpt lat="49.5284" lon="3.55013">
        <ele>142.9</ele>
        <time>2015-08-15T17:07:22.562Z</time>
      </trkpt>
      <trkpt lat="49.52846" lon="3.55022">
        <ele>140.8</ele>
        <time>2015-08-15T17:07:29.556Z</time>
      </trkpt>
      <trkpt lat="49.52847" lon="3.55023">
        <ele>140.6</ele>
        <time>2015-08-15T17:07:30.528Z</time>
      </trkpt>
      <trkpt lat="49.52848" lon="3.55027">
        <ele>140.4</ele>
        <time>2015-08-15T17:07:35.598Z</time>
      </trkpt>
      <trkpt lat="49.52848" lon="3.55028">
        <ele>140.2</ele>
        <time>2015-08-15T17:07:36.581Z</time>
      </trkpt>
      <trkpt lat="49.52848" lon="3.55026">
        <ele>138.6</ele>
        <time>2015-08-15T17:07:40.531Z</time>
      </trkpt>
      <trkpt lat="49.52848" lon="3.55024">
        <ele>137.3</ele>
        <time>2015-08-15T17:07:41.514Z</time>
      </trkpt>
      <trkpt lat="49.52853" lon="3.55035">
        <ele>136.1</ele>
        <time>2015-08-15T17:07:46.274Z</time>
      </trkpt>
      <trkpt lat="49.52853" lon="3.55036">
        <ele>135.8</ele>
        <time>2015-08-15T17:07:50.499Z</time>
      </trkpt>
      <trkpt lat="49.52858" lon="3.55047">
        <ele>134.9</ele>
        <time>2015-08-15T17:07:57.679Z</time>
      </trkpt>
      <trkpt lat="49.52858" lon="3.55049">
        <ele>134.8</ele>
        <time>2015-08-15T17:07:58.576Z</time>
      </trkpt>
      <trkpt lat="49.52861" lon="3.5506">
        <ele>133.8</ele>
        <time>2015-08-15T17:08:05.562Z</time>
      </trkpt>
      <trkpt lat="49.52862" lon="3.55062">
        <ele>133.5</ele>
        <time>2015-08-15T17:08:06.514Z</time>
      </trkpt>
      <trkpt lat="49.52865" lon="3.55074">
        <ele>130.3</ele>
        <time>2015-08-15T17:08:10.626Z</time>
      </trkpt>
      <trkpt lat="49.52865" lon="3.55076">
        <ele>130.1</ele>
        <time>2015-08-15T17:08:14.503Z</time>
      </trkpt>
      <trkpt lat="49.52867" lon="3.55089">
        <ele>129.4</ele>
        <time>2015-08-15T17:08:21.580Z</time>
      </trkpt>
      <trkpt lat="49.52867" lon="3.55091">
        <ele>129.2</ele>
        <time>2015-08-15T17:08:22.557Z</time>
      </trkpt>
      <trkpt lat="49.5287" lon="3.55103">
        <ele>128.5</ele>
        <time>2015-08-15T17:08:26.164Z</time>
      </trkpt>
      <trkpt lat="49.5287" lon="3.55105">
        <ele>128.4</ele>
        <time>2015-08-15T17:08:30.516Z</time>
      </trkpt>
      <trkpt lat="49.52873" lon="3.55117">
        <ele>128.5</ele>
        <time>2015-08-15T17:08:37.587Z</time>
      </trkpt>
      <trkpt lat="49.52874" lon="3.55119">
        <ele>128.6</ele>
        <time>2015-08-15T17:08:38.575Z</time>
      </trkpt>
      <trkpt lat="49.52878" lon="3.55131">
        <ele>128.2</ele>
        <time>2015-08-15T17:08:46.626Z</time>
      </trkpt>
      <trkpt lat="49.52878" lon="3.55133">
        <ele>127.9</ele>
        <time>2015-08-15T17:08:47.587Z</time>
      </trkpt>
      <trkpt lat="49.5288" lon="3.55146">
        <ele>127.1</ele>
        <time>2015-08-15T17:08:51.491Z</time>
      </trkpt>
      <trkpt lat="49.52881" lon="3.55147">
        <ele>127</ele>
        <time>2015-08-15T17:08:55.583Z</time>
      </trkpt>
      <trkpt lat="49.52882" lon="3.55159">
        <ele>126.1</ele>
        <time>2015-08-15T17:09:01.610Z</time>
      </trkpt>
      <trkpt lat="49.52882" lon="3.55161">
        <ele>125.9</ele>
        <time>2015-08-15T17:09:02.497Z</time>
      </trkpt>
      <trkpt lat="49.52883" lon="3.55173">
        <ele>125.5</ele>
        <time>2015-08-15T17:09:05.919Z</time>
      </trkpt>
      <trkpt lat="49.52884" lon="3.55175">
        <ele>125.5</ele>
        <time>2015-08-15T17:09:09.548Z</time>
      </trkpt>
      <trkpt lat="49.52887" lon="3.55188">
        <ele>125</ele>
        <time>2015-08-15T17:09:17.536Z</time>
      </trkpt>
      <trkpt lat="49.52887" lon="3.55189">
        <ele>125.2</ele>
        <time>2015-08-15T17:09:18.513Z</time>
      </trkpt>
      <trkpt lat="49.52889" lon="3.55201">
        <ele>124.8</ele>
        <time>2015-08-15T17:09:25.633Z</time>
      </trkpt>
      <trkpt lat="49.5289" lon="3.55203">
        <ele>124.6</ele>
        <time>2015-08-15T17:09:26.499Z</time>
      </trkpt>
      <trkpt lat="49.52893" lon="3.55215">
        <ele>124.5</ele>
        <time>2015-08-15T17:09:33.523Z</time>
      </trkpt>
      <trkpt lat="49.52894" lon="3.55217">
        <ele>124.4</ele>
        <time>2015-08-15T17:09:34.494Z</time>
      </trkpt>
      <trkpt lat="49.52897" lon="3.55228">
        <ele>124.5</ele>
        <time>2015-08-15T17:09:40.641Z</time>
      </trkpt>
      <trkpt lat="49.52898" lon="3.5523">
        <ele>124.5</ele>
        <time>2015-08-15T17:09:41.521Z</time>
      </trkpt>
      <trkpt lat="49.52903" lon="3.55239">
        <ele>124.3</ele>
        <time>2015-08-15T17:09:49.582Z</time>
      </trkpt>
      <trkpt lat="49.52904" lon="3.55241">
        <ele>124.2</ele>
        <time>2015-08-15T17:09:50.505Z</time>
      </trkpt>
      <trkpt lat="49.52907" lon="3.55254">
        <ele>124.2</ele>
        <time>2015-08-15T17:09:58.554Z</time>
      </trkpt>
      <trkpt lat="49.52908" lon="3.55255">
        <ele>124.2</ele>
        <time>2015-08-15T17:09:59.614Z</time>
      </trkpt>
      <trkpt lat="49.5291" lon="3.55267">
        <ele>124.1</ele>
        <time>2015-08-15T17:10:06.649Z</time>
      </trkpt>
      <trkpt lat="49.5291" lon="3.55269">
        <ele>124.1</ele>
        <time>2015-08-15T17:10:07.626Z</time>
      </trkpt>
      <trkpt lat="49.52911" lon="3.55281">
        <ele>124</ele>
        <time>2015-08-15T17:10:13.724Z</time>
      </trkpt>
      <trkpt lat="49.52911" lon="3.55283">
        <ele>124</ele>
        <time>2015-08-15T17:10:14.561Z</time>
      </trkpt>
      <trkpt lat="49.52912" lon="3.55294">
        <ele>124</ele>
        <time>2015-08-15T17:10:19.585Z</time>
      </trkpt>
      <trkpt lat="49.52911" lon="3.55297">
        <ele>124</ele>
        <time>2015-08-15T17:10:20.555Z</time>
      </trkpt>
      <trkpt lat="49.5291" lon="3.5531">
        <ele>124.1</ele>
        <time>2015-08-15T17:10:23.893Z</time>
      </trkpt>
      <trkpt lat="49.5291" lon="3.55312">
        <ele>124.1</ele>
        <time>2015-08-15T17:10:26.569Z</time>
      </trkpt>
      <trkpt lat="49.5291" lon="3.55326">
        <ele>124.4</ele>
        <time>2015-08-15T17:10:33.529Z</time>
      </trkpt>
      <trkpt lat="49.5291" lon="3.55327">
        <ele>124.4</ele>
        <time>2015-08-15T17:10:34.504Z</time>
      </trkpt>
      <trkpt lat="49.5291" lon="3.55339">
        <ele>124.6</ele>
        <time>2015-08-15T17:10:39.585Z</time>
      </trkpt>
      <trkpt lat="49.5291" lon="3.55342">
        <ele>124.6</ele>
        <time>2015-08-15T17:10:40.664Z</time>
      </trkpt>
      <trkpt lat="49.52908" lon="3.55355">
        <ele>124.8</ele>
        <time>2015-08-15T17:10:47.522Z</time>
      </trkpt>
      <trkpt lat="49.52908" lon="3.55357">
        <ele>124.7</ele>
        <time>2015-08-15T17:10:48.491Z</time>
      </trkpt>
      <trkpt lat="49.52908" lon="3.5537">
        <ele>124.4</ele>
        <time>2015-08-15T17:10:55.644Z</time>
      </trkpt>
      <trkpt lat="49.52908" lon="3.55372">
        <ele>124.4</ele>
        <time>2015-08-15T17:10:56.581Z</time>
      </trkpt>
      <trkpt lat="49.52909" lon="3.55384">
        <ele>124.9</ele>
        <time>2015-08-15T17:11:03.528Z</time>
      </trkpt>
      <trkpt lat="49.52909" lon="3.55386">
        <ele>125</ele>
        <time>2015-08-15T17:11:04.497Z</time>
      </trkpt>
      <trkpt lat="49.52911" lon="3.55399">
        <ele>124.8</ele>
        <time>2015-08-15T17:11:10.617Z</time>
      </trkpt>
      <trkpt lat="49.52911" lon="3.554">
        <ele>124.7</ele>
        <time>2015-08-15T17:11:12.577Z</time>
      </trkpt>
      <trkpt lat="49.52912" lon="3.55413">
        <ele>123.6</ele>
        <time>2015-08-15T17:11:19.576Z</time>
      </trkpt>
      <trkpt lat="49.52913" lon="3.55415">
        <ele>123.6</ele>
        <time>2015-08-15T17:11:20.551Z</time>
      </trkpt>
      <trkpt lat="49.52914" lon="3.55427">
        <ele>123.2</ele>
        <time>2015-08-15T17:11:26.061Z</time>
      </trkpt>
      <trkpt lat="49.52914" lon="3.55429">
        <ele>123.1</ele>
        <time>2015-08-15T17:11:27.568Z</time>
      </trkpt>
      <trkpt lat="49.52918" lon="3.5544">
        <ele>123.1</ele>
        <time>2015-08-15T17:11:33.611Z</time>
      </trkpt>
      <trkpt lat="49.52918" lon="3.55441">
        <ele>123</ele>
        <time>2015-08-15T17:11:34.581Z</time>
      </trkpt>
      <trkpt lat="49.52924" lon="3.55449">
        <ele>122.8</ele>
        <time>2015-08-15T17:11:40.621Z</time>
      </trkpt>
      <trkpt lat="49.52926" lon="3.5545">
        <ele>122.7</ele>
        <time>2015-08-15T17:11:41.582Z</time>
      </trkpt>
      <trkpt lat="49.52932" lon="3.55457">
        <ele>122.8</ele>
        <time>2015-08-15T17:11:47.560Z</time>
      </trkpt>
      <trkpt lat="49.52933" lon="3.55458">
        <ele>122.8</ele>
        <time>2015-08-15T17:11:48.530Z</time>
      </trkpt>
      <trkpt lat="49.52938" lon="3.55469">
        <ele>122.3</ele>
        <time>2015-08-15T17:11:56.631Z</time>
      </trkpt>
      <trkpt lat="49.52938" lon="3.55471">
        <ele>122.3</ele>
        <time>2015-08-15T17:11:57.504Z</time>
      </trkpt>
      <trkpt lat="49.52937" lon="3.55483">
        <ele>122.2</ele>
        <time>2015-08-15T17:12:03.716Z</time>
      </trkpt>
      <trkpt lat="49.52937" lon="3.55485">
        <ele>122.3</ele>
        <time>2015-08-15T17:12:04.494Z</time>
      </trkpt>
      <trkpt lat="49.52934" lon="3.55497">
        <ele>122.4</ele>
        <time>2015-08-15T17:12:10.820Z</time>
      </trkpt>
      <trkpt lat="49.52934" lon="3.55498">
        <ele>122.4</ele>
        <time>2015-08-15T17:12:11.518Z</time>
      </trkpt>
      <trkpt lat="49.52935" lon="3.55512">
        <ele>122.3</ele>
        <time>2015-08-15T17:12:19.627Z</time>
      </trkpt>
      <trkpt lat="49.52935" lon="3.55514">
        <ele>122.3</ele>
        <time>2015-08-15T17:12:20.498Z</time>
      </trkpt>
      <trkpt lat="49.52936" lon="3.55527">
        <ele>122.3</ele>
        <time>2015-08-15T17:12:27.525Z</time>
      </trkpt>
      <trkpt lat="49.52937" lon="3.55529">
        <ele>122.4</ele>
        <time>2015-08-15T17:12:28.511Z</time>
      </trkpt>
      <trkpt lat="49.52937" lon="3.55541">
        <ele>122.8</ele>
        <time>2015-08-15T17:12:30.988Z</time>
      </trkpt>
      <trkpt lat="49.52937" lon="3.55543">
        <ele>122.7</ele>
        <time>2015-08-15T17:12:35.582Z</time>
      </trkpt>
      <trkpt lat="49.52939" lon="3.55556">
        <ele>122.1</ele>
        <time>2015-08-15T17:12:41.556Z</time>
      </trkpt>
      <trkpt lat="49.52939" lon="3.55558">
        <ele>121.9</ele>
        <time>2015-08-15T17:12:42.538Z</time>
      </trkpt>
      <trkpt lat="49.52939" lon="3.5557">
        <ele>122.3</ele>
        <time>2015-08-15T17:12:48.526Z</time>
      </trkpt>
      <trkpt lat="49.52938" lon="3.55572">
        <ele>122.4</ele>
        <time>2015-08-15T17:12:49.562Z</time>
      </trkpt>
      <trkpt lat="49.52938" lon="3.55584">
        <ele>122.6</ele>
        <time>2015-08-15T17:12:55.209Z</time>
      </trkpt>
      <trkpt lat="49.52938" lon="3.55586">
        <ele>122.6</ele>
        <time>2015-08-15T17:12:56.576Z</time>
      </trkpt>
      <trkpt lat="49.5294" lon="3.55599">
        <ele>122.4</ele>
        <time>2015-08-15T17:13:03.592Z</time>
      </trkpt>
      <trkpt lat="49.52941" lon="3.55601">
        <ele>122.4</ele>
        <time>2015-08-15T17:13:04.566Z</time>
      </trkpt>
      <trkpt lat="49.52943" lon="3.55613">
        <ele>122.2</ele>
        <time>2015-08-15T17:13:11.073Z</time>
      </trkpt>
      <trkpt lat="49.52943" lon="3.55615">
        <ele>122.2</ele>
        <time>2015-08-15T17:13:11.509Z</time>
      </trkpt>
      <trkpt lat="49.52947" lon="3.55626">
        <ele>122.1</ele>
        <time>2015-08-15T17:13:17.506Z</time>
      </trkpt>
      <trkpt lat="49.52948" lon="3.55628">
        <ele>122</ele>
        <time>2015-08-15T17:13:18.504Z</time>
      </trkpt>
      <trkpt lat="49.52951" lon="3.5564">
        <ele>121.7</ele>
        <time>2015-08-15T17:13:21.129Z</time>
      </trkpt>
      <trkpt lat="49.52952" lon="3.55641">
        <ele>121.8</ele>
        <time>2015-08-15T17:13:25.836Z</time>
      </trkpt>
      <trkpt lat="49.52954" lon="3.55654">
        <ele>121.8</ele>
        <time>2015-08-15T17:13:31.614Z</time>
      </trkpt>
      <trkpt lat="49.52954" lon="3.55656">
        <ele>121.7</ele>
        <time>2015-08-15T17:13:32.496Z</time>
      </trkpt>
      <trkpt lat="49.52954" lon="3.55669">
        <ele>120.8</ele>
        <time>2015-08-15T17:13:39.613Z</time>
      </trkpt>
      <trkpt lat="49.52954" lon="3.55671">
        <ele>120.8</ele>
        <time>2015-08-15T17:13:40.578Z</time>
      </trkpt>
      <trkpt lat="49.52954" lon="3.55685">
        <ele>121</ele>
        <time>2015-08-15T17:13:47.528Z</time>
      </trkpt>
      <trkpt lat="49.52953" lon="3.55687">
        <ele>121.1</ele>
        <time>2015-08-15T17:13:48.511Z</time>
      </trkpt>
      <trkpt lat="49.52951" lon="3.55699">
        <ele>121.2</ele>
        <time>2015-08-15T17:13:54.535Z</time>
      </trkpt>
      <trkpt lat="49.52951" lon="3.55701">
        <ele>121.3</ele>
        <time>2015-08-15T17:13:55.610Z</time>
      </trkpt>
      <trkpt lat="49.5295" lon="3.55714">
        <ele>121.3</ele>
        <time>2015-08-15T17:14:01.613Z</time>
      </trkpt>
      <trkpt lat="49.5295" lon="3.55716">
        <ele>121.2</ele>
        <time>2015-08-15T17:14:02.492Z</time>
      </trkpt>
      <trkpt lat="49.52948" lon="3.55729">
        <ele>120.7</ele>
        <time>2015-08-15T17:14:05.451Z</time>
      </trkpt>
      <trkpt lat="49.52948" lon="3.55731">
        <ele>120.7</ele>
        <time>2015-08-15T17:14:10.579Z</time>
      </trkpt>
      <trkpt lat="49.52946" lon="3.55744">
        <ele>120.3</ele>
        <time>2015-08-15T17:14:17.739Z</time>
      </trkpt>
      <trkpt lat="49.52946" lon="3.55746">
        <ele>120.4</ele>
        <time>2015-08-15T17:14:18.536Z</time>
      </trkpt>
      <trkpt lat="49.52945" lon="3.55758">
        <ele>120.8</ele>
        <time>2015-08-15T17:14:20.776Z</time>
      </trkpt>
      <trkpt lat="49.52945" lon="3.5576">
        <ele>120.7</ele>
        <time>2015-08-15T17:14:25.557Z</time>
      </trkpt>
      <trkpt lat="49.52944" lon="3.55772">
        <ele>120.6</ele>
        <time>2015-08-15T17:14:31.833Z</time>
      </trkpt>
      <trkpt lat="49.52944" lon="3.55774">
        <ele>120.6</ele>
        <time>2015-08-15T17:14:32.500Z</time>
      </trkpt>
      <trkpt lat="49.52942" lon="3.55786">
        <ele>120.4</ele>
        <time>2015-08-15T17:14:38.580Z</time>
      </trkpt>
      <trkpt lat="49.52942" lon="3.55788">
        <ele>120.4</ele>
        <time>2015-08-15T17:14:39.560Z</time>
      </trkpt>
      <trkpt lat="49.52941" lon="3.558">
        <ele>120.4</ele>
        <time>2015-08-15T17:14:41.037Z</time>
      </trkpt>
      <trkpt lat="49.5294" lon="3.55802">
        <ele>120.5</ele>
        <time>2015-08-15T17:14:46.512Z</time>
      </trkpt>
      <trkpt lat="49.52939" lon="3.55815">
        <ele>120.2</ele>
        <time>2015-08-15T17:14:53.605Z</time>
      </trkpt>
      <trkpt lat="49.52939" lon="3.55817">
        <ele>120.2</ele>
        <time>2015-08-15T17:14:54.568Z</time>
      </trkpt>
      <trkpt lat="49.52937" lon="3.55829">
        <ele>119.3</ele>
        <time>2015-08-15T17:15:00.535Z</time>
      </trkpt>
      <trkpt lat="49.52937" lon="3.55831">
        <ele>119.4</ele>
        <time>2015-08-15T17:15:01.558Z</time>
      </trkpt>
      <trkpt lat="49.52934" lon="3.55844">
        <ele>119</ele>
        <time>2015-08-15T17:15:08.666Z</time>
      </trkpt>
      <trkpt lat="49.52934" lon="3.55846">
        <ele>119</ele>
        <time>2015-08-15T17:15:09.504Z</time>
      </trkpt>
      <trkpt lat="49.52932" lon="3.55858">
        <ele>119</ele>
        <time>2015-08-15T17:15:15.893Z</time>
      </trkpt>
      <trkpt lat="49.52932" lon="3.55859">
        <ele>118.9</ele>
        <time>2015-08-15T17:15:16.508Z</time>
      </trkpt>
      <trkpt lat="49.5293" lon="3.55871">
        <ele>118.7</ele>
        <time>2015-08-15T17:15:23.601Z</time>
      </trkpt>
      <trkpt lat="49.5293" lon="3.55873">
        <ele>118.6</ele>
        <time>2015-08-15T17:15:24.588Z</time>
      </trkpt>
      <trkpt lat="49.52928" lon="3.55886">
        <ele>118.7</ele>
        <time>2015-08-15T17:15:31.617Z</time>
      </trkpt>
      <trkpt lat="49.52928" lon="3.55888">
        <ele>118.8</ele>
        <time>2015-08-15T17:15:32.588Z</time>
      </trkpt>
      <trkpt lat="49.52926" lon="3.559">
        <ele>119</ele>
        <time>2015-08-15T17:15:35.668Z</time>
      </trkpt>
      <trkpt lat="49.52926" lon="3.55902">
        <ele>118.9</ele>
        <time>2015-08-15T17:15:39.578Z</time>
      </trkpt>
      <trkpt lat="49.52925" lon="3.55914">
        <ele>118.5</ele>
        <time>2015-08-15T17:15:45.567Z</time>
      </trkpt>
      <trkpt lat="49.52925" lon="3.55916">
        <ele>118.5</ele>
        <time>2015-08-15T17:15:46.574Z</time>
      </trkpt>
      <trkpt lat="49.52922" lon="3.55928">
        <ele>118.2</ele>
        <time>2015-08-15T17:15:53.560Z</time>
      </trkpt>
      <trkpt lat="49.52922" lon="3.5593">
        <ele>118.2</ele>
        <time>2015-08-15T17:15:54.530Z</time>
      </trkpt>
      <trkpt lat="49.52922" lon="3.55942">
        <ele>117.9</ele>
        <time>2015-08-15T17:16:01.736Z</time>
      </trkpt>
      <trkpt lat="49.52922" lon="3.55944">
        <ele>117.9</ele>
        <time>2015-08-15T17:16:02.486Z</time>
      </trkpt>
      <trkpt lat="49.52921" lon="3.55956">
        <ele>117.1</ele>
        <time>2015-08-15T17:16:09.525Z</time>
      </trkpt>
      <trkpt lat="49.5292" lon="3.55959">
        <ele>116.9</ele>
        <time>2015-08-15T17:16:10.497Z</time>
      </trkpt>
      <trkpt lat="49.52917" lon="3.55969">
        <ele>116.5</ele>
        <time>2015-08-15T17:16:10.952Z</time>
      </trkpt>
      <trkpt lat="49.52917" lon="3.55971">
        <ele>116.6</ele>
        <time>2015-08-15T17:16:16.577Z</time>
      </trkpt>
      <trkpt lat="49.52914" lon="3.55983">
        <ele>117.1</ele>
        <time>2015-08-15T17:16:21.594Z</time>
      </trkpt>
      <trkpt lat="49.52914" lon="3.55985">
        <ele>117.2</ele>
        <time>2015-08-15T17:16:22.568Z</time>
      </trkpt>
      <trkpt lat="49.52912" lon="3.55997">
        <ele>117.2</ele>
        <time>2015-08-15T17:16:27.524Z</time>
      </trkpt>
      <trkpt lat="49.52911" lon="3.55999">
        <ele>117.3</ele>
        <time>2015-08-15T17:16:28.507Z</time>
      </trkpt>
      <trkpt lat="49.52909" lon="3.5601">
        <ele>116.8</ele>
        <time>2015-08-15T17:16:34.604Z</time>
      </trkpt>
      <trkpt lat="49.52908" lon="3.56012">
        <ele>116.6</ele>
        <time>2015-08-15T17:16:35.575Z</time>
      </trkpt>
      <trkpt lat="49.52906" lon="3.56025">
        <ele>116.4</ele>
        <time>2015-08-15T17:16:42.564Z</time>
      </trkpt>
      <trkpt lat="49.52906" lon="3.56027">
        <ele>116.5</ele>
        <time>2015-08-15T17:16:43.548Z</time>
      </trkpt>
      <trkpt lat="49.52904" lon="3.5604">
        <ele>115.9</ele>
        <time>2015-08-15T17:16:50.519Z</time>
      </trkpt>
      <trkpt lat="49.52903" lon="3.56042">
        <ele>116.1</ele>
        <time>2015-08-15T17:16:51.493Z</time>
      </trkpt>
      <trkpt lat="49.52901" lon="3.56054">
        <ele>116.2</ele>
        <time>2015-08-15T17:16:57.615Z</time>
      </trkpt>
      <trkpt lat="49.52901" lon="3.56056">
        <ele>116.2</ele>
        <time>2015-08-15T17:16:58.575Z</time>
      </trkpt>
      <trkpt lat="49.52899" lon="3.56069">
        <ele>116.3</ele>
        <time>2015-08-15T17:17:05.618Z</time>
      </trkpt>
      <trkpt lat="49.52899" lon="3.56071">
        <ele>116.3</ele>
        <time>2015-08-15T17:17:06.591Z</time>
      </trkpt>
      <trkpt lat="49.52896" lon="3.56082">
        <ele>115.6</ele>
        <time>2015-08-15T17:17:12.559Z</time>
      </trkpt>
      <trkpt lat="49.52896" lon="3.56084">
        <ele>115.7</ele>
        <time>2015-08-15T17:17:13.554Z</time>
      </trkpt>
      <trkpt lat="49.52894" lon="3.56096">
        <ele>116.1</ele>
        <time>2015-08-15T17:17:19.571Z</time>
      </trkpt>
      <trkpt lat="49.52894" lon="3.56098">
        <ele>116</ele>
        <time>2015-08-15T17:17:20.554Z</time>
      </trkpt>
      <trkpt lat="49.52892" lon="3.5611">
        <ele>115.9</ele>
        <time>2015-08-15T17:17:26.528Z</time>
      </trkpt>
      <trkpt lat="49.52892" lon="3.56112">
        <ele>115.9</ele>
        <time>2015-08-15T17:17:27.505Z</time>
      </trkpt>
      <trkpt lat="49.52889" lon="3.56124">
        <ele>115.1</ele>
        <time>2015-08-15T17:17:34.525Z</time>
      </trkpt>
      <trkpt lat="49.52889" lon="3.56125">
        <ele>114.9</ele>
        <time>2015-08-15T17:17:35.509Z</time>
      </trkpt>
      <trkpt lat="49.52887" lon="3.56138">
        <ele>114.5</ele>
        <time>2015-08-15T17:17:42.915Z</time>
      </trkpt>
      <trkpt lat="49.52887" lon="3.56139">
        <ele>114.5</ele>
        <time>2015-08-15T17:17:43.650Z</time>
      </trkpt>
      <trkpt lat="49.52886" lon="3.56152">
        <ele>114</ele>
        <time>2015-08-15T17:17:52.591Z</time>
      </trkpt>
      <trkpt lat="49.52884" lon="3.56156">
        <ele>113.8</ele>
        <time>2015-08-15T17:17:53.578Z</time>
      </trkpt>
      <trkpt lat="49.52882" lon="3.56168">
        <ele>113.8</ele>
        <time>2015-08-15T17:17:59.521Z</time>
      </trkpt>
      <trkpt lat="49.52882" lon="3.5617">
        <ele>113.6</ele>
        <time>2015-08-15T17:18:00.499Z</time>
      </trkpt>
      <trkpt lat="49.52879" lon="3.56183">
        <ele>114</ele>
        <time>2015-08-15T17:18:06.618Z</time>
      </trkpt>
      <trkpt lat="49.52879" lon="3.56186">
        <ele>114.2</ele>
        <time>2015-08-15T17:18:07.595Z</time>
      </trkpt>
      <trkpt lat="49.52876" lon="3.56199">
        <ele>114.3</ele>
        <time>2015-08-15T17:18:13.560Z</time>
      </trkpt>
      <trkpt lat="49.52876" lon="3.56201">
        <ele>114.3</ele>
        <time>2015-08-15T17:18:14.545Z</time>
      </trkpt>
      <trkpt lat="49.52874" lon="3.56214">
        <ele>114.5</ele>
        <time>2015-08-15T17:18:21.522Z</time>
      </trkpt>
      <trkpt lat="49.52873" lon="3.56216">
        <ele>114.6</ele>
        <time>2015-08-15T17:18:22.514Z</time>
      </trkpt>
      <trkpt lat="49.52871" lon="3.56229">
        <ele>114.9</ele>
        <time>2015-08-15T17:18:29.539Z</time>
      </trkpt>
      <trkpt lat="49.52871" lon="3.56231">
        <ele>114.7</ele>
        <time>2015-08-15T17:18:30.505Z</time>
      </trkpt>
      <trkpt lat="49.52869" lon="3.56244">
        <ele>114.4</ele>
        <time>2015-08-15T17:18:37.609Z</time>
      </trkpt>
      <trkpt lat="49.52869" lon="3.56246">
        <ele>114.2</ele>
        <time>2015-08-15T17:18:38.546Z</time>
      </trkpt>
      <trkpt lat="49.52867" lon="3.56258">
        <ele>114.4</ele>
        <time>2015-08-15T17:18:44.541Z</time>
      </trkpt>
      <trkpt lat="49.52866" lon="3.5626">
        <ele>114.5</ele>
        <time>2015-08-15T17:18:45.533Z</time>
      </trkpt>
      <trkpt lat="49.52864" lon="3.56272">
        <ele>114.7</ele>
        <time>2015-08-15T17:18:51.591Z</time>
      </trkpt>
      <trkpt lat="49.52864" lon="3.56274">
        <ele>115</ele>
        <time>2015-08-15T17:18:52.568Z</time>
      </trkpt>
      <trkpt lat="49.52861" lon="3.56286">
        <ele>114.9</ele>
        <time>2015-08-15T17:18:59.545Z</time>
      </trkpt>
      <trkpt lat="49.52861" lon="3.56288">
        <ele>114.9</ele>
        <time>2015-08-15T17:19:00.518Z</time>
      </trkpt>
      <trkpt lat="49.52858" lon="3.56301">
        <ele>115</ele>
        <time>2015-08-15T17:19:06.631Z</time>
      </trkpt>
      <trkpt lat="49.52858" lon="3.56303">
        <ele>115.2</ele>
        <time>2015-08-15T17:19:07.589Z</time>
      </trkpt>
      <trkpt lat="49.52855" lon="3.56314">
        <ele>114.8</ele>
        <time>2015-08-15T17:19:15.585Z</time>
      </trkpt>
      <trkpt lat="49.52855" lon="3.56316">
        <ele>114.9</ele>
        <time>2015-08-15T17:19:16.563Z</time>
      </trkpt>
      <trkpt lat="49.52854" lon="3.56328">
        <ele>114.3</ele>
        <time>2015-08-15T17:19:22.555Z</time>
      </trkpt>
      <trkpt lat="49.52854" lon="3.5633">
        <ele>114.2</ele>
        <time>2015-08-15T17:19:23.529Z</time>
      </trkpt>
      <trkpt lat="49.52853" lon="3.56343">
        <ele>115.1</ele>
        <time>2015-08-15T17:19:25.599Z</time>
      </trkpt>
      <trkpt lat="49.52853" lon="3.56344">
        <ele>115.2</ele>
        <time>2015-08-15T17:19:30.569Z</time>
      </trkpt>
      <trkpt lat="49.52853" lon="3.56347">
        <ele>115.6</ele>
        <time>2015-08-15T17:19:33.583Z</time>
      </trkpt>
      <trkpt lat="49.52853" lon="3.56347">
        <ele>115.6</ele>
        <time>2015-08-15T17:19:34.583Z</time>
      </trkpt>
      <trkpt lat="49.52853" lon="3.56348">
        <ele>115.9</ele>
        <time>2015-08-15T17:19:38.553Z</time>
      </trkpt>
      <trkpt lat="49.52853" lon="3.56349">
        <ele>116</ele>
        <time>2015-08-15T17:19:39.725Z</time>
      </trkpt>
      <trkpt lat="49.52854" lon="3.56351">
        <ele>115.9</ele>
        <time>2015-08-15T17:19:42.553Z</time>
      </trkpt>
      <trkpt lat="49.52854" lon="3.56352">
        <ele>115.9</ele>
        <time>2015-08-15T17:19:43.563Z</time>
      </trkpt>
      <trkpt lat="49.52854" lon="3.56352">
        <ele>115.9</ele>
        <time>2015-08-15T17:19:46.216Z</time>
      </trkpt>
    </trkseg>
  </trk>
</gpx>